[[[{"header":{"parameterUnit":"kt","parameterCategory":2,"dx":1,"dy":1,"la1":29.587661999999998,"la2":31.0,"lo1":-88.76705300000003,"lo2":-86.6583820000003,"nx":115,"ny":88,"refTime":"2022-10-15T06:00:00:Z","depth":0,"parameterNumber":1,"parameterNumberName":"U-component_of_WINDS"},"data":[-0.3902,-0.3902,-0.3902,-0.3902,-0.3902,-0.3902,-0.3902,-0.3902,-0.3902,-0.3902,-0.39,-0.3836,-0.3825,-0.3885,-0.3893,-0.3902,-0.3902,-0.3902,-0.3902,-0.3902,-0.3902,-0.3902,-0.3782,-0.3542,-0.3482,-0.3062,-0.2521,-0.1741,-0.096,-0.048,0.0,0.0,0.0,0.0,0.0,0.0,0.0,0.0,0.0,0.0,0.0,0.0,0.0,0.0,0.024,0.036,0.036,0.036,0.036,0.024,0.0,0.0,0.0,0.0,0.0,0.0,0.0,0.0,0.0,0.0,0.0,0.0,0.0,0.0,0.0368,0.0432,0.0498,0.069,0.0503,0.0815,0.1011,0.1019,0.1411,0.2974,0.403,0.572,0.735,0.7874,0.841,0.9404,1.0446,1.1488,1.2529,1.3897,1.54,1.6502,1.6692,1.6756,1.6756,1.6756,1.6756,1.6756,1.6756,1.6756,1.6756,1.6756,1.6756,1.6756,1.6756,1.6756,1.6886,1.7334,1.7592,1.7921,1.8574,1.9161,1.9361,1.9491,1.9032,1.8897,1.8844,1.878,1.9038,1.9361,1.9814,-0.3902,-0.3902,-0.3902,-0.3902,-0.3902,-0.3902,-0.39,-0.39,-0.39,-0.3898,-0.3832,-0.3788,-0.3708,-0.3725,-0.3813,-0.3892,-0.3902,-0.3902,-0.3902,-0.3902,-0.3902,-0.3902,-0.3902,-0.3902,-0.3722,-0.3422,-0.2822,-0.1921,-0.084,-0.066,0.0,0.0,0.0,0.0,0.0,0.0,0.0,0.0,0.0,0.0,0.0,0.0,0.0,0.0,0.102,0.1621,0.1681,0.1681,0.1681,0.1321,0.0,0.0,0.0,0.0,0.0,0.0,0.0,0.0,0.0,0.0,0.0,0.0,0.0,0.0,0.0,0.0848,0.0853,0.0736,0.0308,0.0309,0.0562,0.0756,0.1206,0.2046,0.2696,0.3603,0.5159,0.6462,0.7338,0.8361,0.9404,1.0511,1.1752,1.3053,1.4551,1.6173,1.6756,1.6756,1.6756,1.6756,1.6756,1.6756,1.6756,1.6756,1.6756,1.6756,1.6756,1.6756,1.6756,1.6756,1.6756,1.6951,1.7204,1.7533,1.7857,1.8315,1.8509,1.8709,1.878,1.8709,1.8521,1.8391,1.858,1.8774,1.9291,-0.3902,-0.3902,-0.3902,-0.3902,-0.3897,-0.3805,-0.3793,-0.3787,-0.3758,-0.3762,-0.3784,-0.3709,-0.3695,-0.3704,-0.3816,-0.3902,-0.3902,-0.3902,-0.3902,-0.3902,-0.3902,-0.3902,-0.3902,-0.3902,-0.3782,-0.3242,-0.2641,-0.1861,-0.06,-0.042,0.0,0.0,0.0,0.0,0.0,0.0,0.0,0.0,0.0,0.0,0.0,0.0,0.0,0.0,0.09,0.1141,0.162,0.2399,0.2279,0.186,0.1441,0.102,0.09,0.042,0.042,0.06,0.0,0.0,0.0,0.0,0.0,0.0,0.0,0.0,0.0,0.1201,0.1148,0.0907,0.0486,0.0244,0.0494,0.0496,0.0812,0.1449,0.2089,0.279,0.4065,0.5178,0.5934,0.688,0.7884,0.9055,1.0556,1.1921,1.3767,1.5325,1.6562,1.6692,1.6692,1.6756,1.6756,1.6756,1.6756,1.6756,1.6756,1.6756,1.6756,1.6756,1.6756,1.6756,1.6756,1.6756,1.6756,1.708,1.7404,1.7663,1.7792,1.7921,1.8051,1.8062,1.7933,1.7933,1.8056,1.8186,1.8374,-0.3902,-0.3902,-0.3902,-0.3902,-0.3896,-0.3793,-0.3719,-0.3709,-0.3698,-0.3694,-0.3672,-0.3689,-0.3695,-0.3704,-0.3816,-0.3902,-0.3902,-0.3902,-0.3902,-0.3902,-0.3902,-0.3902,-0.3902,-0.3902,-0.3662,-0.3062,-0.2521,-0.1921,-0.1441,-0.084,0.0,0.0,0.0,0.0,0.0,0.0,0.0,0.0,0.0,0.0,0.0,0.0,0.0,0.0,0.1141,0.1381,0.162,0.2458,0.2519,0.2519,0.222,0.1981,0.1981,0.102,0.09,0.1201,0.0,0.0,0.0,0.0,0.0,0.0,0.06,0.096,0.1261,0.1381,0.1381,0.1081,0.0843,0.0605,0.0487,0.0367,0.043,0.1176,0.1871,0.262,0.3369,0.3915,0.4412,0.5281,0.6158,0.7597,0.9159,1.0929,1.2841,1.4352,1.5649,1.6368,1.6303,1.6562,1.6562,1.6562,1.6627,1.6756,1.6756,1.6756,1.6756,1.6756,1.6692,1.6692,1.6756,1.6756,1.6756,1.6886,1.6951,1.708,1.721,1.7334,1.7269,1.7145,1.7085,1.728,1.7404,1.7404,1.7398,-0.3902,-0.3902,-0.3902,-0.3902,-0.3841,-0.3832,-0.3829,-0.3823,-0.3772,-0.3669,-0.3683,-0.367,-0.3683,-0.3692,-0.3803,-0.389,-0.3902,-0.3902,-0.3902,-0.3902,-0.3902,-0.3902,-0.3902,-0.3902,-0.3662,-0.3542,-0.3182,-0.2581,-0.2821,-0.1981,0.0,0.0,0.0,0.0,0.0,0.0,0.0,0.0,0.0,0.0,0.0,0.0,0.0,0.0,0.1081,0.1921,0.1861,0.222,0.258,0.2939,0.2819,0.216,0.21,0.18,0.12,0.114,0.156,0.114,0.0,0.0,0.0,0.078,0.096,0.1441,0.1801,0.2041,0.1861,0.1621,0.09,0.0603,0.0604,0.0484,0.0547,0.104,0.1598,0.2212,0.2898,0.3361,0.371,0.3982,0.4967,0.6364,0.7915,0.9318,1.1214,1.3352,1.4672,1.539,1.5719,1.6238,1.6303,1.6368,1.6562,1.6756,1.6756,1.6756,1.6756,1.6692,1.6692,1.6692,1.6497,1.6562,1.6692,1.6756,1.6821,1.6756,1.6756,1.6886,1.6886,1.6756,1.6756,1.6756,1.6692,1.6692,1.6627,-0.3902,-0.3902,-0.3902,-0.3902,-0.3897,-0.3804,-0.3812,-0.3877,-0.3718,-0.3665,-0.3665,-0.36,-0.361,-0.3707,-0.3764,-0.3809,-0.3897,-0.39,-0.3902,-0.3902,-0.3902,-0.3902,-0.3902,-0.3902,-0.3722,-0.3302,-0.3062,-0.2942,-0.2281,-0.1681,0.0,0.0,0.0,0.0,0.0,0.0,0.0,0.0,0.0,0.0,0.0,0.0,0.0,0.0,0.0,0.1801,0.2041,0.3898,0.4438,0.4736,0.3776,0.3117,0.3058,0.3058,0.2697,0.3298,0.3058,0.2098,0.1559,0.12,0.132,0.1561,0.1981,0.2221,0.2521,0.2521,0.2281,0.2041,0.1201,0.06,0.066,0.0721,0.0844,0.0908,0.1393,0.1939,0.2378,0.2886,0.3024,0.31,0.3939,0.531,0.6634,0.7961,0.9548,1.1225,1.2493,1.3339,1.4112,1.469,1.4949,1.5047,1.558,1.6212,1.6756,1.6756,1.6368,1.6108,1.6303,1.6432,1.6243,1.6308,1.6438,1.6567,1.6627,1.6756,1.6756,1.6756,1.6756,1.6756,1.6756,1.6417,1.6148,1.5943,1.5684,-0.3902,-0.3902,-0.3902,-0.3902,-0.3893,-0.3779,-0.3766,-0.3839,-0.3709,-0.3665,-0.3665,-0.362,-0.364,-0.3669,-0.3668,-0.3717,-0.3809,-0.3892,-0.3898,-0.3902,-0.3902,-0.3902,-0.3902,-0.3902,-0.3602,-0.3362,-0.3182,-0.3002,-0.2281,-0.1621,-0.096,0.0,0.0,0.0,0.0,0.0,0.0,0.0,0.0,0.0,0.0,0.0,0.0,0.0,0.0,0.1081,0.156,0.3179,0.3958,0.4556,0.4016,0.3536,0.3476,0.3357,0.3894,0.4854,0.4375,0.3056,0.2399,0.21,0.2041,0.2281,0.2821,0.3062,0.2942,0.2761,0.2581,0.2281,0.1741,0.1681,0.1741,0.1381,0.1143,0.1265,0.1506,0.1748,0.1691,0.2126,0.2433,0.2565,0.3061,0.4396,0.5648,0.6894,0.779,0.884,0.9859,1.0952,1.1784,1.2546,1.2945,1.3076,1.3538,1.4072,1.4796,1.552,1.546,1.553,1.5984,1.6178,1.5789,1.5664,1.6119,1.6243,1.6243,1.6373,1.6562,1.6756,1.6756,1.6756,1.645,1.5988,1.5521,1.5159,1.4818,-0.3902,-0.3902,-0.3902,-0.3902,-0.3892,-0.3719,-0.3665,-0.3673,-0.3665,-0.3661,-0.366,-0.3649,-0.3642,-0.3669,-0.3661,-0.3692,-0.3709,-0.3815,-0.3886,-0.3893,-0.39,-0.3894,-0.3894,-0.39,-0.3782,-0.3782,-0.3662,-0.3302,-0.2822,-0.2041,-0.1141,0.0,0.0,0.0,0.0,0.0,0.0,0.0,0.0,0.0,0.0,0.0,0.0,0.0,0.0,0.042,0.12,0.2039,0.2579,0.2939,0.3297,0.2938,0.2519,0.2039,0.2818,0.3716,0.4555,0.3177,0.2159,0.228,0.2401,0.2942,0.3482,0.3362,0.3182,0.3122,0.2942,0.2641,0.2221,0.2461,0.2521,0.1981,0.1441,0.1441,0.1621,0.1501,0.1261,0.1443,0.1746,0.2051,0.2479,0.3535,0.4825,0.5552,0.6426,0.7177,0.7714,0.8613,0.9016,0.9845,1.0783,1.0974,1.1644,1.2064,1.2639,1.3361,1.3508,1.4036,1.4681,1.5135,1.5015,1.4825,1.5275,1.5599,1.5729,1.5854,1.6049,1.6308,1.6487,1.636,1.6035,1.5565,1.4953,1.4477,1.4197,-0.3725,-0.3729,-0.3825,-0.388,-0.3784,-0.3704,-0.3662,-0.3665,-0.3625,-0.3552,-0.3544,-0.3568,-0.3573,-0.3552,-0.3579,-0.3605,-0.3695,-0.3719,-0.3726,-0.373,-0.382,-0.3816,-0.3812,-0.382,-0.3898,-0.3902,-0.3842,-0.3542,-0.2822,-0.2221,-0.1441,-0.066,0.0,0.0,0.0,0.0,0.0,0.0,0.0,0.0,0.0,0.0,0.0,0.0,0.0,0.0,0.132,0.2339,0.3297,0.3418,0.3416,0.3177,0.24,0.1981,0.222,0.2758,0.3536,0.3715,0.3058,0.312,0.3122,0.3482,0.3722,0.3542,0.3182,0.3242,0.3122,0.2942,0.2401,0.2521,0.2641,0.2161,0.1681,0.1261,0.1261,0.1081,0.09,0.096,0.1262,0.1082,0.1506,0.2793,0.4046,0.463,0.5213,0.5422,0.5637,0.5779,0.6048,0.7384,0.8546,0.9256,1.0002,1.0402,1.091,1.13,1.1787,1.2467,1.3057,1.3573,1.3508,1.3547,1.4287,1.489,1.495,1.508,1.54,1.562,1.5759,1.5698,1.5441,1.4945,1.4393,1.3983,1.3653,-0.3852,-0.3699,-0.3796,-0.3708,-0.3642,-0.3636,-0.366,-0.3605,-0.3512,-0.3493,-0.3485,-0.348,-0.349,-0.3519,-0.3552,-0.3654,-0.3662,-0.3674,-0.3673,-0.3681,-0.3809,-0.3793,-0.3789,-0.3811,-0.3902,-0.3902,-0.3842,-0.3482,-0.2641,-0.2161,-0.1501,-0.078,0.0,0.0,0.0,0.0,0.0,0.0,0.0,0.0,0.0,0.0,0.0,0.0,0.0,0.0,0.102,0.2219,0.2518,0.2158,0.2819,0.2399,0.144,0.1141,0.1441,0.216,0.2219,0.3117,0.3837,0.39,0.3902,0.3902,0.3902,0.3722,0.3362,0.3242,0.3242,0.3182,0.3002,0.3062,0.3122,0.2701,0.2101,0.1621,0.1261,0.102,0.0,0.0,0.072,0.066,0.1081,0.2418,0.3213,0.3717,0.4335,0.4657,0.4756,0.4712,0.4844,0.5915,0.6687,0.7568,0.8057,0.8611,0.9045,0.9209,0.956,1.0405,1.1131,1.1746,1.2081,1.213,1.2736,1.3239,1.3772,1.4361,1.4898,1.5298,1.5234,1.492,1.4539,1.4106,1.3543,1.32,1.2939,-0.4159,-0.369,-0.3692,-0.363,-0.3539,-0.3525,-0.3497,-0.3511,-0.3499,-0.3497,-0.3503,-0.3488,-0.3509,-0.3519,-0.3603,-0.3642,-0.3679,-0.3656,-0.3659,-0.3702,-0.3764,-0.378,-0.3776,-0.3791,-0.3821,-0.3897,-0.3842,-0.3302,-0.2161,-0.2041,-0.1261,-0.054,0.0,0.0,0.0,0.0,0.0,0.0,0.0,0.0,0.0,0.0,0.0,0.0,0.0,0.0,0.0,0.168,0.174,0.12,0.174,0.156,0.0,0.0,0.072,0.1561,0.132,0.2039,0.3537,0.378,0.3841,0.3842,0.3902,0.3842,0.3842,0.3842,0.3782,0.3662,0.3662,0.3722,0.3782,0.3662,0.2821,0.2221,0.1741,0.0,0.0,0.0,0.0,0.048,0.1261,0.2041,0.2463,0.3006,0.3614,0.3931,0.3899,0.3974,0.4103,0.4668,0.506,0.5589,0.5732,0.6463,0.7345,0.7261,0.7609,0.838,0.9155,0.9759,1.0159,1.0844,1.1225,1.139,1.1982,1.2752,1.3805,1.4913,1.4385,1.385,1.357,1.3368,1.2704,1.2235,1.1928,-0.4123,-0.3578,-0.3675,-0.3591,-0.3525,-0.3522,-0.3488,-0.3495,-0.3489,-0.3489,-0.349,-0.3505,-0.3515,-0.3518,-0.3543,-0.3581,-0.3645,-0.3591,-0.3592,-0.3672,-0.3691,-0.3675,-0.3626,-0.366,-0.378,-0.3791,-0.3754,-0.3476,-0.2453,-0.2159,-0.1437,-0.0776,0.0,0.0,0.0,0.0,0.0,0.0,0.0,0.0,0.0,0.0,0.0,0.0,0.0,0.0,0.0,0.096,0.102,0.084,0.09,0.1081,0.0,0.0,0.0,0.054,0.09,0.144,0.2339,0.294,0.3422,0.3782,0.3842,0.3902,0.3902,0.3902,0.3902,0.3902,0.3902,0.3902,0.3842,0.3542,0.2882,0.2401,0.1921,0.0,0.0,0.0,0.0,0.066,0.1381,0.2221,0.2703,0.3244,0.3729,0.3917,0.3936,0.3939,0.3941,0.4013,0.4212,0.4224,0.4234,0.495,0.5683,0.5962,0.6239,0.7062,0.7762,0.8172,0.8828,0.9857,1.0451,1.0641,1.0913,1.1268,1.2289,1.3486,1.3349,1.2891,1.2915,1.2996,1.2354,1.1958,1.1447,-0.428,-0.3522,-0.3591,-0.3576,-0.3488,-0.3488,-0.3522,-0.3493,-0.3489,-0.3489,-0.349,-0.3514,-0.3523,-0.3526,-0.3473,-0.3511,-0.3561,-0.3477,-0.3529,-0.3605,-0.3638,-0.3626,-0.3569,-0.3609,-0.3662,-0.3674,-0.3421,-0.309,-0.2544,-0.1778,-0.1363,-0.1182,-0.0647,-0.0295,0.0,0.0,0.0,0.0,0.0,0.0,0.0,0.0,0.0,0.0,0.0,0.0,0.0,0.0,0.0,0.042,0.078,0.06,0.0,0.0,0.0,0.0,0.0,0.132,0.198,0.2341,0.2882,0.3362,0.3782,0.3902,0.3902,0.3902,0.3902,0.3902,0.3902,0.3902,0.3902,0.3482,0.2942,0.2401,0.1981,0.1561,0.0,0.0,0.1141,0.1381,0.1921,0.2461,0.2942,0.3482,0.3722,0.3902,0.3902,0.3905,0.3911,0.3979,0.399,0.4001,0.4064,0.458,0.4717,0.481,0.4906,0.5715,0.6523,0.6882,0.7302,0.8508,0.9731,0.9976,1.0198,1.1153,1.1897,1.2486,1.2674,1.2586,1.2509,1.2424,1.2135,1.1807,1.0639,-0.4568,-0.3623,-0.3569,-0.3603,-0.3602,-0.3543,-0.349,-0.3489,-0.3489,-0.3489,-0.3497,-0.3482,-0.3499,-0.3505,-0.3497,-0.3507,-0.3524,-0.3518,-0.3497,-0.3558,-0.3588,-0.3596,-0.3599,-0.3559,-0.3604,-0.344,-0.331,-0.2729,-0.1963,-0.163,-0.1502,-0.1549,-0.0866,-0.0466,0.0,0.0,0.0,0.0,0.0,0.0,0.0,0.0,0.0,0.0,0.0,0.0,0.0,0.0,0.0,0.0,0.0,0.0,0.0,0.0,0.0,0.0,0.0,0.1201,0.1561,0.1861,0.2221,0.2821,0.3362,0.3722,0.3902,0.3902,0.3902,0.3902,0.3902,0.3902,0.3902,0.3782,0.3302,0.2761,0.2281,0.1861,0.1621,0.1561,0.1801,0.2101,0.2401,0.2761,0.3242,0.3602,0.3842,0.3902,0.3902,0.3902,0.3902,0.3904,0.3908,0.3911,0.3911,0.3973,0.4041,0.4538,0.5189,0.5875,0.6609,0.6654,0.6643,0.7491,0.9037,0.9326,0.9855,1.1027,1.1993,1.2215,1.2334,1.2243,1.208,1.1862,1.16,1.1524,1.0354,-0.5084,-0.4717,-0.4261,-0.409,-0.4088,-0.3652,-0.3543,-0.3489,-0.3543,-0.3489,-0.3494,-0.3505,-0.3513,-0.3513,-0.3516,-0.3482,-0.3514,-0.3475,-0.3473,-0.348,-0.3542,-0.3531,-0.354,-0.3511,-0.3375,-0.2926,-0.3144,-0.2924,-0.2397,-0.1932,-0.1414,-0.0957,-0.102,-0.057,0.0,0.0,0.0,0.0,0.0,0.0,0.0,0.0,0.0,0.0,0.0,0.0,0.0,0.0,0.0,0.0,0.0,0.0,0.0,0.0,0.0,0.0,0.0538,0.102,0.1321,0.1321,0.1561,0.2161,0.2761,0.3362,0.3722,0.3902,0.3902,0.3902,0.3902,0.3902,0.3842,0.3422,0.3242,0.3002,0.2641,0.2281,0.1981,0.2101,0.2221,0.2581,0.2882,0.3182,0.3422,0.3722,0.3902,0.3902,0.3902,0.3902,0.3902,0.3902,0.3905,0.3905,0.3965,0.4087,0.433,0.4809,0.5532,0.621,0.687,0.7195,0.7288,0.7949,0.8691,0.8982,0.9362,1.0126,1.0574,1.1272,1.1908,1.1685,1.1472,1.1238,1.1248,1.1284,1.0547,-0.5833,-0.556,-0.4909,-0.4689,-0.4634,-0.4362,-0.409,-0.387,-0.3816,-0.3707,-0.3543,-0.3489,-0.3489,-0.3491,-0.3489,-0.3509,-0.3526,-0.3506,-0.351,-0.3522,-0.3509,-0.3491,-0.3499,-0.3467,-0.3428,-0.3165,-0.3143,-0.2997,-0.28,-0.2387,-0.2211,-0.166,-0.1337,-0.0899,0.0,0.0,0.0,0.0,0.0,0.0,0.0,0.0,0.0,0.0,0.0,0.0,0.0,0.0,0.0,0.0,0.0,0.0,0.0,0.0,0.0,0.0,0.0,0.084,0.1201,0.084,0.138,0.2039,0.246,0.2821,0.3362,0.3722,0.3902,0.3902,0.3902,0.3902,0.3782,0.3542,0.3422,0.3302,0.3242,0.3002,0.2942,0.2822,0.2761,0.3062,0.3362,0.3542,0.3722,0.3842,0.3902,0.3902,0.3902,0.3902,0.3902,0.3902,0.3902,0.3902,0.4022,0.4141,0.4441,0.4621,0.5224,0.5404,0.6062,0.6659,0.7191,0.8091,0.8728,0.9139,0.9086,0.8988,0.8997,0.9885,1.1078,1.1058,1.0855,1.1018,1.1176,1.109,1.0348,-0.6644,-0.5883,-0.5343,-0.5127,-0.5072,-0.4909,-0.4634,-0.4144,-0.409,-0.3925,-0.3489,-0.3489,-0.3489,-0.3489,-0.3489,-0.3489,-0.3491,-0.3489,-0.3493,-0.3499,-0.3493,-0.3489,-0.349,-0.3489,-0.339,-0.3126,-0.2882,-0.2649,-0.2801,-0.323,-0.3056,-0.2408,-0.1824,-0.1393,-0.0668,-0.0223,0.0,0.0,0.0,0.0,0.0,0.0,0.0,0.0,0.0,0.0,0.0,0.0,0.0,0.0,0.0,0.0,0.0,0.0,0.0,0.0,0.0,0.0479,0.114,0.066,0.072,0.1619,0.2159,0.2281,0.2821,0.3362,0.3902,0.3902,0.3902,0.3902,0.3902,0.3842,0.3902,0.3782,0.3662,0.3722,0.3722,0.3362,0.3422,0.3722,0.3662,0.3782,0.3842,0.3902,0.3902,0.3902,0.3902,0.3902,0.3902,0.3902,0.3902,0.3902,0.4022,0.4022,0.4203,0.4143,0.4384,0.4264,0.4861,0.5459,0.6295,0.7311,0.8222,0.8659,0.8722,0.8581,0.8619,0.9145,1.0222,1.0741,1.0982,1.1089,1.1022,1.037,0.9763,-0.6758,-0.5343,-0.4743,-0.4471,-0.4416,-0.4088,-0.3816,-0.3652,-0.3652,-0.3652,-0.3489,-0.3489,-0.3489,-0.3489,-0.3489,-0.3489,-0.3489,-0.3489,-0.3489,-0.3489,-0.3489,-0.3489,-0.3489,-0.3434,-0.3325,-0.3054,-0.2963,-0.3337,-0.3272,-0.3434,-0.3107,-0.2622,-0.2021,-0.1424,-0.0878,-0.0329,0.0,0.0,0.0,0.0,0.0,0.0,0.0,0.0,0.0,0.0,0.0,0.0,0.0,0.0,0.0,0.0,0.0,0.0,0.0,0.0,0.0,0.0,0.0358,0.006,0.03,0.1079,0.156,0.192,0.24,0.3178,0.39,0.3902,0.3902,0.3902,0.3902,0.3902,0.3902,0.3902,0.3902,0.3902,0.3902,0.3902,0.3902,0.3902,0.3902,0.3902,0.3902,0.3902,0.3902,0.3902,0.3902,0.3902,0.3902,0.3902,0.3902,0.3902,0.3902,0.3902,0.3902,0.3902,0.3902,0.3962,0.4381,0.4979,0.5816,0.6413,0.6952,0.7495,0.7602,0.7618,0.8242,0.8698,0.9073,0.9686,1.0765,1.0892,1.0161,0.9479,0.9129,-0.6432,-0.5615,-0.5018,-0.4743,-0.4689,-0.4471,-0.4144,-0.3925,-0.387,-0.3761,-0.3543,-0.3489,-0.3489,-0.3489,-0.3489,-0.3489,-0.3489,-0.3489,-0.3489,-0.3489,-0.3489,-0.3489,-0.3489,-0.3489,-0.3271,-0.3162,-0.3271,-0.349,-0.3489,-0.3489,-0.3325,-0.2888,-0.2398,-0.1962,-0.1526,-0.0817,0.0,0.0,0.0,0.0,0.0,0.0,0.0,0.0,0.0,0.0,0.0,0.0,0.0,0.0,0.0,0.0,0.0,0.0,0.0,0.0,0.0,0.0178,0.0771,0.0239,0.036,0.0779,0.1429,0.1846,0.2213,0.2982,0.3754,0.3892,0.3902,0.3902,0.3902,0.3902,0.3902,0.3902,0.3902,0.3902,0.3902,0.3902,0.3902,0.3902,0.3902,0.3902,0.3902,0.3902,0.3902,0.3902,0.3902,0.3902,0.3902,0.3902,0.3902,0.3902,0.3902,0.3902,0.3902,0.3902,0.3902,0.3962,0.4321,0.4919,0.5457,0.5217,0.5577,0.6173,0.6173,0.607,0.6712,0.7547,0.7667,0.7969,0.8815,0.9376,0.8948,0.8734,0.863,-0.61,-0.5719,-0.5397,-0.5127,-0.4963,-0.4963,-0.4525,-0.4199,-0.4034,-0.3925,-0.3652,-0.3598,-0.3707,-0.3761,-0.3707,-0.3598,-0.3652,-0.3543,-0.3489,-0.3489,-0.3489,-0.3489,-0.3489,-0.3489,-0.3489,-0.3489,-0.3489,-0.3489,-0.3489,-0.3489,-0.3434,-0.3325,-0.2779,-0.2507,-0.2125,-0.158,-0.0926,-0.0654,0.0,0.0,0.0,0.0,0.0,0.0,0.0,0.0,0.0,0.0,0.0,0.0,0.0,0.0,0.0,0.0,0.0,0.0,0.0,0.0294,0.0937,0.0472,0.0654,0.1247,0.1588,0.1647,0.2067,0.2826,0.3475,0.3741,0.3881,0.389,0.39,0.3902,0.3902,0.3902,0.3902,0.3902,0.3902,0.3902,0.3902,0.3902,0.3902,0.3902,0.3902,0.3902,0.3902,0.3902,0.3902,0.3902,0.3902,0.3902,0.3902,0.3902,0.3902,0.3902,0.3902,0.3902,0.3902,0.3962,0.4141,0.4739,0.4619,0.4201,0.4141,0.4739,0.4859,0.4919,0.5519,0.6235,0.6652,0.6952,0.7248,0.7607,0.7636,0.766,0.76,-0.6377,-0.458,-0.5072,-0.4634,-0.387,-0.3816,-0.3761,-0.3652,-0.3598,-0.3816,-0.409,-0.4144,-0.4362,-0.4743,-0.4362,-0.4144,-0.4034,-0.3761,-0.3489,-0.3489,-0.3489,-0.3489,-0.3489,-0.3489,-0.3489,-0.3489,-0.3489,-0.3489,-0.3489,-0.3489,-0.3489,-0.338,-0.2834,-0.267,-0.2452,-0.1907,-0.1362,-0.0926,-0.0708,-0.0436,0.0,0.0,0.0,0.0,0.0,0.0,0.0,0.0,0.0,0.0,0.0,0.0,0.0,0.0,0.0,0.0,0.0,0.0,0.0,0.0,0.0,0.0231,0.0805,0.1325,0.1847,0.2539,0.319,0.3509,0.377,0.3784,0.3834,0.3886,0.389,0.3898,0.3901,0.3902,0.3902,0.3902,0.3896,0.3897,0.3896,0.3901,0.3902,0.3902,0.3902,0.3902,0.3902,0.3902,0.3902,0.3902,0.3902,0.3902,0.3902,0.3902,0.3902,0.3902,0.3902,0.3962,0.3962,0.4143,0.4143,0.3962,0.4022,0.4021,0.4021,0.4143,0.4561,0.5219,0.5756,0.6116,0.6353,0.6473,0.6533,0.6535,0.6542,-0.5996,-0.5177,-0.4852,-0.4416,-0.387,-0.3598,-0.3489,-0.3489,-0.3489,-0.3816,-0.4199,-0.4253,-0.4634,-0.5181,-0.458,-0.4253,-0.4144,-0.3761,-0.3489,-0.3489,-0.3489,-0.3489,-0.3489,-0.3489,-0.3489,-0.3489,-0.3489,-0.3489,-0.3489,-0.3489,-0.3489,-0.3434,-0.3216,-0.2998,-0.2997,-0.2452,-0.1907,-0.1362,-0.0981,-0.0545,0.0,0.0,0.0,0.0,0.0,0.0,0.0,0.0,0.0,0.0,0.0,0.0,0.0,0.0,0.0,0.0,0.0,0.0,0.0,0.0,0.0,0.0,0.0908,0.1365,0.1827,0.2667,0.3308,0.3575,0.371,0.3717,0.3803,0.375,0.377,0.3784,0.3795,0.3811,0.3829,0.3813,0.3795,0.3799,0.3819,0.3892,0.3902,0.3902,0.3901,0.3892,0.3892,0.3896,0.3897,0.3902,0.3902,0.3902,0.3902,0.3902,0.3902,0.3902,0.3902,0.3902,0.3902,0.3902,0.3902,0.3902,0.3902,0.3962,0.3962,0.3902,0.3962,0.4203,0.4741,0.5099,0.5339,0.5397,0.5517,0.5876,0.5874,-0.5885,-0.5935,-0.5014,-0.4524,-0.4199,-0.3707,-0.3543,-0.3652,-0.3543,-0.3979,-0.4525,-0.4525,-0.4961,-0.5615,-0.4963,-0.4471,-0.4471,-0.3816,-0.3489,-0.3489,-0.3489,-0.3489,-0.3489,-0.3489,-0.3489,-0.3489,-0.3489,-0.3489,-0.3489,-0.3489,-0.3489,-0.3489,-0.3434,-0.3489,-0.3434,-0.2943,-0.2452,-0.1744,-0.1253,-0.0708,0.0,0.0,0.0,0.0,0.0,0.0,0.0,0.0,0.0,0.0,0.0,0.0,0.0,0.0,0.0,0.0,0.0,0.0,0.0,0.0,0.0,0.0,0.0839,0.1621,0.1754,0.2684,0.3254,0.3632,0.3646,0.3714,0.3733,0.3669,0.3694,0.3725,0.3677,0.3692,0.3783,0.376,0.3679,0.3743,0.3771,0.3862,0.3858,0.385,0.3862,0.388,0.3882,0.3828,0.3894,0.3902,0.3902,0.3902,0.3902,0.3902,0.3902,0.3902,0.3902,0.3902,0.3902,0.3902,0.3902,0.3902,0.3902,0.3902,0.3902,0.3902,0.3902,0.4143,0.4381,0.4261,0.4381,0.4738,0.5095,0.5275,0.5395,-0.6919,-0.5989,-0.588,-0.5232,-0.4308,-0.3761,-0.387,-0.4088,-0.3761,-0.4359,-0.5393,-0.5288,-0.5615,-0.6756,-0.5454,-0.5127,-0.5018,-0.3925,-0.3598,-0.3489,-0.3489,-0.3489,-0.3489,-0.3489,-0.3489,-0.3489,-0.3489,-0.3489,-0.3489,-0.3489,-0.3489,-0.3489,-0.3489,-0.3489,-0.3434,-0.338,-0.2779,-0.1962,-0.1689,-0.1144,0.0,0.0,0.0,0.0,0.0,0.0,0.0,0.0,0.0,0.0,0.0,0.0,0.0,0.0,0.0,0.0,0.0,0.0,0.0,0.0,0.0,0.0,0.0549,0.1095,0.1703,0.2309,0.2923,0.3359,0.3475,0.3608,0.3637,0.3657,0.3662,0.3668,0.3672,0.3674,0.3738,0.3736,0.3674,0.3677,0.3678,0.3683,0.3741,0.3745,0.3763,0.3756,0.3764,0.3781,0.3867,0.3876,0.3882,0.3894,0.3902,0.3902,0.3901,0.3902,0.3902,0.3902,0.3902,0.3902,0.3902,0.3902,0.3902,0.3902,0.3902,0.3902,0.3962,0.4081,0.426,0.426,0.426,0.4498,0.4734,0.4796,0.5036,-0.7027,-0.659,-0.6209,-0.5774,-0.5232,-0.4743,-0.4634,-0.4689,-0.4253,-0.4578,-0.5343,-0.5345,-0.5508,-0.5889,-0.5508,-0.5072,-0.4634,-0.387,-0.3543,-0.3489,-0.3542,-0.3486,-0.3486,-0.3489,-0.3489,-0.3489,-0.3489,-0.3489,-0.3489,-0.3489,-0.3489,-0.3489,-0.3489,-0.3489,-0.3489,-0.3489,-0.3053,-0.2343,-0.218,-0.1635,-0.0545,-0.0436,-0.0327,0.0,0.0,0.0,0.0,0.0,0.0,0.0,0.0,0.0,0.0,0.0,0.0,0.0,0.0,0.0,0.0,0.0,0.0,0.0,0.0436,0.0872,0.1253,0.2016,0.2564,0.2974,0.3304,0.3484,0.3559,0.3563,0.3579,0.3546,0.3584,0.3564,0.3563,0.3596,0.3612,0.3622,0.3642,0.3665,0.3665,0.3666,0.3681,0.3695,0.3645,0.3735,0.3775,0.3784,0.3795,0.3886,0.3902,0.3897,0.3893,0.39,0.3901,0.3901,0.3901,0.3902,0.3902,0.3902,0.3902,0.3902,0.3902,0.3962,0.4141,0.432,0.4498,0.4558,0.432,0.4318,0.4258,0.426,0.4558,-0.6973,-0.6919,-0.6263,-0.6044,-0.5937,-0.5508,-0.529,-0.5343,-0.4798,-0.5018,-0.5563,-0.5563,-0.5615,-0.5669,-0.5563,-0.5234,-0.4742,-0.4088,-0.3707,-0.3705,-0.3694,-0.3623,-0.35,-0.3456,-0.3526,-0.3487,-0.3489,-0.3489,-0.3489,-0.3489,-0.3489,-0.3489,-0.3489,-0.3489,-0.3489,-0.3489,-0.3162,-0.2616,-0.2507,-0.2016,-0.1199,-0.1035,-0.0763,-0.0272,0.0,0.0,0.0,0.0,0.0,0.0,0.0,0.0,0.0,0.0,0.0,0.0,0.0,0.0,0.0,0.0,0.0,0.0,0.049,0.0763,0.0817,0.1853,0.2452,0.267,0.3107,0.3493,0.3491,0.3494,0.3511,0.3485,0.3524,0.3499,0.3503,0.3527,0.3498,0.3502,0.3533,0.3605,0.3608,0.3609,0.3619,0.3636,0.3646,0.3664,0.371,0.3673,0.3734,0.3839,0.3874,0.3877,0.3821,0.3829,0.3833,0.3829,0.3827,0.3882,0.3874,0.3884,0.3893,0.3957,0.401,0.4315,0.4496,0.4611,0.4856,0.5155,0.4916,0.4738,0.4439,0.414,0.4496,-0.6973,-0.6919,-0.6318,-0.61,-0.6046,-0.556,-0.5615,-0.5883,-0.5397,-0.5778,-0.6484,-0.6157,-0.6211,-0.6592,-0.6103,-0.5831,-0.5719,-0.4742,-0.4251,-0.4283,-0.4242,-0.3917,-0.3511,-0.3492,-0.3539,-0.353,-0.3487,-0.3489,-0.3489,-0.3489,-0.3489,-0.3489,-0.3489,-0.3489,-0.3489,-0.3489,-0.3216,-0.2725,-0.2616,-0.2289,-0.1744,-0.1689,-0.1417,-0.0817,-0.0763,-0.0545,-0.0163,0.0,0.0,0.0,0.0,0.0,0.0,0.0,0.0,0.0,0.0,0.0,0.0,0.0,0.0,0.0,0.0436,0.0763,0.0817,0.1635,0.2343,0.2507,0.2998,0.3434,0.3489,0.3489,0.3491,0.3495,0.3494,0.349,0.3489,0.3493,0.3505,0.3502,0.3497,0.3502,0.3516,0.3515,0.3536,0.351,0.3527,0.3554,0.3593,0.3614,0.3673,0.3702,0.3742,0.375,0.376,0.377,0.3845,0.3783,0.3787,0.3775,0.3762,0.3789,0.387,0.4053,0.4233,0.4602,0.4906,0.5074,0.5311,0.5268,0.5215,0.5335,0.5095,0.4736,0.4736,-0.7302,-0.6973,-0.6756,-0.6644,-0.659,-0.6429,-0.6484,-0.6535,-0.5994,-0.5992,-0.6318,-0.6155,-0.5994,-0.5942,-0.5992,-0.5828,-0.5506,-0.5127,-0.5043,-0.5313,-0.5006,-0.4423,-0.3844,-0.3859,-0.3747,-0.3538,-0.3526,-0.3489,-0.3489,-0.3489,-0.3489,-0.3489,-0.3489,-0.3543,-0.3489,-0.3489,-0.3434,-0.3216,-0.3107,-0.2888,-0.2398,-0.2234,-0.1962,-0.1471,-0.1362,-0.109,-0.0545,-0.0872,-0.109,-0.1035,-0.0708,-0.0327,0.0,0.0,0.0,0.0,0.0,0.0,0.0,0.0,0.0,0.0,0.0163,0.0,0.0436,0.0926,0.1635,0.2016,0.2561,0.3053,0.3434,0.3489,0.3489,0.3489,0.3489,0.3489,0.3489,0.3489,0.3489,0.3489,0.3489,0.3489,0.3489,0.3489,0.3501,0.3513,0.3522,0.3544,0.3535,0.3554,0.3638,0.3666,0.3683,0.3691,0.3699,0.3717,0.3793,0.3732,0.3735,0.3661,0.3649,0.3738,0.3816,0.3994,0.4286,0.4643,0.5553,0.5673,0.5626,0.5199,0.4979,0.4964,0.4885,0.4773,0.4759,-0.7465,-0.7027,-0.6973,-0.7082,-0.7193,-0.7082,-0.7082,-0.7136,-0.659,-0.6318,-0.6318,-0.6318,-0.6157,-0.5939,-0.6155,-0.6103,-0.578,-0.5828,-0.5818,-0.5874,-0.5537,-0.4945,-0.4397,-0.43,-0.4095,-0.3747,-0.3559,-0.3598,-0.3707,-0.3761,-0.387,-0.4034,-0.409,-0.4034,-0.409,-0.4034,-0.4034,-0.4034,-0.4034,-0.3707,-0.3107,-0.3107,-0.2725,-0.2125,-0.1962,-0.1798,-0.1362,-0.1744,-0.1907,-0.1689,-0.1308,-0.0817,0.0,-0.0054,0.0,0.0,0.0,0.0,0.0,0.0,0.0,0.0,0.0,0.0,0.0,0.0545,0.109,0.1689,0.2234,0.2779,0.3325,0.3489,0.3489,0.3489,0.3489,0.3489,0.3489,0.3489,0.3489,0.3489,0.3489,0.3489,0.3489,0.3489,0.349,0.3493,0.3493,0.3503,0.3484,0.3494,0.3571,0.3603,0.3628,0.3637,0.3665,0.369,0.367,0.3641,0.3599,0.3599,0.3595,0.3666,0.3678,0.3856,0.42,0.4843,0.5859,0.6289,0.6128,0.5815,0.5425,0.5022,0.4611,0.454,0.4636,-0.7465,-0.7027,-0.6973,-0.7248,-0.7629,-0.7193,-0.7302,-0.7629,-0.7191,-0.6919,-0.6973,-0.6919,-0.6864,-0.6919,-0.6864,-0.6913,-0.6792,-0.6779,-0.6455,-0.5968,-0.5853,-0.5392,-0.4694,-0.4756,-0.4579,-0.4095,-0.375,-0.3808,-0.4251,-0.4308,-0.458,-0.5072,-0.5072,-0.5018,-0.5127,-0.5072,-0.5127,-0.5072,-0.4963,-0.4743,-0.4362,-0.409,-0.3598,-0.2725,-0.2561,-0.2507,-0.2507,-0.2507,-0.2343,-0.1907,-0.1798,-0.1417,-0.0926,-0.0436,0.0,0.0,0.0,0.0,0.0,0.0,0.0,0.0,0.0,0.0,0.0,0.0381,0.0981,0.158,0.218,0.2779,0.3271,0.3489,0.3489,0.3489,0.3489,0.3489,0.3489,0.3489,0.3489,0.3489,0.3489,0.3489,0.3489,0.3489,0.3489,0.3489,0.3489,0.3494,0.3502,0.3505,0.3494,0.351,0.3546,0.3576,0.3562,0.3599,0.36,0.3559,0.3531,0.3544,0.3599,0.3593,0.3607,0.3726,0.4062,0.4743,0.574,0.6345,0.6306,0.6236,0.6156,0.5824,0.544,0.5166,0.5028,-0.7897,-0.7082,-0.6973,-0.7302,-0.7683,-0.7248,-0.7517,-0.8278,-0.7408,-0.7193,-0.7411,-0.7136,-0.6973,-0.6973,-0.6973,-0.6987,-0.6851,-0.6777,-0.6557,-0.6266,-0.6258,-0.5878,-0.5268,-0.523,-0.5046,-0.4637,-0.4533,-0.4698,-0.4896,-0.4909,-0.5072,-0.5234,-0.5236,-0.5236,-0.5236,-0.5236,-0.5236,-0.5127,-0.4798,-0.4798,-0.4852,-0.4144,-0.3707,-0.3652,-0.338,-0.3162,-0.3216,-0.3162,-0.3053,-0.2888,-0.2507,-0.218,-0.1907,-0.1471,-0.1199,-0.1199,-0.1199,-0.1144,-0.1199,-0.1199,-0.1144,-0.1144,-0.0763,-0.0545,-0.049,-0.0054,0.049,0.109,0.1635,0.2234,0.2779,0.3271,0.3489,0.3489,0.3489,0.3489,0.3489,0.3489,0.3489,0.3489,0.3489,0.3489,0.3489,0.3489,0.3489,0.3489,0.3489,0.3489,0.3489,0.3489,0.3489,0.3491,0.351,0.3519,0.3543,0.3535,0.3509,0.3536,0.355,0.3492,0.3543,0.3535,0.3536,0.3652,0.4042,0.471,0.5395,0.6158,0.633,0.6342,0.6153,0.5895,0.5862,0.5763,0.5533,-0.8166,-0.7248,-0.7082,-0.7302,-0.7683,-0.7248,-0.7517,-0.8278,-0.7405,-0.7191,-0.7411,-0.7136,-0.6973,-0.6973,-0.6973,-0.691,-0.6851,-0.6724,-0.6629,-0.648,-0.652,-0.6276,-0.5859,-0.5854,-0.5658,-0.5338,-0.5323,-0.54,-0.5455,-0.5463,-0.5585,-0.5773,-0.5834,-0.5854,-0.5883,-0.5887,-0.5889,-0.5833,-0.5504,-0.5288,-0.5452,-0.4634,-0.4171,-0.4236,-0.3768,-0.3511,-0.3512,-0.3511,-0.3359,-0.3161,-0.2997,-0.2717,-0.2326,-0.2064,-0.1962,-0.1744,-0.1744,-0.1744,-0.1744,-0.1744,-0.1744,-0.1689,-0.1144,-0.0763,-0.0708,-0.0327,0.0218,0.0763,0.1417,0.1853,0.2289,0.2779,0.3271,0.3434,0.3489,0.3489,0.3489,0.3489,0.3489,0.3489,0.3489,0.3489,0.3489,0.3489,0.3489,0.3489,0.3489,0.3489,0.3489,0.3489,0.3489,0.3489,0.3489,0.3489,0.3489,0.3526,0.3485,0.3518,0.3509,0.351,0.351,0.3506,0.3506,0.357,0.3947,0.4553,0.484,0.5585,0.6421,0.6318,0.5824,0.564,0.5623,0.5863,0.5818,-0.8332,-0.7683,-0.7248,-0.7302,-0.774,-0.7193,-0.7357,-0.7897,-0.7248,-0.7027,-0.7082,-0.6973,-0.6973,-0.6973,-0.6998,-0.6945,-0.6793,-0.6751,-0.6627,-0.654,-0.6543,-0.6556,-0.6564,-0.6567,-0.6401,-0.5961,-0.5909,-0.5841,-0.5801,-0.5806,-0.6163,-0.673,-0.6684,-0.6793,-0.6869,-0.6828,-0.6898,-0.6714,-0.6609,-0.6511,-0.5915,-0.5431,-0.4814,-0.4279,-0.379,-0.345,-0.345,-0.345,-0.3154,-0.2498,-0.2985,-0.2859,-0.197,-0.2209,-0.2225,-0.1792,-0.1739,-0.1796,-0.1907,-0.1907,-0.1907,-0.1798,-0.1308,-0.0872,-0.0872,-0.0381,0.0163,0.0654,0.1253,0.1635,0.1744,0.2289,0.2834,0.3325,0.3434,0.3489,0.3489,0.3489,0.3489,0.3489,0.3489,0.3489,0.3489,0.3489,0.3489,0.3489,0.3489,0.3489,0.3489,0.3489,0.3489,0.3489,0.3489,0.3489,0.3489,0.3502,0.3499,0.3493,0.3495,0.3491,0.3489,0.3489,0.349,0.3599,0.387,0.4199,0.4471,0.5022,0.5853,0.6244,0.5767,0.5548,0.5628,0.5907,0.5862,-0.7952,-0.7683,-0.7248,-0.7302,-0.774,-0.7248,-0.7571,-0.8275,-0.7408,-0.7193,-0.752,-0.7191,-0.6973,-0.6949,-0.6798,-0.6711,-0.6603,-0.6448,-0.6354,-0.633,-0.6327,-0.6327,-0.6327,-0.6325,-0.6244,-0.6177,-0.623,-0.6098,-0.575,-0.5762,-0.6126,-0.657,-0.6679,-0.6643,-0.6669,-0.6727,-0.6569,-0.6202,-0.578,-0.5515,-0.5251,-0.4833,-0.4497,-0.4252,-0.3694,-0.318,-0.2815,-0.2815,-0.2509,-0.1997,-0.2156,-0.2098,-0.1775,-0.1887,-0.1893,-0.1789,-0.2073,-0.2528,-0.2996,-0.2998,-0.2998,-0.2943,-0.2071,-0.1471,-0.1308,-0.0545,0.0,0.0218,0.0708,0.1035,0.1144,0.1962,0.2561,0.2779,0.3216,0.3489,0.3489,0.3489,0.3489,0.3489,0.3489,0.3489,0.3489,0.3489,0.3489,0.3489,0.3489,0.3489,0.3489,0.3489,0.3489,0.3489,0.3489,0.3489,0.3489,0.3489,0.3489,0.3489,0.3489,0.3489,0.3489,0.3489,0.3489,0.3489,0.3598,0.3816,0.4199,0.4416,0.4967,0.5831,0.6053,0.5787,0.556,0.5831,0.5776,-0.7984,-0.799,-0.7765,-0.7705,-0.7661,-0.7335,-0.7465,-0.7792,-0.7102,-0.7022,-0.727,-0.7014,-0.6835,-0.6825,-0.6695,-0.6605,-0.6501,-0.6367,-0.6252,-0.6301,-0.6301,-0.633,-0.637,-0.6375,-0.6375,-0.638,-0.6393,-0.6303,-0.6003,-0.5968,-0.6159,-0.6506,-0.6563,-0.6535,-0.658,-0.6425,-0.6269,-0.6114,-0.5387,-0.4576,-0.371,-0.3369,-0.342,-0.3705,-0.3472,-0.3126,-0.2868,-0.2612,-0.2322,-0.1778,-0.1728,-0.1624,-0.1363,-0.1583,-0.1737,-0.1766,-0.2054,-0.2455,-0.3019,-0.3129,-0.3085,-0.3106,-0.2452,-0.1853,-0.1362,-0.0763,-0.0327,-0.0272,0.0163,0.0599,0.0817,0.1362,0.2016,0.2452,0.2834,0.3216,0.3434,0.3489,0.3489,0.3489,0.3489,0.3489,0.3489,0.3489,0.338,0.3162,0.3107,0.2943,0.2779,0.2998,0.3053,0.3107,0.3107,0.3162,0.3434,0.3489,0.3489,0.3489,0.3489,0.3489,0.3489,0.3489,0.3489,0.3489,0.3543,0.3652,0.3925,0.4144,0.4308,0.4633,0.5121,0.5667,0.5345,0.5667,0.5502,-0.8322,-0.8395,-0.8446,-0.8225,-0.7658,-0.7599,-0.7277,-0.6822,-0.6639,-0.6687,-0.6851,-0.6663,-0.6626,-0.6577,-0.6556,-0.6432,-0.6343,-0.6267,-0.6201,-0.6306,-0.6322,-0.6435,-0.6517,-0.6538,-0.6548,-0.6417,-0.6329,-0.6227,-0.6074,-0.6041,-0.614,-0.6327,-0.629,-0.6238,-0.6222,-0.5717,-0.5666,-0.6033,-0.5156,-0.3704,-0.1724,-0.1796,-0.2247,-0.3095,-0.3346,-0.3373,-0.3322,-0.287,-0.235,-0.184,-0.1737,-0.1425,-0.0953,-0.1288,-0.1549,-0.156,-0.1632,-0.186,-0.2285,-0.2288,-0.2308,-0.2339,-0.2234,-0.1853,-0.109,-0.0925,-0.0816,-0.0817,-0.0436,0.0054,0.0545,0.0654,0.1144,0.2125,0.2398,0.267,0.3107,0.3325,0.3325,0.338,0.3216,0.3325,0.3216,0.3216,0.2998,0.2507,0.2452,0.2343,0.2071,0.2234,0.2452,0.2343,0.2452,0.267,0.3053,0.3325,0.3162,0.3271,0.3325,0.3216,0.3162,0.3162,0.3325,0.3162,0.3325,0.338,0.3598,0.3816,0.4034,0.4197,0.458,0.5181,0.529,0.56,0.5196,-0.8173,-0.8176,-0.784,-0.7899,-0.8126,-0.7755,-0.7476,-0.7335,-0.6822,-0.6797,-0.704,-0.6659,-0.6547,-0.6559,-0.6084,-0.5848,-0.5755,-0.5176,-0.5195,-0.5595,-0.5648,-0.5901,-0.6249,-0.6309,-0.6111,-0.5707,-0.5688,-0.5479,-0.5129,-0.5063,-0.5259,-0.5575,-0.523,-0.4846,-0.4519,-0.3573,-0.2731,-0.2137,-0.1888,-0.1881,-0.2161,-0.2563,-0.2862,-0.3192,-0.3892,-0.4145,-0.3749,-0.3651,-0.3171,-0.2248,-0.18,-0.1309,-0.0817,-0.0513,-0.0412,-0.0415,-0.0737,-0.1064,-0.1171,-0.0807,-0.076,-0.109,-0.0817,-0.1035,-0.1905,-0.1777,-0.1504,-0.1522,-0.1361,-0.1035,-0.049,-0.0054,0.0436,0.109,0.1635,0.2016,0.2125,0.2125,0.2125,0.2125,0.2125,0.218,0.218,0.218,0.2123,0.1959,0.1907,0.1907,0.1798,0.1853,0.1689,0.1417,0.158,0.2016,0.2125,0.2234,0.218,0.2125,0.2179,0.2231,0.2231,0.2178,0.2288,0.2667,0.2723,0.2886,0.3378,0.3595,0.3701,0.3973,0.4183,0.4626,0.4999,0.5228,0.469,-0.8591,-0.8799,-0.8098,-0.8325,-0.9023,-0.8173,-0.7799,-0.7619,-0.6983,-0.6663,-0.6658,-0.6724,-0.6612,-0.6406,-0.6288,-0.6132,-0.5882,-0.5955,-0.6027,-0.6181,-0.6187,-0.6315,-0.6573,-0.6331,-0.5936,-0.5493,-0.5444,-0.515,-0.4756,-0.4707,-0.4658,-0.4658,-0.397,-0.3234,-0.245,-0.1912,-0.1569,-0.1471,-0.0096,0.0142,-0.0897,-0.1841,-0.2549,-0.3022,-0.4274,-0.4791,-0.4549,-0.4342,-0.3987,-0.3427,-0.2487,-0.1804,-0.1479,-0.0971,-0.0614,-0.0359,-0.062,-0.0673,-0.0411,-0.0417,-0.0265,-0.0054,0.0,-0.0591,-0.208,-0.1902,-0.1741,-0.1704,-0.1717,-0.1509,-0.0863,-0.0543,-0.0054,0.0708,0.109,0.1417,0.1689,0.1744,0.1744,0.1744,0.1744,0.1739,0.1725,0.1724,0.1721,0.1708,0.145,0.119,0.098,0.0921,0.0862,0.0863,0.1085,0.1361,0.1689,0.1744,0.1744,0.1744,0.1733,0.1725,0.1723,0.1723,0.1885,0.2101,0.2154,0.2323,0.256,0.2696,0.2947,0.3327,0.3484,0.389,0.4472,0.455,0.3916,-0.9232,-0.9589,-0.8726,-0.8889,-0.9689,-0.8663,-0.7968,-0.7621,-0.7376,-0.6956,-0.6408,-0.6871,-0.6821,-0.6472,-0.6755,-0.6646,-0.6302,-0.6963,-0.7115,-0.6795,-0.6743,-0.6755,-0.6772,-0.6331,-0.5838,-0.5346,-0.5248,-0.4952,-0.4462,-0.4215,-0.3921,-0.3332,-0.2394,-0.1415,-0.0537,-0.0341,-0.073,-0.1699,0.0834,0.1715,0.0677,-0.0677,-0.1892,-0.2871,-0.4327,-0.5168,-0.5298,-0.4958,-0.4748,-0.4761,-0.3377,-0.2552,-0.2537,-0.2086,-0.1578,-0.1111,-0.111,-0.0853,-0.0496,-0.0552,-0.0257,0.0527,0.037,-0.0316,-0.1402,-0.1552,-0.1654,-0.1867,-0.1891,-0.1589,-0.1114,-0.1076,-0.0704,0.0216,0.0488,0.076,0.1189,0.1405,0.1404,0.1404,0.1516,0.1451,0.138,0.143,0.137,0.1357,0.1,0.0533,0.0,0.0,0.0,0.0478,0.059,0.0757,0.0917,0.13,0.1248,0.1358,0.1344,0.1338,0.1339,0.1339,0.1392,0.1601,0.16,0.1659,0.1783,0.1694,0.1994,0.2374,0.2623,0.291,0.3743,0.3457,0.2913,-0.9694,-0.9351,-0.8799,-0.8711,-0.8951,-0.8488,-0.781,-0.7077,0.0,0.0,0.0,-0.7774,-0.7594,-0.7442,-0.6706,-0.6328,-0.6176,-0.5426,-0.5289,-0.57,-0.5703,-0.5701,-0.5689,-0.5591,-0.5346,-0.4805,-0.437,-0.3877,-0.3381,-0.206,-0.1373,-0.1272,-0.0434,0.0335,0.1004,0.184,0.1826,0.0936,0.139,0.1198,0.0184,-0.0922,-0.186,-0.2588,-0.392,-0.4986,-0.568,-0.537,-0.5208,-0.5283,-0.4317,-0.3683,-0.3464,-0.319,-0.2846,-0.256,-0.257,-0.2532,-0.2562,-0.0926,0.0103,0.026,0.052,0.0363,-0.0259,-0.0715,-0.1377,-0.2327,-0.2387,-0.2341,-0.2241,-0.222,-0.1911,-0.1205,-0.0795,-0.0478,-0.0315,0.0052,0.0,0.0314,0.0,0.0,0.0,0.0,0.0312,0.0,0.0,0.0052,0.0,0.0,-0.0104,-0.0313,-0.0366,-0.0577,-0.0787,-0.0529,-0.0374,-0.016,0.0108,0.0271,0.0271,0.0326,0.0488,0.0863,0.0912,0.1172,0.1598,0.1627,0.1818,0.1874,0.2231,0.2587,0.2737,0.2024,0.129,-1.0328,0.0,-0.9552,-0.9503,0.0,-0.9411,-0.8605,-0.7621,-0.9071,-0.926,-0.8439,-0.8264,-0.7989,-0.7738,-0.7233,-0.6868,-0.6626,-0.6277,-0.6184,-0.624,-0.6194,-0.6078,-0.5838,-0.5591,-0.505,-0.427,-0.3486,-0.27,-0.1912,-0.0924,-0.0048,0.0676,0.1138,0.1589,0.2082,0.2871,0.2846,0.1888,0.1603,0.1196,0.0664,-0.0531,-0.1183,-0.1332,-0.2873,0.0,0.0,0.0,0.0,0.0,0.0,0.0,0.0,0.0,0.0,-0.4023,-0.3823,-0.3447,-0.2905,-0.1923,-0.0906,-0.005,0.0149,-0.0049,-0.0811,-0.1067,-0.1423,-0.1962,-0.2314,-0.2505,-0.2406,-0.2234,-0.1884,-0.1246,-0.0679,-0.0367,-0.0364,-0.0155,0.0,0.0,0.0,0.0,0.0,0.0,0.0,0.0,0.0,0.0,0.0,0.0,0.0,-0.0357,-0.0566,-0.0881,-0.109,-0.0889,-0.0683,-0.042,-0.0157,0.0,0.0,0.0,0.0052,0.0315,0.0365,0.0468,0.0784,0.0873,0.0911,0.1224,0.1472,0.1563,0.1258,0.0795,0.0393,-1.0956,-1.0854,-1.0425,-1.0403,-1.0557,-1.0429,-0.9769,-0.8749,-0.9408,-0.9294,-0.8763,-0.8884,-0.8629,-0.8188,-0.8118,-0.7793,-0.731,-0.7647,-0.7549,-0.7115,-0.7164,-0.6821,-0.623,-0.5789,-0.5005,-0.3879,-0.2897,-0.1862,-0.0586,0.0,0.1,0.2419,0.2513,0.2697,0.3018,0.0,0.0,0.0,0.1755,0.1489,0.1319,0.0212,-0.0212,0.0042,-0.172,0.0,-0.291,-0.3454,-0.4018,-0.4565,-0.4212,0.0,0.0,0.0,0.0,0.0,0.0,0.0,0.0,0.0,0.0,0.0,-0.1116,-0.1277,-0.1666,-0.1643,-0.1536,-0.1464,-0.2115,-0.2585,-0.2585,-0.2332,-0.1951,-0.1386,-0.0772,-0.0309,-0.0257,-0.0103,0.0,0.0,0.0,0.0,0.0,0.0,0.0,0.0,0.0,0.0,0.0,0.0,0.0,0.0,-0.0457,-0.082,-0.1027,-0.108,-0.1032,-0.0567,-0.0408,0.0,0.0,0.0,0.0,-0.0305,-0.0202,-0.0152,-0.0154,-0.005,0.0198,0.0551,0.0645,0.0491,0.0,0.0,0.0,-1.1302,-1.0854,-1.0806,-1.0227,-0.9488,-1.0974,-1.1268,-1.0735,-1.0802,-1.0542,-1.0046,-1.0322,-1.0131,-0.9612,-0.933,-0.8865,-0.8334,-0.794,-0.7744,-0.7695,-0.7695,-0.7157,-0.623,-0.6181,-0.5346,-0.3873,-0.3287,-0.1997,-0.0096,0.0908,0.2082,0.3442,0.3832,0.4014,0.4046,0.3232,0.278,0.2672,0.224,0.1824,0.1346,0.1172,0.0853,0.033,-0.0598,-0.1372,-0.2073,-0.2907,-0.372,-0.4453,-0.4781,-0.4946,-0.5175,-0.6172,-0.6287,0.0,-0.6247,0.0,0.0,0.0,0.0,0.0,0.0,0.0,0.0,-0.1712,-0.1488,-0.0943,-0.2083,-0.3047,-0.347,-0.3586,-0.3561,-0.3465,-0.2308,-0.1509,-0.1338,-0.0544,0.0,0.0,0.0,0.0,0.0,0.0,0.0,0.0,0.0,0.0,0.0,0.0,0.0,0.0,-0.0444,-0.1142,-0.1838,-0.2058,-0.2026,-0.1928,-0.1582,-0.1343,-0.1288,-0.134,-0.1342,-0.1288,-0.0916,-0.0707,-0.0658,-0.0299,0.0,0.0099,0.0098,0.0098,0.0,0.0,0.0,-1.1619,-1.1425,-1.1425,-1.0662,-0.9591,-1.0895,-1.1136,-1.0686,-1.1238,-1.1238,-1.0742,-1.0838,-1.0638,-1.0125,-0.9637,-0.9297,-0.9064,-0.8548,-0.8165,-0.7878,-0.7885,-0.7405,-0.657,-0.6521,-0.6037,-0.5019,-0.3958,-0.2485,-0.075,0.0186,0.1748,0.3647,0.3304,0.2929,0.2652,0.2696,0.2671,0.2616,0.2221,0.1894,0.1685,0.1474,0.1335,0.1229,0.0247,-0.0494,-0.0859,-0.1876,-0.2855,-0.3675,-0.4128,-0.4757,-0.5429,-0.5374,-0.5481,0.0,0.0,0.0,0.0,0.0,0.0,0.0,0.0,0.0,0.0,0.0,-0.1471,-0.1037,-0.1892,-0.28,-0.3444,-0.3523,-0.3512,-0.3231,-0.2335,-0.1594,-0.1188,-0.0143,0.0525,0.0434,0.0683,0.0736,0.0491,0.0147,0.0,0.0,-0.0486,-0.0822,-0.087,-0.0878,-0.0884,-0.0884,-0.1326,-0.1816,-0.2209,-0.2324,-0.2237,-0.1989,-0.1952,-0.1862,-0.161,-0.1761,-0.1862,-0.1609,-0.135,-0.1193,-0.1193,-0.0789,-0.0442,-0.0442,-0.0442,-0.0344,0.0,0.0,-0.0196,-1.1883,-1.1667,-1.1619,-1.0837,-0.9728,-1.0344,-1.0373,-0.9979,-1.0927,-1.1222,-1.1047,-1.0947,-1.0818,-1.0543,-0.9858,-0.953,-0.939,-0.9077,-0.8802,-0.8555,-0.8509,-0.8163,-0.7432,-0.7432,-0.7052,-0.6246,-0.5038,-0.3588,-0.202,-0.1306,0.0222,0.2346,0.1388,0.0927,0.1057,0.1897,0.2358,0.2539,0.2128,0.1965,0.1924,0.1474,0.131,0.1513,0.0322,-0.0361,-0.0567,-0.1795,-0.2868,-0.364,-0.3931,-0.4424,-0.5212,-0.4192,0.0,0.0,0.0,0.0,0.0,0.0,0.0,0.0,0.0,-0.3079,-0.3187,0.0,-0.1708,0.0,-0.2153,-0.2807,-0.3278,-0.3539,0.0,0.0,-0.2534,-0.1884,-0.1085,-0.0137,0.0555,0.0751,0.1149,0.1211,0.0823,0.0291,0.0097,0.0436,-0.0574,-0.1327,-0.1185,-0.1344,-0.1504,-0.1558,-0.1803,-0.2198,-0.2305,-0.2307,-0.2308,-0.216,-0.2456,-0.2602,-0.2355,-0.265,-0.2748,-0.2405,-0.2209,-0.211,-0.216,-0.1473,-0.108,-0.1129,-0.0835,-0.049,-0.0098,0.0,0.0,-1.1793,-1.1082,-1.088,-1.0235,-0.94,-0.94,-0.918,-0.8747,-0.942,-1.0184,-1.0863,-1.0642,-1.0828,-1.1311,-1.0192,0.0,-0.9151,-0.9369,-0.9683,-1.0125,-1.0125,-0.9858,-0.9313,-0.9313,-0.8524,-0.7088,-0.6729,-0.5628,-0.391,-0.3658,-0.2679,-0.106,-0.2116,-0.1743,0.004,0.0754,0.1566,0.2495,0.2127,0.1965,0.1924,0.1187,0.0654,0.0367,-0.0612,-0.1415,-0.2178,-0.3754,-0.4861,-0.5408,-0.4895,-0.4334,-0.3699,0.0,0.0,0.0,0.0,0.0,0.0,0.0,0.0,0.0,0.0,0.0,0.0,0.0,0.0,-0.2292,-0.3377,0.0,-0.3352,-0.4275,0.0,0.0,0.0,-0.2924,-0.1785,-0.1277,-0.0541,0.0633,0.0,0.0,0.0791,0.0326,0.0512,0.1769,0.0325,-0.065,-0.0186,-0.0884,-0.1406,-0.1622,-0.1626,-0.1829,-0.234,-0.2493,-0.2736,-0.3381,-0.3732,-0.3879,-0.4217,-0.4413,-0.4462,-0.4362,-0.4019,-0.3677,-0.3726,-0.2547,-0.1669,-0.2155,-0.1176,-0.0146,-0.0048,0.0287,0.0475,-1.1373,-1.0669,-1.0133,-0.959,-0.9096,-0.9012,-0.8767,-0.8435,-0.8636,-0.9128,-0.9846,-0.9712,-0.9867,-1.0261,-0.9969,0.0,0.0,0.0,-0.9646,-1.0436,-1.017,-1.0293,-1.0647,-1.0662,-1.0391,-0.975,-0.9352,-0.8411,-0.6997,-0.6416,-0.55,-0.431,0.0,0.0,-0.0248,0.0815,0.17,0.2335,0.178,0.1374,0.1139,0.0118,-0.094,-0.2115,-0.298,-0.3786,-0.4556,-0.5522,-0.5893,-0.5541,-0.5284,-0.432,0.0,0.0,0.0,0.0,0.0,0.0,0.0,0.0,0.0,0.0,0.0,-0.1333,-0.1699,0.0,0.0,0.0,-0.1299,-0.2216,-0.3554,-0.4436,0.0,0.0,0.0,0.0,0.0,0.0,0.0,0.0,0.107,0.1683,0.1638,0.1559,0.1615,0.1853,0.0355,-0.0861,-0.1029,0.0,-0.2789,-0.2857,-0.3281,-0.3523,-0.3221,-0.3756,-0.3992,-0.3414,-0.3603,-0.4168,-0.4952,-0.5395,-0.5493,-0.5199,-0.4952,-0.4707,-0.4413,-0.4281,-0.4077,-0.3554,-0.3222,-0.2506,-0.108,-0.0703,-0.0466,-1.1214,0.0,0.0,0.0,0.0,-0.8632,-0.8259,-0.7721,-0.7791,-0.8197,-0.888,-0.8743,0.0,0.0,0.0,0.0,0.0,0.0,-0.9824,-1.0731,-1.0868,-1.1288,-1.1944,-1.2003,-1.2013,-1.1964,-1.1414,-1.0566,-0.9551,-0.8727,-0.775,-0.6513,0.0,0.0,0.0,0.0,0.1433,0.2097,0.1415,0.0725,0.0076,-0.1105,-0.2475,-0.3963,-0.503,-0.6034,-0.6923,-0.683,-0.646,-0.5798,-0.4908,0.0,0.0,0.0,0.0,0.0,0.0,0.0,0.0,0.0,0.0,0.0,0.0,0.0,0.0,0.0,0.0,0.0,0.0,0.0,-0.3048,-0.3753,-0.3675,0.0,0.0,0.0,0.0,0.0,0.0,0.0,0.0,0.0,0.1806,0.2314,0.2601,0.0,0.0,-0.0566,-0.103,-0.2274,-0.3123,-0.3113,-0.3775,0.0,-0.3364,-0.4069,-0.4312,-0.3131,-0.3433,-0.4189,-0.527,-0.6059,-0.6409,-0.5987,-0.5915,-0.5935,-0.5679,-0.5822,-0.5566,-0.468,-0.4588,-0.4079,-0.2326,-0.1594,-0.1222,0.0,0.0,0.0,0.0,0.0,0.0,0.0,0.0,-0.673,-0.7341,0.0,-0.7799,0.0,0.0,0.0,0.0,0.0,-0.9757,0.0,0.0,-1.2585,-1.3209,-1.3171,-1.3251,-1.3331,-1.3276,-1.2513,-1.1759,-1.0963,-1.0402,0.0,0.0,0.0,0.0,0.0,0.0,0.0484,0.1698,0.093,0.0,-0.1069,-0.24,-0.3656,-0.4838,-0.6433,-0.7893,-0.9082,-0.7511,-0.6587,-0.6535,-0.3716,0.0,0.0,0.0,0.0,0.0,0.0,0.0,0.0,0.0,0.0,0.0,0.0,0.0,0.0,0.0,0.0,0.0,0.0,0.0,0.0,-0.1966,0.0,0.0,0.0,0.0,0.0,0.0,0.0,0.0,0.0,0.0,0.1039,0.2227,0.3269,0.3746,0.0,0.0,0.0,0.0,-0.1901,-0.1731,-0.221,-0.2588,-0.2257,-0.2706,-0.3053,-0.2927,0.0,0.0,-0.538,-0.6595,-0.7244,-0.7017,-0.7117,-0.7422,-0.7728,-0.6894,-0.596,-0.506,-0.4468,-0.3834,-0.3248,-0.2261,-0.1298,0.0,0.0,0.0,0.0,0.0,0.0,0.0,0.0,0.0,-0.7024,0.0,-0.7012,0.0,0.0,0.0,0.0,0.0,0.0,0.0,0.0,-1.1748,-1.2717,-1.3475,-1.3342,-1.3384,0.0,-1.2834,-1.131,0.0,0.0,0.0,0.0,0.0,0.0,0.0,0.0,0.026,0.1119,-0.075,-0.1972,-0.2381,-0.4979,-0.6572,-0.6905,-0.8517,-0.9346,-0.9203,-0.819,-0.6917,0.0,0.0,0.0,0.0,0.0,0.0,0.0,0.0,0.0,0.0,0.0,0.0,0.0,0.0,0.0,0.0,0.0,0.0,0.0,0.0,0.0,0.0,0.0,-0.0819,0.0,0.0,0.0,0.0,0.0,0.0,0.0,0.0,0.0,0.185,0.2425,0.2889,0.3022,0.1669,0.0447,-0.024,0.0,0.0,0.0,0.0,0.0,0.0,0.0,-0.5437,-0.4584,-0.5549,-0.6197,-0.5284,-0.6452,-0.7541,-0.7583,0.0,0.0,-0.7382,-0.708,-0.6721,-0.5792,-0.5907,-0.5691,-0.4087,-0.292,-0.1756,0.0,0.0,0.0,0.0,0.0,0.0,0.0,0.0,0.0,-0.6888,-0.6753,0.0,0.0,0.0,0.0,0.0,0.0,0.0,0.0,0.0,0.0,0.0,-1.3469,-1.3345,0.0,0.0,0.0,0.0,0.0,0.0,0.0,0.0,0.0,0.0,0.0,0.0,-0.0126,0.0347,-0.1606,-0.2964,-0.3662,-0.6584,-0.8461,-0.9144,-1.1084,-1.1364,-0.9797,0.0,0.0,0.0,0.0,0.0,0.0,0.0,0.0,0.0,0.0,0.0,0.0,0.0,0.0,0.0,0.0,0.0,0.0,0.0,0.0,0.0,0.0,0.0,0.0,0.0,0.1024,0.0,0.0,0.0,0.0,0.0,0.0,0.0,0.0,0.0,0.0,0.0,0.2304,0.1706,0.1023,0.0233,-0.0725,-0.2287,-0.3384,0.0,0.0,0.0,0.0,0.0,0.0,0.0,0.0,0.0,0.0,0.0,0.0,0.0,0.0,-0.808,-0.6934,-0.6834,-0.6613,-0.57,0.0,0.0,0.0,0.0,0.0,0.0,0.0,0.0,0.0,0.0,0.0,0.0,0.0,0.0,0.0,-0.6997,0.0,0.0,-0.7728,0.0,0.0,0.0,0.0,0.0,0.0,0.0,0.0,0.0,0.0,0.0,0.0,0.0,0.0,0.0,0.0,0.0,0.0,0.0,0.0,0.0,0.0,-0.0721,-0.0628,-0.1463,-0.2938,-0.5058,-0.7148,-0.9347,-1.1484,-1.4002,-1.3934,-1.0993,0.0,0.0,0.0,0.0,0.0,0.0,0.0,0.0,0.0,0.0,0.0,0.0,0.0,0.0,0.0,0.0,0.0,0.0,0.0,0.0,0.0,0.0,0.0,0.0,0.0,0.0,0.3403,0.2569,0.1418,0.0,0.0,0.0,0.0,0.0,0.0,0.0,0.0,0.0,0.0,0.0,-0.0177,-0.0958,-0.2091,-0.2829,-0.2606,-0.3673,-0.4571,-0.4651,-0.5464,-0.6229,0.0,0.0,0.0,0.0,0.0,0.0,0.0,0.0,0.0,0.0,0.0,0.0,0.0,0.0,0.0,0.0,0.0,0.0,0.0,0.0,0.0,0.0,0.0,0.0,0.0,0.0,0.0,0.0,0.0,0.0,0.0,0.0,0.0,0.0,0.0,0.0,0.0,0.0,0.0,0.0,0.0,0.0,0.0,0.0,0.0,0.0,0.0,0.0,0.0,0.0,0.0,0.0,0.0,0.0,-0.1217,-0.1309,-0.3099,-0.4989,-0.6801,-0.9383,-1.1748,-1.3691,-1.5079,-1.4678,0.0,0.0,0.0,0.0,0.0,0.0,0.0,0.0,0.0,0.0,0.0,0.0,0.0,0.0,0.0,0.0,0.0,0.0,0.0,0.0,0.0,0.0,0.0,0.0,0.0,0.0,0.0,0.0,0.2968,0.2609,0.1793,0.0,0.0,0.0,0.0,0.0,0.0,0.0,0.0,0.0,0.0,-0.2403,-0.3182,-0.4181,-0.5039,-0.5275,-0.5637,-0.6221,-0.733,-0.781,-0.837,-0.933,0.0,0.0,0.0,0.0,0.0,0.0,0.0,0.0,0.0,0.0,0.0,0.0,0.0,0.0,0.0,0.0,0.0,0.0,0.0,0.0,0.0,0.0,0.0,0.0,0.0,0.0,0.0,0.0,0.0,0.0,0.0,0.0,0.0,0.0,0.0,0.0,0.0,0.0,0.0,0.0,0.0,0.0,0.0,0.0,0.0,0.0,0.0,0.0,0.0,0.0,0.0,0.0,0.0,-0.173,-0.2007,-0.3796,-0.5774,-0.7871,-1.0733,-1.3352,-1.5753,-1.7018,-1.6157,0.0,0.0,0.0,0.0,0.0,0.0,0.0,0.0,0.0,0.0,0.0,0.0,0.0,0.0,0.0,0.0,0.0,0.0,0.0,0.0,0.0,0.0,0.0,0.0,0.0,0.0,0.0,0.0,0.3411,0.3053,0.2311,0.0,0.0,0.0,0.0,0.0,0.0,0.0,0.0,0.0,0.0,-0.3355,-0.419,-0.5126,0.0,0.0,-0.7115,-0.7667,-0.9394,-0.9978,-1.0529,-1.1223,-1.1151,0.0,0.0,0.0,0.0,0.0,0.0,0.0,0.0,0.0,0.0,0.0,0.0,0.0,0.0,0.0,0.0,0.0,0.0,0.0,0.0,0.0,0.0,0.0,0.0,0.0,0.0,0.0,0.0,0.0,0.0,0.0,0.0,0.0,0.0,0.0,0.0,0.0,0.0,0.0,0.0,0.0,0.0,0.0,0.0,0.0,0.0,0.0,0.0,0.0,0.0,0.0,0.0,0.0,-0.2795,-0.3851,-0.5744,-0.8446,-1.1462,-1.4528,-1.7616,-1.9523,-1.8108,0.0,0.0,0.0,0.0,0.0,0.0,0.0,0.0,0.0,0.0,0.0,0.0,0.0,0.0,0.0,0.0,0.0,0.0,0.0,0.0,0.0,0.0,0.0,0.0,0.0,0.0,0.0,0.0,0.0,0.0,0.0,0.0,0.0,0.0,0.0,0.0,0.0,0.0,0.0,0.0,0.0,-0.3436,-0.4502,-0.5278,-0.6289,0.0,0.0,-0.8748,-1.0516,-1.1583,-1.2251,-1.2186,0.0,0.0,0.0,0.0,0.0,0.0,0.0,0.0,0.0,0.0,0.0,0.0,0.0,0.0,0.0,0.0,0.0,0.0,0.0,0.0,0.0,0.0,0.0,0.0,0.0,0.0,0.0,0.0,0.0,0.0,0.0,0.0,0.0,0.0,0.0,0.0,0.0,0.0,0.0,0.0,0.0,0.0,0.0,0.0,0.0,0.0,0.0,0.0,0.0,0.0,0.0,0.0,0.0,0.0,-0.3188,-0.4845,-0.7064,-0.9806,-1.3313,-1.6628,-1.9578,-2.1107,0.0,0.0,0.0,0.0,0.0,0.0,0.0,0.0,0.0,0.0,0.0,0.0,0.0,0.0,0.0,0.0,0.0,0.0,0.0,0.0,0.0,0.0,0.0,0.0,0.0,0.0,0.0,0.4027,0.0,0.0,0.0,0.0,0.0,0.0,0.0,0.0,0.0,0.0,0.0,0.0,0.0,0.0,-0.5399,-0.7754,-0.7413,-0.7315,0.0,0.0,-0.8066,-0.8155,-0.9415,-1.0263,0.0,0.0,0.0,0.0,0.0,0.0,0.0,0.0,0.0,0.0,0.0,0.0,0.0,0.0,0.0,0.0,0.0,0.0,0.0,0.0,0.0,0.0,0.0,0.0,0.0,0.0,0.0,0.0,0.0,0.0,0.0,0.0,0.0,0.0,0.0,0.0,0.0,0.0,0.0,0.0,0.0,0.0,0.0,0.0,0.0,0.0,0.0,0.0,0.0,0.0,0.0,0.0,0.0,0.0,-0.282,-0.3964,-0.5685,-0.7922,-1.0805,-1.46,-1.7935,-2.0744,-2.2004,-2.0286,0.0,0.0,0.0,0.0,0.0,0.0,0.0,0.0,0.0,0.0,0.0,0.0,0.0,0.0,0.0,0.0,0.0,0.0,0.0,0.0,0.0,0.0,0.0,0.0,0.0,0.0,0.0,0.0,0.0,0.0,0.0,0.0,0.0,0.0,0.0,0.0,0.0,0.0,0.0,0.0,0.0,0.0,-0.7853,-0.7701,0.0,0.0,0.0,-0.7888,-0.8802,0.0,0.0,0.0,0.0,0.0,0.0,0.0,0.0,0.0,0.0,0.0,0.0,0.0,0.0,0.0,0.0,0.0,0.0,0.0,0.0,0.0,0.0,0.0,0.0,0.0,0.0,0.0,0.0,0.0,0.0,0.0,0.0,0.0,0.0,0.0,0.0,0.0,0.0,0.0,0.0,0.0,0.0,0.0,0.0,0.0,0.0,0.0,0.0,0.0,0.0,0.0,0.0,0.0,0.0,0.0,0.0,0.0,-0.4936,-0.6586,-0.8793,-1.1597,-1.5584,-1.8944,-2.1402,-2.2564,-2.0875,0.0,0.0,0.0,0.0,0.0,0.0,0.0,0.0,0.0,0.0,0.0,0.0,0.0,0.0,0.0,0.0,0.0,0.0,0.0,0.0,0.0,0.0,0.0,0.0,0.0,0.0,0.0,0.0,0.0,0.0,0.0,0.0,0.0,0.0,0.0,0.0,0.0,0.0,0.0,0.0,0.0,-0.7093,-0.669,-0.7002,-0.7173,0.0,0.0,-0.7546,-0.9991,-1.018,0.0,0.0,0.0,0.0,0.0,0.0,0.0,0.0,0.0,0.0,0.0,0.0,0.0,0.0,0.0,0.0,0.0,0.0,0.0,0.0,0.0,0.0,0.0,0.0,0.0,0.0,0.0,0.0,0.0,0.0,0.0,0.0,0.0,0.0,0.0,0.0,0.0,0.0,0.0,0.0,0.0,0.0,0.0,0.0,0.0,0.0,0.0,0.0,0.0,0.0,0.0,0.0,0.0,0.0,0.0,0.0,-0.5425,-0.8473,-1.0797,-1.2329,-1.6701,-2.0027,-2.2099,-2.3439,-2.162,0.0,0.0,0.0,0.0,0.0,0.0,0.0,0.0,0.0,0.0,0.0,0.0,0.0,0.0,0.0,0.0,0.0,0.0,0.0,0.0,0.0,0.0,0.0,0.0,0.0,0.0,0.0,0.0,0.0,0.0,0.0,0.0,0.0,0.0,0.0,0.0,0.0,0.0,0.0,0.0,0.0,-0.5993,-0.7554,-0.7131,0.0,0.0,0.0,0.0,-0.5275,-0.5675,0.0,0.0,0.0,0.0,0.0,0.0,0.0,0.0,0.0,0.0,0.0,0.0,0.0,0.0,0.0,0.0,0.0,0.0,0.0,0.0,0.0,0.0,0.0,0.0,0.0,0.0,0.0,0.0,0.0,0.0,0.0,0.0,0.0,0.0,0.0,0.0,0.0,0.0,0.0,0.0,0.0,0.0,0.0,0.0,0.0,0.0,0.0,0.0,0.0,0.0,0.0,0.0,0.0,0.0,0.0,0.0,-0.6404,-0.8928,-1.1248,-1.3426,-1.7647,-2.0836,-2.2778,-2.3904,-2.1862,0.0,0.0,0.0,0.0,0.0,0.0,0.0,0.0,0.0,0.0,0.0,0.0,0.0,0.0,0.0,0.0,0.0,0.0,0.0,0.0,0.0,0.0,0.0,0.0,0.0,0.0,0.0,0.0,0.0,0.0,0.0,0.0,0.0,0.0,0.0,0.0,0.0,0.0,0.0,0.0,-0.4641,-0.5672,-0.6905,0.0,0.0,0.0,0.0,0.0,0.0,-0.4277,-0.4039,0.0,0.0,0.0,0.0,0.0,0.0,0.0,0.0,0.0,0.0,0.0,0.0,0.0,0.0,0.0,0.0,0.0,0.0,0.0,0.0,0.0,0.0,0.0,0.0,0.0,0.0,0.0,0.0,0.0,0.0,0.0,0.0,0.0,0.0,0.0,0.0,0.0,0.0,0.0,0.0,0.0,0.0,0.0,0.0,0.0,0.0,0.0,0.0,0.0,0.0,0.0,0.0,0.0,0.0,0.0,-0.7389,-0.9033,-1.1419,-1.4555,-1.8393,-2.1354,-2.3259,-2.4024,-2.1833,-1.6538,0.0,0.0,0.0,0.0,0.0,0.0,0.0,0.0,0.0,0.0,0.0,0.0,0.0,0.0,0.0,0.0,0.0,0.0,0.0,0.0,0.0,0.0,0.0,0.0,0.0,0.0,0.0,0.0,0.0,0.0,0.0,0.0,0.0,0.0,0.0,0.0,0.0,0.0,0.0,-0.4571,-0.5228,0.0,0.0,0.0,0.0,0.0,0.0,0.0,0.0,-0.3098,0.0,0.0,0.0,0.0,0.0,0.0,0.0,0.0,0.0,0.0,0.0,0.0,0.0,0.0,0.0,0.0,0.0,0.0,0.0,0.0,0.0,0.0,0.0,0.0,0.0,0.0,0.0,0.0,0.0,0.0,0.0,0.0,0.0,0.0,0.0,0.0,0.0,0.0,0.0,0.0,0.0,0.0,0.0,0.0,0.0,0.0,0.0,0.0,0.0,0.0,0.0,0.0,0.0,0.0,0.0,0.0,-1.0111,-1.2776,-1.5374,-1.8671,-2.1341,-2.3244,-2.3739,-2.1691,-1.6844,0.0,0.0,0.0,0.0,0.0,0.0,0.0,0.0,0.0,0.0,0.0,0.0,0.0,0.0,0.0,0.0,0.0,0.0,0.0,0.0,0.0,0.0,0.0,0.0,0.0,0.0,0.0,0.0,0.0,0.0,0.0,0.0,0.0,0.0,0.0,0.0,0.0,0.0,-0.0246,-0.2198,0.0,0.0,0.0,0.0,0.0,0.0,0.0,0.0,-0.1448,0.0,0.0,0.0,0.0,0.0,0.0,0.0,0.0,0.0,0.0,0.0,0.0,0.0,0.0,0.0,0.0,0.0,0.0,0.0,0.0,0.0,0.0,0.0,0.0,0.0,0.0,0.0,0.0,0.0,0.0,0.0,0.0,0.0,0.0,0.0,0.0,0.0,0.0,0.0,0.0,0.0,0.0,0.0,0.0,0.0,0.0,0.0,0.0,0.0,0.0,0.0,0.0,0.0,0.0,0.0,0.0,0.0,0.0,-1.2734,-1.62,-1.9209,-2.1733,-2.3664,-2.21,-1.9669,0.0,0.0,0.0,0.0,0.0,0.0,0.0,0.0,0.0,0.0,0.0,0.0,0.0,0.0,0.0,0.0,0.0,0.0,0.0,0.0,0.0,0.0,0.0,0.0,0.0,0.0,0.0,0.0,0.0,0.0,0.0,0.0,0.0,0.0,0.0,0.0,0.0,0.0,0.0,0.0,0.0,0.0,0.0,0.0,0.0,0.0,0.0,0.0,0.0,0.0,0.0,0.0,0.0,0.0,0.0,0.0,0.0,0.0,0.0,0.0,0.0,0.0,0.0,0.0,0.0,0.0,0.0,0.0,0.0,0.0,0.0,0.0,0.0,0.0,0.0,0.0,0.0,0.0,0.0,0.0,0.0,0.0,0.0,0.0,0.0,0.0,0.0,0.0,0.0,0.0,0.0,0.0,0.0,0.0,0.0,0.0,0.0,0.0,0.0,0.0,0.0,0.0,0.0,0.0,0.0,0.0,0.0,0.0,-1.2277,-1.6535,-1.9291,-2.1689,-2.37,-2.0333,-1.7792,0.0,0.0,0.0,0.0,0.0,0.0,0.0,0.0,0.0,0.0,0.0,0.0,0.0,0.0,0.0,0.0,0.0,0.0,0.0,0.0,0.0,0.0,0.0,0.0,0.0,0.0,0.0,0.0,0.0,0.0,0.0,0.0,0.0,0.0,0.0,0.0,0.0,0.0,0.0,0.0,0.0,0.0,0.0,0.0,0.0,0.0,0.0,0.0,0.0341,0.0,0.0,0.0,0.0,0.0,0.0,0.0,0.0,0.0,0.0,0.0,0.0,0.0,0.0,0.0,0.0,0.0,0.0,0.0,0.0,0.0,0.0,0.0,0.0,0.0,0.0,0.0,0.0,0.0,0.0,0.0,0.0,0.0,0.0,0.0,0.0,0.0,0.0,0.0,0.0,0.0,0.0,0.0,0.0,0.0,0.0,0.0,0.0,0.0,0.0,0.0,0.0,0.0,0.0,0.0,0.0,0.0,0.0,0.0,-1.1681,-1.5613,-1.8379,-2.0498,-2.1889,-1.9397,-1.7342,0.0,0.0,0.0,0.0,0.0,0.0,0.0,0.0,0.0,0.0,0.0,0.0,0.0,0.0,0.0,0.0,0.0,0.0,0.0,0.0,0.0,0.0,0.0,0.0,0.0,0.0,0.0,0.0,0.0,0.0,0.0,0.0,0.0,0.0,0.0,0.0,0.0,0.0,0.0,0.0,0.0,0.0,0.0,0.0,0.0,0.0,0.0,0.0,0.0,0.0,0.0,0.0,0.0,0.0,0.0,0.0,0.0,0.0,0.0,0.0,0.0,0.0,0.0,0.0,0.0,0.0,0.0,0.0,0.0,0.0,0.0,0.0,0.0,0.0,0.0,0.0,0.0,0.0,0.0,0.0,0.0,0.0,0.0,0.0,0.0,0.0,0.0,0.0,0.0,0.0,0.0,0.0,0.0,0.0,0.0,0.0,0.0,0.0,0.0,0.0,0.0,0.0,0.0,0.0,0.0,0.0,0.0,0.0,-1.0981,-1.4681,-1.7268,-1.9334,-2.0814,-1.6891,-1.5045,0.0,0.0,0.0,0.0,0.0,0.0,0.0,0.0,0.0,0.0,0.0,0.0,0.0,0.0,0.0,0.0,0.0,0.0,0.0,0.0,0.0,0.0,0.0,0.0,0.0,0.0,0.0,0.0,0.0,0.0,0.0,0.0,0.0,0.0,0.0,0.0,0.0,0.0,0.0,0.0,0.0,0.0,0.0,0.0,0.0,0.0,0.0,0.0,0.0,0.0,0.0,0.0,0.0,0.0,0.0,0.0,0.0,0.0,0.0,0.0,0.0,0.0,0.0,0.0,0.0,0.0,0.0,0.0,0.0,0.0,0.0,0.0,0.0,0.0,0.0,0.0,0.0,0.0,0.0,0.0,0.0,0.0,0.0,0.0,0.0,0.0,0.0,0.0,0.0,0.0,0.0,0.0,0.0,0.0,0.0,0.0,0.0,0.0,0.0,0.0,0.0,0.0,0.0,0.0,0.0,0.0,0.0,0.0,0.0,-1.3701,-1.5987,-1.804,-1.9697,-1.4883,-1.3097,0.0,0.0,0.0,0.0,0.0,0.0,0.0,0.0,0.0,0.0,0.0,0.0,0.0,0.0,0.0,0.0,0.0,0.0,0.0,0.0,0.0,0.0,0.0,0.0,0.0,0.0,0.0,0.0,0.0,0.0,0.0,0.0,0.0,0.0,0.0,0.0,0.0,0.0,0.0,0.0,0.0,0.0,0.0,0.0,0.0,0.0,0.0,0.0,0.0,0.0,0.0,0.0,0.0,0.0,0.0,0.0,0.0,0.0,0.0,0.0,0.0,0.0,0.0,0.0,0.0,0.0,0.0,0.0,0.0,0.0,0.0,0.0,0.0,0.0,0.0,0.0,0.0,0.0,0.0,0.0,0.0,0.0,0.0,0.0,0.0,0.0,0.0,0.0,0.0,0.0,0.0,0.0,0.0,0.0,0.0,0.0,0.0,0.0,0.0,0.0,0.0,0.0,0.0,0.0,0.0,0.0,0.0,0.0,0.0,-1.2694,-1.4406,-1.6531,-1.8923,-1.4069,-1.2083,0.0,0.0,0.0,0.0,0.0,0.0,0.0,0.0,0.0,0.0,0.0,0.0,0.0,0.0,0.0,0.0,0.0,0.0,0.0,0.0,0.0,0.0,0.0,0.0,0.0,0.0,0.0,0.0,0.0,0.0,0.0,0.0,0.0,0.0,0.0,0.0,0.0,0.0,0.0,0.0,0.0,0.0,0.0,0.0,0.0,0.0,0.0,0.0,0.0,0.0,0.0,0.0,0.0,0.0,0.0,0.0,0.0,0.0,0.0,0.0,0.0,0.0,0.0,0.0,0.0,0.0,0.0,0.0,0.0,0.0,0.0,0.0,0.0,0.0,0.0,0.0,0.0,0.0,0.0,0.0,0.0,0.0,0.0,0.0,0.0,0.0,0.0,0.0,0.0,0.0,0.0,0.0,0.0,0.0,0.0,0.0,0.0,0.0,0.0,0.0,0.0,0.0,0.0,0.0,0.0,0.0,0.0,0.0,0.0,-0.9881,-1.2788,-1.5064,-1.6695,-1.3196,-1.18,-1.2725,0.0,0.0,0.0,0.0,0.0,0.0,0.0,0.0,0.0,0.0,0.0,0.0,0.0,0.0,0.0,0.0,0.0,0.0,0.0,0.0,0.0,0.0,0.0,0.0,0.0,0.0,0.0,0.0,0.0,0.0,0.0,0.0,0.0,0.0,0.0,0.0,0.0,0.0,0.0,0.0,0.0,0.0,0.0,0.0,0.0,0.0,0.0,0.0,0.0,0.0,0.0,0.0,0.0,0.0,0.0,0.0,0.0,0.0,0.0,0.0,0.0,0.0,0.0,0.0,0.0,0.0,0.0,0.0,0.0,0.0,0.0,0.0,0.0,0.0,0.0,0.0,0.0,0.0,0.0,0.0,0.0,0.0,0.0,0.0,0.0,0.0,0.0,0.0,0.0,0.0,0.0,0.0,0.0,0.0,0.0,0.0,0.0,0.0,0.0,0.0,0.0,0.0,0.0,0.0,0.0,0.0,0.0,0.0,-0.8681,-1.1708,-1.3813,-1.4686,-1.2084,-1.0882,0.0,0.0,0.0,0.0,0.0,0.0,0.0,0.0,0.0,0.0,0.0,0.0,0.0,0.0,0.0,0.0,0.0,0.0,0.0,0.0,0.0,0.0,0.0,0.0,0.0,0.0,0.0,0.0,0.0,0.0,0.0,0.0,0.0,0.0,0.0,0.0,0.0,0.0,0.0,0.0,0.0,0.0,0.0,0.0,0.0,0.0,0.0,0.0,0.0,0.0,0.0,0.0,0.0,0.0,0.0,0.0,0.0,0.0,0.0,0.0,0.0,0.0,0.0,0.0,0.0,0.0,0.0,0.0,0.0,0.0,0.0,0.0,0.0,0.0,0.0,0.0,0.0,0.0,0.0,0.0,0.0,0.0,0.0,0.0,0.0,0.0,0.0,0.0,0.0,0.0,0.0,0.0,0.0,0.0,0.0,0.0,0.0,0.0,0.0,0.0,0.0,0.0,0.0,0.0,0.0,0.0,0.0,0.0,-0.7978,-0.9614,-1.134,-1.2699,-1.3493,-1.0783,-0.9363,0.0,0.0,0.0,0.0,0.0,0.0,0.0,0.0,0.0,0.0,0.0,0.0,0.0,0.0,0.0,0.0,0.0,0.0,0.0,0.0,0.0,0.0,0.0,0.0,0.0,0.0,0.0,0.0,0.0,0.0,0.0,0.0,0.0,0.0,0.0,0.0,0.0,0.0,0.0,0.0,0.0,0.0,0.0,0.0,0.0,0.0,0.0,0.0,0.0,0.0,0.0,0.0,0.0,0.0,0.0,0.0,0.0,0.0,0.0,0.0,0.0,0.0,0.0,0.0,0.0,0.0,0.0,0.0,0.0,0.0,0.0,0.0,0.0,0.0,0.0,0.0,0.0,0.0,0.0,0.0,0.0,0.0,0.0,0.0,0.0,0.0,0.0,0.0,0.0,0.0,0.0,0.0,0.0,0.0,0.0,0.0,0.0,0.0,0.0,0.0,0.0,0.0,0.0,0.0,0.0,0.0,0.0,0.0,0.0,-0.7451,0.0,-1.135,0.0,-1.0553,-1.0116,0.0,0.0,0.0,0.0,0.0,0.0,0.0,0.0,0.0,0.0,0.0,0.0,0.0,0.0,0.0,0.0,0.0,0.0,0.0,0.0,0.0,0.0,0.0,0.0,0.0,0.0,0.0,0.0,0.0,0.0,0.0,0.0,0.0,0.0,0.0,0.0,0.0,0.0,0.0,0.0,0.0,0.0,0.0,0.0,0.0,0.0,0.0,0.0,0.0,0.0,0.0,0.0,0.0,0.0,0.0,0.0,0.0,0.0,0.0,0.0,0.0,0.0,0.0,0.0,0.0,0.0,0.0,0.0,0.0,0.0,0.0,0.0,0.0,0.0,0.0,0.0,0.0,0.0,0.0,0.0,0.0,0.0,0.0,0.0,0.0,0.0,0.0,0.0,0.0,0.0,0.0,0.0,0.0,0.0,0.0,0.0,0.0,0.0,0.0,0.0,0.0,0.0,0.0,0.0,0.0,0.0,0.0,0.0,0.0,-0.8184,-0.9676,-1.0294,-0.9807,-0.9943,-0.983,0.0,0.0,0.0,0.0,0.0,0.0,0.0,0.0,0.0,0.0,0.0,0.0,0.0,0.0,0.0,0.0,0.0,0.0,0.0,0.0,0.0,0.0,0.0,0.0,0.0,0.0,0.0,0.0,0.0,0.0,0.0,0.0,0.0,0.0,0.0,0.0,0.0,0.0,0.0,0.0,0.0,0.0,0.0,0.0,0.0,0.0,0.0,0.0,0.0,0.0,0.0,0.0,0.0,0.0,0.0,0.0,0.0,0.0,0.0,0.0,0.0,0.0,0.0,0.0,0.0,0.0,0.0,0.0,0.0,0.0,0.0,0.0,0.0,0.0,0.0,0.0,0.0,0.0,0.0,0.0,0.0,0.0,0.0,0.0,0.0,0.0,0.0,0.0,0.0,0.0,0.0,0.0,0.0,0.0,0.0,0.0,0.0,0.0,0.0,0.0,0.0,0.0,0.0,0.0,0.0,0.0,0.0,0.0,0.0,0.0,-0.9724,-0.9533,-1.0742,-0.9045,-0.8542,0.0,0.0,0.0,0.0,0.0,0.0,0.0,0.0,0.0,0.0,0.0,0.0,0.0,0.0,0.0,0.0,0.0,0.0,0.0,0.0,0.0,0.0,0.0,0.0,0.0,0.0,0.0,0.0,0.0,0.0,0.0,0.0,0.0,0.0,0.0,0.0,0.0,0.0,0.0,0.0,0.0,0.0,0.0,0.0,0.0,0.0,0.0,0.0,0.0,0.0,0.0,0.0,0.0,0.0,0.0,0.0,0.0,0.0,0.0,0.0,0.0,0.0,0.0,0.0,0.0,0.0,0.0,0.0,0.0,0.0,0.0,0.0,0.0,0.0,0.0,0.0,0.0,0.0,0.0,0.0,0.0,0.0,0.0,0.0,0.0,0.0,0.0,0.0,0.0,0.0,0.0,0.0,0.0,0.0,0.0,0.0,0.0,0.0,0.0,0.0,0.0,0.0,0.0,0.0,0.0,0.0,0.0,0.0,0.0,0.0,-0.8405,0.0,-1.0344,-0.9841,-0.9241,-0.8595,0.0,0.0,0.0,0.0,0.0,0.0,0.0,0.0,0.0,0.0,0.0,0.0,0.0,0.0,0.0,0.0,0.0,0.0,0.0,0.0,0.0,0.0,0.0,0.0,0.0,0.0,0.0,0.0,0.0,0.0,0.0,0.0,0.0,0.0,0.0,0.0,0.0,0.0,0.0,0.0,0.0,0.0,0.0,0.0,0.0,0.0,0.0,0.0,0.0,0.0,0.0,0.0,0.0,0.0,0.0,0.0,0.0,0.0,0.0,0.0,0.0,0.0,0.0,0.0,0.0,0.0,0.0,0.0,0.0,0.0,0.0,0.0,0.0,0.0,0.0,0.0,0.0,0.0,0.0,0.0,0.0,0.0,0.0,0.0,0.0,0.0,0.0,0.0,0.0,0.0,0.0,0.0,0.0,0.0,0.0,0.0,0.0,0.0,0.0,0.0,0.0,0.0,0.0,0.0,0.0,0.0,0.0,0.0,0.0,0.0,-0.9235,-1.066,-1.0714,-1.0461,0.0,0.0,0.0,0.0,0.0,0.0,0.0,0.0,0.0,0.0,0.0,0.0,0.0,0.0,0.0,0.0,0.0,0.0,0.0,0.0,0.0,0.0,0.0,0.0,0.0,0.0,0.0,0.0,0.0,0.0,0.0,0.0,0.0,0.0,0.0,0.0,0.0,0.0,0.0,0.0,0.0,0.0,0.0,0.0,0.0,0.0,0.0,0.0,0.0,0.0,0.0,0.0,0.0,0.0,0.0,0.0,0.0,0.0,0.0,0.0,0.0,0.0,0.0,0.0,0.0,0.0,0.0,0.0,0.0,0.0,0.0,0.0,0.0,0.0,0.0,0.0,0.0,0.0,0.0,0.0,0.0,0.0,0.0,0.0,0.0,0.0,0.0,0.0,0.0,0.0,0.0,0.0,0.0,0.0,0.0,0.0,0.0,0.0,0.0,0.0,0.0,0.0,0.0,0.0,0.0,0.0,0.0,0.0,0.0,0.0,0.0,-1.0325,-1.115,-1.163,0.0,-1.1914,0.0,0.0,0.0,0.0,0.0,0.0,0.0,0.0,0.0,0.0,0.0,0.0,0.0,0.0,0.0,0.0,0.0,0.0,0.0,0.0,0.0,0.0,0.0,0.0,0.0,0.0,0.0,0.0,0.0,0.0,0.0,0.0,0.0,0.0,0.0,0.0,0.0,0.0,0.0,0.0,0.0,0.0,0.0,0.0,0.0,0.0,0.0,0.0,0.0,0.0,0.0,0.0,0.0,0.0,0.0,0.0,0.0,0.0,0.0,0.0,0.0,0.0,0.0,0.0,0.0,0.0,0.0,0.0,0.0,0.0,0.0,0.0,0.0,0.0,0.0,0.0,0.0,0.0,0.0,0.0,0.0,0.0,0.0,0.0,0.0,0.0,0.0,0.0,0.0,0.0,0.0,0.0,0.0,0.0,0.0,0.0,0.0,0.0,0.0,0.0,0.0,0.0,0.0,0.0,0.0,0.0,0.0,0.0,0.0,0.0,0.0,0.0,-1.2433,-1.2459,-1.0413,0.0,0.0,0.0,0.0,0.0,0.0,0.0,0.0,0.0,0.0,0.0,0.0,0.0,0.0,0.0,0.0,0.0,0.0,0.0,0.0,0.0,0.0,0.0,0.0,0.0,0.0,0.0,0.0,0.0,0.0,0.0,0.0,0.0,0.0,0.0,0.0,0.0,0.0,0.0,0.0,0.0,0.0,0.0,0.0,0.0,0.0,0.0,0.0,0.0,0.0,0.0,0.0,0.0,0.0,0.0,0.0,0.0,0.0,0.0,0.0,0.0,0.0,0.0,0.0,0.0,0.0,0.0,0.0,0.0,0.0,0.0,0.0,0.0,0.0,0.0,0.0,0.0,0.0,0.0,0.0,0.0,0.0,0.0,0.0,0.0,0.0,0.0,0.0,0.0,0.0,0.0,0.0,0.0,0.0,0.0,0.0,0.0,0.0,0.0,0.0,0.0,0.0,0.0,0.0,0.0,0.0,0.0,0.0,0.0,0.0,-1.2326,-1.0741,-1.3153,-1.3212,-1.0491,0.0,0.0,0.0,0.0,0.0,0.0,0.0,0.0,0.0,0.0,0.0,0.0,0.0,0.0,0.0,0.0,0.0,0.0,0.0,0.0,0.0,0.0,0.0,0.0,0.0,0.0,0.0,0.0,0.0,0.0,0.0,0.0,0.0,0.0,0.0,0.0,0.0,0.0,0.0,0.0,0.0,0.0,0.0,0.0,0.0,0.0,0.0,0.0,0.0,0.0,0.0,0.0,0.0,0.0,0.0,0.0,0.0,0.0,0.0,0.0,0.0,0.0,0.0,0.0,0.0,0.0,0.0,0.0,0.0,0.0,0.0,0.0,0.0,0.0,0.0,0.0,0.0,0.0,0.0,0.0,0.0,0.0,0.0,0.0,0.0,0.0,0.0,0.0,0.0,0.0,0.0,0.0,0.0,0.0,0.0,0.0,0.0,0.0,0.0,0.0,0.0,0.0,0.0,0.0,0.0,0.0,0.0,0.0,0.0,0.0,0.0,0.0,0.0,0.0,-1.1465,0.0,0.0,0.0,0.0,0.0,0.0,0.0,0.0,0.0,0.0,0.0,0.0,0.0,0.0,0.0,0.0,0.0,0.0,0.0,0.0,0.0,0.0,0.0,0.0,0.0,0.0,0.0,0.0,0.0,0.0,0.0,0.0,0.0,0.0,0.0,0.0,0.0,0.0,0.0,0.0,0.0,0.0,0.0,0.0,0.0,0.0,0.0,0.0,0.0,0.0,0.0,0.0,0.0,0.0,0.0,0.0,0.0,0.0,0.0,0.0,0.0,0.0,0.0,0.0,0.0,0.0,0.0,0.0,0.0,0.0,0.0,0.0,0.0,0.0,0.0,0.0,0.0,0.0,0.0,0.0,0.0,0.0,0.0,0.0,0.0,0.0,0.0,0.0,0.0,0.0,0.0,0.0,0.0,0.0,0.0,0.0,0.0,0.0,0.0,0.0,0.0,0.0,0.0,0.0,0.0,0.0,0.0,0.0,0.0,0.0,0.0,0.0,0.0,0.0,0.0,0.0,0.0,0.0,0.0,0.0,0.0,0.0,0.0,0.0,0.0,0.0,0.0,0.0,0.0,0.0,0.0,0.0,0.0,0.0,0.0,0.0,0.0,0.0,0.0,0.0,0.0,0.0,0.0,0.0,0.0,0.0,0.0,0.0,0.0,0.0,0.0,0.0,0.0,0.0,0.0,0.0,0.0,0.0,0.0,0.0,0.0,0.0,0.0,0.0,0.0,0.0,0.0,0.0,0.0,0.0,0.0,0.0,0.0,0.0,0.0,0.0,0.0,0.0,0.0,0.0,0.0,0.0,0.0,0.0,0.0,0.0,0.0,0.0,0.0,0.0,0.0,0.0,0.0,0.0,0.0,0.0,0.0,0.0,0.0,0.0,0.0,0.0,0.0,0.0,0.0,0.0,0.0,0.0,0.0,0.0,0.0,0.0,0.0,0.0,0.0,0.0,0.0,0.0,0.0,0.0,0.0,0.0,0.0,0.0,0.0,0.0,0.0,0.0,0.0,0.0,0.0,0.0,0.0,0.0,0.0,0.0,0.0,0.0,0.0,0.0,0.0,0.0,0.0,0.0,0.0,0.0,0.0,0.0,0.0,0.0,0.0,0.0,0.0,0.0,0.0,0.0,0.0,0.0,0.0,0.0,0.0,0.0,0.0,0.0,0.0,0.0,0.0,0.0,0.0,0.0,0.0,0.0,0.0,0.0,0.0,0.0,0.0,0.0,0.0,0.0,0.0,0.0,0.0,0.0,0.0,0.0,0.0,0.0,0.0,0.0,0.0,0.0,0.0,0.0,0.0,0.0,0.0,0.0,0.0,0.0,0.0,0.0,0.0,0.0,0.0,0.0,0.0,0.0,0.0,0.0,0.0,0.0,0.0,0.0,0.0,0.0,0.0,0.0,0.0,0.0,0.0,0.0,0.0,0.0,0.0,0.0,0.0,0.0,0.0,0.0,0.0,0.0,0.0,0.0,0.0,0.0,0.0,0.0,0.0,0.0,0.0,0.0,0.0,0.0,0.0,0.0,0.0,0.0,0.0,0.0,0.0,0.0,0.0,0.0,0.0,0.0,0.0,0.0,0.0,0.0,0.0,0.0,0.0,0.0,0.0,0.0,0.0,0.0,0.0,0.0,0.0,0.0,0.0,0.0,0.0,0.0,0.0,0.0,0.0,0.0,0.0,0.0,0.0,0.0,0.0,0.0,0.0,0.0,0.0,0.0,0.0,0.0,0.0,0.0,0.0,0.0,0.0,0.0,0.0,0.0,0.0,0.0,0.0,0.0,0.0,0.0,0.0,0.0,0.0,0.0,0.0,0.0,0.0,0.0,0.0,0.0,0.0,0.0,0.0,0.0,0.0,0.0,0.0,0.0,0.0,0.0,0.0,0.0,0.0,0.0,0.0,0.0,0.0,0.0,0.0,0.0,0.0,0.0,0.0,0.0,0.0,0.0,0.0,0.0,0.0,0.0,0.0,0.0,0.0,0.0,0.0,0.0,0.0,0.0,0.0,0.0,0.0,0.0,0.0,0.0,0.0,0.0,0.0,0.0,0.0,0.0,0.0,0.0,0.0,0.0,0.0,0.0,0.0,0.0,0.0,0.0,0.0,0.0,0.0,0.0,0.0,0.0,0.0,0.0,0.0,0.0,0.0,0.0,0.0,0.0,0.0,0.0,0.0,0.0,0.0,0.0,0.0,0.0,0.0,0.0,0.0,0.0,0.0,0.0,0.0,0.0,0.0,0.0,0.0,0.0,0.0,0.0,0.0,0.0,0.0,0.0,0.0,0.0,0.0,0.0,0.0,0.0,0.0,0.0,0.0,0.0,0.0,0.0,0.0,0.0,0.0,0.0,0.0,0.0,0.0,0.0,0.0,0.0,0.0,0.0,0.0,0.0,0.0,0.0,0.0,0.0,0.0,0.0,0.0,0.0,0.0,0.0,0.0,0.0,0.0,0.0,0.0,0.0,0.0,0.0,0.0,0.0,0.0,0.0,0.0,0.0,0.0,0.0,0.0,0.0,0.0,0.0,0.0,0.0,0.0,0.0,0.0,0.0,0.0,0.0,0.0,0.0,0.0,0.0,0.0,0.0,0.0,0.0,0.0,0.0,0.0,0.0,0.0,0.0,0.0,0.0,0.0,0.0,0.0,0.0,0.0,0.0,0.0,0.0,0.0,0.0,0.0,0.0,0.0,0.0,0.0,0.0,0.0,0.0,0.0,0.0,0.0,0.0,0.0,0.0,0.0,0.0,0.0,0.0,0.0,0.0,0.0,0.0,0.0,0.0,0.0,0.0,0.0,0.0,0.0,0.0,0.0,0.0,0.0,0.0,0.0,0.0,0.0,0.0,0.0,0.0,0.0,0.0,0.0,0.0,0.0,0.0,0.0,0.0,0.0,0.0,0.0,0.0,0.0,0.0,0.0,0.0,0.0,0.0,0.0,0.0,0.0,0.0,0.0,0.0,0.0,0.0,0.0,0.0,0.0,0.0,0.0,0.0,0.0,0.0,0.0,0.0,0.0,0.0,0.0,0.0,0.0,0.0,0.0,0.0,0.0,0.0,0.0,0.0,0.0,0.0,0.0,0.0,0.0,0.0,0.0,0.0,0.0,0.0,0.0,0.0,0.0,0.0,0.0,0.0,0.0,0.0,0.0,0.0,0.0,0.0,0.0,0.0,0.0,0.0,0.0,0.0,0.0,0.0,0.0,0.0,0.0,0.0,0.0,0.0,0.0,0.0,0.0,0.0,0.0,0.0,0.0,0.0,0.0,0.0,0.0,0.0,0.0,0.0,0.0,0.0,0.0,0.0,0.0,0.0,0.0,0.0,0.0,0.0,0.0,0.0,0.0,0.0,0.0,0.0,0.0,0.0,0.0,0.0,0.0,0.0,0.0,0.0,0.0,0.0,0.0,0.0,0.0,0.0,0.0,0.0,0.0,0.0,0.0,0.0,0.0,0.0,0.0,0.0,0.0,0.0,0.0,0.0,0.0,0.0,0.0,0.0,0.0,0.0,0.0,0.0,0.0,0.0,0.0,0.0,0.0,0.0,0.0,0.0,0.0,0.0,0.0,0.0,0.0,0.0,0.0,0.0,0.0,0.0,0.0,0.0,0.0,0.0,0.0,0.0,0.0,0.0,0.0,0.0,0.0,0.0,0.0,0.0,0.0,0.0,0.0,0.0,0.0,0.0,0.0,0.0,0.0,0.0,0.0,0.0,0.0,0.0,0.0,0.0,0.0,0.0,0.0,0.0,0.0,0.0,0.0,0.0,0.0,0.0,0.0,0.0,0.0,0.0,0.0,0.0,0.0,0.0,0.0,0.0,0.0,0.0,0.0,0.0,0.0,0.0,0.0,0.0,0.0,0.0,0.0,0.0,0.0,0.0,0.0,0.0,0.0,0.0,0.0,0.0,0.0,0.0,0.0,0.0,0.0,0.0,0.0,0.0,0.0,0.0,0.0,0.0,0.0,0.0,0.0,0.0,0.0,0.0,0.0,0.0,0.0,0.0,0.0,0.0,0.0,0.0,0.0,0.0,0.0,0.0,0.0,0.0,0.0,0.0,0.0,0.0,0.0,0.0,0.0,0.0,0.0,0.0,0.0,0.0,0.0,0.0,0.0,0.0,0.0,0.0,0.0,0.0,0.0,0.0,0.0,0.0,0.0,0.0,0.0,0.0,0.0,0.0,0.0,0.0,0.0,0.0,0.0,0.0,0.0,0.0,0.0,0.0,0.0,0.0,0.0,0.0,0.0,0.0,0.0,0.0,0.0,0.0,0.0,0.0,0.0,0.0,0.0,0.0,0.0,0.0,0.0,0.0,0.0,0.0,0.0,0.0,0.0,0.0,0.0,0.0,0.0,0.0,0.0,0.0]}],[{"header":{"parameterUnit":"kt","parameterCategory":2,"dx":1,"dy":1,"la1":29.587661999999998,"la2":31.0,"lo1":-88.76705300000003,"lo2":-86.6583820000003,"nx":115,"ny":88,"refTime":"2022-10-15T06:00:00:Z","depth":0,"parameterNumber":2,"parameterNumberName":"V-component_of_WINDS"},"data":[11.0031,11.0031,11.0031,11.0031,11.0031,11.0031,11.0031,11.0031,11.0031,11.0031,10.9955,10.9844,10.954,10.9538,10.9766,11.0031,11.0031,11.0031,11.0031,11.0031,11.0031,11.0031,11.0035,11.0043,11.0045,11.0058,11.0033,11.0049,11.0058,11.0061,11.0062,11.0062,11.0062,11.0062,11.0062,11.0062,11.0062,11.0062,11.0062,11.0062,11.0062,11.0062,11.0062,11.0062,11.0062,11.0062,11.0062,11.0062,11.0062,11.0062,11.0062,11.0062,11.0062,11.0062,11.0062,11.0062,11.0062,11.0062,11.0062,11.0328,11.0404,11.0594,11.1011,11.2075,11.2454,11.3251,11.4048,11.5034,11.5338,11.4957,11.5829,11.674,11.7571,11.8529,11.9144,11.9075,11.9099,11.9142,11.9334,11.9488,11.9401,11.9306,11.9201,11.9087,11.8979,11.8831,11.8766,11.8757,11.8757,11.8757,11.8757,11.8757,11.8757,11.8757,11.8757,11.8757,11.8757,11.8757,11.8757,11.8757,11.8739,11.8636,11.8598,11.8587,11.8525,11.847,11.8476,11.8455,11.8491,11.8474,11.8559,11.8569,11.8528,11.8476,11.8401,11.0031,11.0031,11.0031,11.0031,11.0031,11.0031,10.9955,10.9955,10.9955,10.9917,10.973,10.8478,10.7873,10.8366,10.9199,10.9728,11.0031,11.0031,11.0031,11.0031,11.0031,11.0031,11.0031,11.0031,11.0037,11.0047,11.0064,11.0046,11.0059,11.006,11.0062,11.0062,11.0062,11.0062,11.0062,11.0062,11.0062,11.0062,11.0062,11.0062,11.0062,11.0062,11.0062,11.0062,11.0058,11.005,11.005,11.005,11.005,11.0054,11.0062,11.0062,11.0062,11.0062,11.0062,11.0062,11.0062,11.0062,11.0062,11.0062,11.0062,11.0062,11.0138,11.0366,11.0442,11.1008,11.1654,11.2376,11.2871,11.3327,11.4503,11.5527,11.6396,11.722,11.7663,11.7942,11.815,11.8352,11.891,11.9566,11.9488,11.9396,11.9318,11.9183,11.9047,11.8838,11.8757,11.8757,11.8757,11.8757,11.8757,11.8757,11.8757,11.8757,11.8757,11.8757,11.8757,11.8757,11.8757,11.8757,11.8757,11.873,11.8655,11.8645,11.8597,11.8565,11.8535,11.8542,11.8569,11.8542,11.861,11.863,11.8562,11.8532,11.8449,11.0031,11.0031,11.0031,11.0031,10.9879,10.8971,10.8629,10.844,10.7605,10.7719,10.8364,10.791,10.7493,10.7759,10.9274,11.0031,11.0031,11.0031,11.0031,11.0031,11.0031,11.0031,11.0031,11.0031,11.0035,11.0053,11.0031,11.0047,11.0061,11.0062,11.0062,11.0062,11.0062,11.0062,11.0062,11.0062,11.0062,11.0062,11.0062,11.0062,11.0062,11.0062,11.0062,11.0062,11.0059,11.0056,11.0012,10.9922,10.9963,11.0009,11.0053,11.0058,11.0059,11.0062,11.0062,11.0061,11.0062,11.0062,11.0062,11.0062,11.0062,11.0062,11.01,11.01,11.0062,11.0132,11.0778,11.0856,11.139,11.196,11.3174,11.3782,11.4577,11.5482,11.6042,11.6255,11.6408,11.7123,11.8152,11.8861,11.9293,11.921,11.9163,11.9034,11.9102,11.8912,11.8784,11.8766,11.8766,11.8757,11.8757,11.8757,11.8757,11.8757,11.8757,11.8757,11.8757,11.8757,11.8757,11.8757,11.8757,11.8757,11.8757,11.8711,11.8664,11.8626,11.8606,11.8587,11.8567,11.8642,11.8662,11.8662,11.8605,11.8585,11.8518,11.0031,11.0031,11.0031,11.0031,10.9841,10.8629,10.8176,10.791,10.5898,10.5784,10.681,10.7303,10.7493,10.7759,10.9274,11.0031,11.0031,11.0031,11.0031,11.0031,11.0031,11.0031,11.0031,11.0031,11.0039,11.0058,11.0033,11.0046,11.0053,11.0059,11.0062,11.0062,11.0062,11.0062,11.0062,11.0062,11.0062,11.0062,11.0062,11.0062,11.0062,11.0062,11.0062,11.0062,11.0056,11.0054,11.0012,10.9921,10.9958,10.9958,11.0002,11.0045,11.0045,11.0058,11.0059,11.0056,11.0062,11.0062,11.0062,11.0062,11.0062,11.0062,11.0061,11.0058,11.0055,11.0054,11.0054,11.0095,11.0363,11.0972,11.1618,11.1998,11.2529,11.3473,11.4337,11.436,11.4341,11.5729,11.7193,11.7993,11.8749,11.8894,11.886,11.8939,11.9053,11.9033,11.887,11.8811,11.882,11.8784,11.8784,11.8784,11.8775,11.8757,11.8757,11.8757,11.8757,11.8757,11.8766,11.8766,11.8757,11.8757,11.8757,11.8739,11.873,11.8711,11.8692,11.8636,11.8645,11.8702,11.8749,11.872,11.8664,11.8664,11.8626,11.0031,11.0031,11.0031,11.0031,10.9995,10.973,10.9654,10.9464,10.6351,10.5063,10.548,10.6772,10.7152,10.7417,10.8895,10.969,11.0031,11.0031,11.0031,11.0031,11.0031,11.0031,11.0031,11.0031,11.0039,11.0043,11.0054,11.0032,11.0026,11.0045,11.0062,11.0062,11.0062,11.0062,11.0062,11.0062,11.0062,11.0062,11.0062,11.0062,11.0062,11.0062,11.0062,11.0062,11.0057,11.0046,11.0047,11.0002,10.9994,10.9947,10.995,11.0003,11.0004,11.001,10.998,11.0018,11.0013,11.0018,10.9986,11.0024,11.0024,11.006,11.0058,11.0053,11.0048,11.0043,11.0047,11.005,11.0059,11.0554,11.0706,11.0972,11.1428,11.2184,11.2671,11.266,11.3024,11.4075,11.5242,11.5841,11.6677,11.7749,11.7807,11.839,11.8493,11.892,11.8956,11.8904,11.8899,11.8829,11.882,11.8811,11.8784,11.8757,11.8757,11.8757,11.8757,11.8766,11.8766,11.8766,11.8793,11.8784,11.8766,11.8757,11.8748,11.8757,11.8757,11.8739,11.8739,11.8757,11.8757,11.8757,11.8766,11.8766,11.8775,11.0031,11.0031,11.0031,11.0031,10.9879,10.8933,10.9161,10.931,10.6467,10.4949,10.4949,10.4723,10.5027,10.6163,10.7795,10.9085,10.9879,10.9955,11.0031,11.0031,11.0031,11.0031,11.0031,11.0031,11.0037,11.0051,11.0058,11.0061,11.0039,11.005,11.0062,11.0062,11.0062,11.0062,11.0062,11.0062,11.0062,11.0062,11.0062,11.0062,11.0062,11.0062,11.0062,11.0062,11.0062,11.0048,11.0043,10.9917,10.9897,10.9846,10.9846,10.9866,10.9906,10.9906,10.9877,10.9899,10.9906,10.989,10.9937,10.998,11.0016,11.0051,11.0045,11.004,11.0033,11.0033,11.0039,11.0043,11.0056,11.0061,11.006,11.0098,11.0591,11.1008,11.1041,11.107,11.1783,11.2569,11.3135,11.3665,11.4589,11.5825,11.6822,11.7538,11.8029,11.8606,11.8861,11.8807,11.868,11.8571,11.8539,11.8794,11.8841,11.8641,11.8757,11.8757,11.8811,11.8847,11.882,11.8802,11.8867,11.8858,11.884,11.8822,11.8775,11.8757,11.8757,11.8757,11.8757,11.8757,11.8757,11.869,11.865,11.8601,11.8635,11.0031,11.0031,11.0031,11.0031,10.9766,10.8212,10.7833,10.8248,10.6201,10.4949,10.4949,10.3659,10.4228,10.5063,10.6696,10.8138,10.9085,10.9728,10.9917,11.0031,11.0031,11.0031,11.0031,11.0031,11.0041,11.0049,11.0054,11.0059,11.0039,11.005,11.0058,11.0062,11.0062,11.0062,11.0062,11.0062,11.0062,11.0062,11.0062,11.0062,11.0062,11.0062,11.0062,11.0062,11.0062,11.0057,11.0013,10.994,10.9915,10.9854,10.9837,10.9854,10.9855,10.9859,10.9803,10.9803,10.9823,10.983,10.9922,11.0004,11.0043,11.0039,11.0026,11.0058,11.0061,11.0028,11.0032,11.0039,11.0049,11.005,11.0049,11.0054,11.0246,11.0473,11.047,11.0504,11.0695,11.1333,11.1516,11.1969,11.2223,11.347,11.4973,11.5818,11.6903,11.8084,11.8651,11.8479,11.8323,11.813,11.8202,11.8798,11.8823,11.834,11.8367,11.8887,11.8933,11.8962,11.8902,11.8876,11.8928,11.8983,11.8922,11.8867,11.8867,11.8849,11.8784,11.8757,11.8757,11.8757,11.8455,11.8442,11.8389,11.813,11.802,11.0031,11.0031,11.0031,11.0031,10.9728,10.8176,10.662,10.5177,10.4949,10.4835,10.4797,10.4494,10.4304,10.5063,10.6507,10.7417,10.791,10.9236,10.9576,10.9766,10.9955,10.9803,10.9803,10.9955,11.0035,11.0035,11.0039,11.0051,11.0064,11.0043,11.0056,11.0062,11.0062,11.0062,11.0062,11.0062,11.0062,11.0062,11.0062,11.0062,11.0062,11.0062,11.0062,11.0062,11.0062,11.0062,11.0018,10.9968,10.9956,10.9947,10.9861,10.9909,10.9958,10.9968,10.9912,10.9848,10.9816,10.9865,10.9927,11.0001,11.0036,11.0061,11.0045,11.0049,11.0054,11.0056,11.0061,11.0031,11.004,11.0035,11.0033,11.0045,11.0053,11.0053,11.005,11.0052,11.0093,11.0205,11.039,11.0575,11.0832,11.1715,11.3339,11.4294,11.5389,11.6295,11.6717,11.6769,11.7005,11.6938,11.7351,11.802,11.8222,11.7875,11.8387,11.8996,11.9132,11.9147,11.9031,11.8975,11.9066,11.9128,11.9033,11.8991,11.8974,11.8919,11.8893,11.8858,11.8718,11.8276,11.7822,11.7732,11.7543,11.7374,11.7752,10.8366,10.848,10.954,10.9386,10.8364,10.7759,10.6545,10.4949,10.3811,10.3319,10.3092,10.2179,10.2331,10.3319,10.4116,10.4875,10.7493,10.8176,10.8404,10.8518,10.9388,10.9274,10.9161,10.9388,10.9917,11.0031,11.0033,11.0043,11.0064,11.004,11.0053,11.006,11.0062,11.0062,11.0062,11.0062,11.0062,11.0062,11.0062,11.0062,11.0062,11.0062,11.0062,11.0062,11.0062,11.0062,11.0016,10.9924,10.9861,10.9895,10.9857,10.9865,10.9998,11.0045,11.0002,10.9914,10.9854,10.981,10.9906,10.998,11.0056,11.0045,11.0037,11.0043,11.0054,11.0053,11.0056,11.0061,11.0036,11.0033,11.0031,11.0041,11.005,11.0055,11.0055,11.0057,11.0059,11.0058,11.0207,11.0209,11.047,11.128,11.2343,11.3119,11.3702,11.4186,11.4746,11.5081,11.5409,11.5559,11.586,11.6796,11.7268,11.7423,11.8026,11.8713,11.9009,11.9245,11.9221,11.9125,11.9132,11.8898,11.9041,11.912,11.9074,11.9058,11.8979,11.8644,11.8204,11.7753,11.7289,11.697,11.6695,11.7051,11.7549,10.6956,10.7607,10.8705,10.7873,10.5937,10.5786,10.4797,10.3242,10.2181,10.1612,10.1384,10.1233,10.1536,10.2371,10.3319,10.4645,10.6545,10.6886,10.6848,10.7076,10.9085,10.8629,10.8516,10.9123,11.0031,11.0031,11.0033,11.0045,11.0031,11.0041,11.0052,11.006,11.0062,11.0024,11.0062,11.0062,11.0062,11.0062,11.0062,11.0062,11.0062,11.0062,11.0062,11.0062,11.0062,11.0062,11.002,10.9964,10.992,10.9889,10.995,10.996,11.0015,11.0056,11.0053,11.0003,10.9964,10.9866,10.9881,10.9955,11.0031,11.0031,11.0031,11.0037,11.0049,11.0053,11.0053,11.0054,11.0059,11.0058,11.0056,11.0029,11.0042,11.005,11.0055,11.0058,11.0062,11.0062,11.006,11.006,11.0057,11.0795,11.1117,11.1671,11.1877,11.2282,11.319,11.3609,11.3794,11.4047,11.4461,11.5471,11.6123,11.6731,11.7383,11.7828,11.8181,11.8185,11.831,11.8594,11.8675,11.8517,11.8683,11.9086,11.914,11.9109,11.866,11.8188,11.7699,11.728,11.683,11.6463,11.6606,11.6989,11.7553,10.5842,10.7341,10.7417,10.5596,10.294,10.2561,10.1726,10.0548,10.0206,10.013,10.032,10.146,10.2067,10.2371,10.3166,10.4304,10.5366,10.6355,10.6431,10.6011,10.7795,10.825,10.8136,10.8553,10.9426,10.9879,11.0033,11.0051,11.0041,11.0043,11.0055,11.0061,10.9721,10.9721,11.0024,11.0062,11.0062,11.0062,11.0062,11.0062,11.0062,11.0062,11.0062,11.0062,11.0062,11.0062,11.0062,10.9974,10.9973,10.998,11.0011,11.0013,11.0062,11.0062,11.006,11.0051,11.0016,10.993,10.9892,10.9959,10.9995,11.0033,11.0031,11.0033,11.0033,11.0033,11.0035,11.0039,11.0039,11.0037,11.0035,11.0039,11.0026,11.004,11.0049,11.0062,11.0062,11.0062,11.0062,11.0061,11.0055,11.0043,11.0111,11.0211,11.0383,11.0828,11.1665,11.2042,11.2227,11.2547,11.3062,11.376,11.4133,11.493,11.5942,11.6632,11.7067,11.709,11.7146,11.7441,11.7597,11.7307,11.792,11.8972,11.899,11.8834,11.8295,11.774,11.7691,11.7564,11.6832,11.6206,11.6586,11.7018,11.7812,10.3488,10.4078,10.5252,10.4458,10.2561,10.2447,10.146,10.0092,9.9903,9.9903,9.9941,10.0358,10.0661,10.0737,10.1458,10.2559,10.438,10.4458,10.4496,10.5139,10.5708,10.5252,10.5482,10.6469,10.825,10.8553,10.9201,10.9855,10.9693,10.9965,10.9787,10.9376,10.8961,10.9227,10.9607,11.0062,11.0062,11.0062,11.0062,11.0062,11.0062,11.0062,11.0062,11.0062,11.0062,11.0062,11.0062,11.0058,11.0058,11.0059,11.0059,11.0057,11.0062,11.0062,11.0062,11.0061,11.0021,10.9977,10.9962,10.9985,11.0047,11.0035,11.0033,11.0031,11.0031,11.0031,11.0031,11.0031,11.0031,11.0031,11.0033,11.0043,11.0063,11.0036,11.0046,11.0062,11.0062,11.0062,11.0062,11.006,11.0054,11.004,11.0105,11.0128,11.0227,11.0448,11.098,11.1056,11.1131,11.1433,11.1881,11.2185,11.245,11.3371,11.4401,11.4957,11.5437,11.5465,11.5535,11.5963,11.622,11.5565,11.5818,11.7211,11.8063,11.8373,11.8157,11.7797,11.7736,11.7711,11.6753,11.5751,11.6318,11.7466,11.8204,10.1848,10.2447,10.2824,10.2407,10.146,10.146,10.0851,10.0016,9.9903,9.9903,9.9941,10.0624,10.0889,10.0965,10.1043,10.2143,10.3585,10.279,10.2674,10.3242,10.419,10.3849,10.3813,10.4989,10.6545,10.6886,10.811,10.8918,10.8438,10.8643,10.8649,10.8309,10.7782,10.824,10.862,10.8885,10.8923,10.9075,10.9607,11.0024,11.0062,11.0062,11.0062,11.0062,11.0062,11.0062,11.0062,11.0062,11.0062,11.0062,11.006,11.0061,11.0062,11.0062,11.0062,11.0062,11.0062,11.0016,11.0007,11.0037,11.0063,11.0049,11.0035,11.0031,11.0031,11.0031,11.0031,11.0031,11.0031,11.0031,11.0031,11.0045,11.0061,11.0036,11.0045,11.0051,11.0062,11.0062,11.0056,11.0054,11.0046,11.0035,11.0061,11.0045,11.0037,11.0031,11.0031,11.0107,11.0259,11.0484,11.0788,11.1091,11.1165,11.1905,11.2241,11.2997,11.3791,11.3791,11.3786,11.4564,11.526,11.4492,11.409,11.5479,11.6565,11.7164,11.751,11.7564,11.7505,11.7286,11.6569,11.5776,11.6684,11.7901,11.8622,10.0847,10.2139,10.0622,10.005,10.0013,9.9901,9.9941,9.9903,9.9903,9.9903,10.013,10.1308,10.1802,10.1953,10.1726,10.2029,10.2523,10.2333,10.1726,10.1876,10.2748,10.2976,10.3052,10.3547,10.4837,10.5071,10.6442,10.6421,10.583,10.6709,10.5913,10.5153,10.5883,10.6796,10.7291,10.7329,10.7329,10.7557,10.8354,10.9075,10.9873,10.9721,10.9835,10.991,11.0062,11.0062,11.0062,11.0062,11.0062,11.0062,11.0062,11.0024,10.9607,10.9797,10.9683,10.9683,10.9683,11.0056,11.0051,11.0047,11.004,11.0026,11.0049,11.0037,11.0031,11.0031,11.0031,11.0031,11.0031,11.0031,11.0031,11.0035,11.0051,11.0028,11.0039,11.0047,11.005,11.0051,11.0048,11.0042,11.0036,11.0028,11.0053,11.0041,11.0033,11.0031,11.0031,11.0031,11.0031,11.0069,11.0183,11.0259,11.0259,11.0333,11.052,11.0881,11.184,11.2111,11.207,11.2828,11.3703,11.3346,11.2471,11.3743,11.4803,11.5841,11.6547,11.6218,11.6129,11.6482,11.6767,11.6522,11.712,11.7662,11.8342,10.0138,10.0498,10.0101,9.9918,9.988,9.9897,9.9901,9.9903,9.9901,9.9903,10.0054,10.0358,10.0586,10.0586,10.0699,10.1308,10.2219,10.1081,10.1043,10.1233,10.142,10.1117,10.1382,10.2143,10.3097,10.3149,10.4776,10.5086,10.4606,10.4198,10.3674,10.3186,10.3907,10.4518,10.5279,10.5582,10.5772,10.5772,10.6266,10.7595,10.9151,10.8696,10.9037,10.9607,11.0024,11.0062,11.0062,11.0062,11.0062,11.0062,11.0062,10.9531,10.8809,10.9303,10.9379,10.8961,10.9567,11.002,11.0054,11.0054,11.0051,11.0041,11.0028,11.0049,11.0037,11.0031,11.0031,11.0031,11.0031,11.0031,11.0033,11.0047,11.0053,11.0059,11.0031,11.0039,11.0045,11.0042,11.004,11.0032,11.0063,11.0054,11.0047,11.0037,11.0031,11.0031,11.0031,11.0031,11.0031,11.0031,11.0107,11.0107,11.0105,11.0138,11.0205,11.0147,11.0151,11.0419,11.0342,11.0702,11.1191,11.1069,11.1204,11.179,11.2673,11.3598,11.4396,11.4444,11.4494,11.4784,11.5187,11.605,11.6811,11.7189,11.7601,9.9831,9.9847,9.9919,9.9891,9.9894,9.9906,9.9918,9.9889,9.9891,9.9895,9.9901,9.9903,9.9903,9.9978,9.9903,10.0472,10.0965,10.0396,10.051,10.0851,10.0472,9.9978,10.0206,10.0853,10.1348,10.1775,10.2877,10.3641,10.2659,10.1758,10.1344,10.1469,10.2119,10.2997,10.3722,10.3874,10.4254,10.4519,10.4443,10.5317,10.7063,10.7708,10.7936,10.8847,10.9645,10.9948,11.0062,11.0062,11.0062,11.0062,11.0062,10.9493,10.9037,10.8658,10.9075,10.8392,10.9531,10.9945,11.0056,11.0059,10.9978,10.9968,10.9997,11.0026,11.0049,11.0037,11.0031,11.0031,11.0031,11.0031,11.0035,11.0043,11.0047,11.0051,11.0053,11.0059,11.0061,11.0064,11.0028,11.0058,11.0049,11.0043,11.0037,11.0033,11.0031,11.0031,11.0031,11.0031,11.0031,11.0031,11.0031,11.0031,11.0027,10.9984,10.9973,10.9965,11.0014,11.0006,10.9933,10.9861,10.9713,10.9688,11.0135,11.0711,11.1553,11.1866,11.1979,11.2286,11.2479,11.2901,11.3378,11.4431,11.5407,11.5835,11.6094,9.9704,9.9752,9.9859,9.9908,9.9911,9.9919,9.9894,9.9916,9.9918,9.9886,9.9903,9.9903,9.9903,9.9903,9.9903,9.9903,9.9978,9.9903,10.0016,10.0206,10.0016,9.9903,9.9941,9.9903,10.021,10.0522,10.1593,10.1144,10.0684,10.0329,10.0031,10.0314,10.1352,10.2156,10.2125,10.2127,10.2925,10.3798,10.3115,10.3153,10.4405,10.5848,10.6607,10.7443,10.8316,10.9113,10.9379,10.9417,10.9759,10.9873,11.0062,10.991,10.9531,10.8316,10.8809,10.9493,10.9873,10.9834,11.0018,11.006,10.9984,10.9937,10.9927,11.0039,11.0026,11.0049,11.0031,11.0031,11.0031,11.0031,11.0031,11.0033,11.0031,11.0035,11.0039,11.0037,11.0037,11.0049,11.0047,11.0037,11.0039,11.0035,11.0033,11.0031,11.0031,11.0031,11.0031,11.0031,11.0031,11.0031,11.0031,11.0031,11.0027,11.0027,11.002,11.0022,11.0051,11.0056,10.9955,10.9889,10.9806,10.9705,10.9831,11.0026,11.0821,11.1365,11.1057,11.0787,11.0578,11.091,11.1497,11.2593,11.382,11.4224,11.4468,9.9773,9.9859,9.9889,9.9901,9.9904,9.988,9.9891,9.9897,9.9897,9.9897,9.9903,9.9903,9.9903,9.9903,9.9903,9.9903,9.9903,9.9903,9.9903,9.9903,9.9903,9.9903,9.9903,9.9904,9.9908,9.9955,10.0565,10.025,9.9948,9.9904,9.9915,10.0119,10.0133,10.0409,10.0567,10.0684,10.0495,10.1216,10.1672,10.1672,10.1558,10.2583,10.4026,10.5393,10.5772,10.6797,10.7898,10.8164,10.8772,10.9531,10.9873,10.9455,10.8468,10.8961,10.9645,10.9721,10.8658,10.8999,10.953,10.9986,11.0024,10.9943,10.9975,11.0008,10.9998,10.9903,10.9955,11.0031,11.0031,11.0031,11.0031,11.0031,11.0031,11.0031,11.0031,11.0031,11.0031,11.0031,11.0031,11.0031,11.0031,11.0031,11.0031,11.0031,11.0031,11.0031,11.0031,11.0031,11.0031,11.0031,11.0031,11.0031,11.0031,11.0031,11.0031,11.0031,11.0031,11.0029,10.9975,10.9912,10.9833,10.9761,10.9728,10.9769,11.0446,11.0674,11.0096,10.9756,10.9916,11.0016,10.9916,11.059,11.1918,11.2587,11.2845,9.9794,9.9844,9.9914,9.9889,9.9891,9.9901,9.9916,9.9886,9.9889,9.9893,9.9901,9.9903,9.9903,9.9903,9.9903,9.9903,9.9903,9.9903,9.9903,9.9903,9.9903,9.9903,9.9903,9.9903,9.991,9.9913,9.991,9.9941,9.9903,9.9903,9.9908,9.9884,9.9897,9.9906,9.9914,9.9884,9.9963,10.0077,10.0685,10.0761,10.0191,10.0723,10.2128,10.357,10.4595,10.5355,10.6342,10.6873,10.7936,10.8734,10.9569,10.9455,10.8999,10.8734,10.8354,10.7822,10.8354,10.8961,10.8769,10.9682,10.9872,10.987,10.918,10.9174,10.9622,10.9338,10.9201,10.9728,11.0031,11.0031,11.0031,11.0031,11.0031,11.0031,11.0031,11.0031,11.0031,11.0031,11.0031,11.0031,11.0031,11.0031,11.0031,11.0031,11.0031,11.0031,11.0031,11.0031,11.0031,11.0031,11.0031,11.0031,11.0031,11.0031,11.0031,11.0031,11.0031,11.0029,10.9977,10.9914,10.9851,10.9863,10.9845,10.9775,10.9775,11.0085,10.9743,10.9651,10.9643,10.9659,10.9709,10.9929,11.0612,11.0972,11.1209,9.9739,9.9762,9.9856,9.9908,9.9916,9.9916,9.9899,9.9913,9.9882,9.9886,9.9897,9.9899,9.9895,9.9893,9.9895,9.9899,9.9897,9.9901,9.9903,9.9903,9.9903,9.9903,9.9903,9.9903,9.9903,9.9903,9.9903,9.9903,9.9903,9.9903,9.9904,9.9908,9.9887,9.9894,9.9903,9.9913,9.9883,9.9961,10.0077,10.0153,9.9926,10.0153,10.0875,10.19,10.3001,10.3912,10.4671,10.5848,10.6797,10.7177,10.843,10.8885,10.8468,10.7557,10.657,10.6114,10.7291,10.7822,10.7363,10.8277,10.8959,10.8878,10.7849,10.7848,10.8258,10.7937,10.7956,10.8821,10.9424,10.969,10.9955,11.0031,11.0031,11.0031,11.0031,11.0031,11.0031,11.0031,11.0031,11.0031,11.0031,11.0031,11.0031,11.0031,11.0031,11.0031,11.0031,11.0031,11.0031,11.0031,11.0031,11.0031,11.0031,11.0031,11.0031,11.0031,11.0031,11.0029,10.9984,10.9922,10.9927,10.9982,10.9984,10.9922,10.9917,10.9914,10.9886,10.981,10.9747,10.9728,10.9671,10.9647,11.0064,11.0404,11.0409,9.9798,9.9897,9.9911,9.9894,9.9889,9.9891,9.9893,9.9897,9.9899,9.9891,9.9918,9.9916,9.9906,9.9889,9.9906,9.9916,9.9882,9.9893,9.9903,9.9903,9.9903,9.9903,9.9903,9.9903,9.9903,9.9903,9.9903,9.9903,9.9903,9.9903,9.9903,9.9906,9.9885,9.989,9.9895,9.9907,9.9916,9.9883,9.9885,9.9887,9.9888,9.9926,10.0001,10.0533,10.1102,10.1672,10.2697,10.338,10.4026,10.5241,10.5582,10.5734,10.5696,10.5393,10.5089,10.5013,10.5506,10.5886,10.5658,10.5772,10.6076,10.5734,10.5427,10.5612,10.5794,10.578,10.6294,10.7195,10.7946,10.8364,10.9806,10.9576,10.969,10.9917,10.9993,11.0031,11.0031,11.0031,10.9841,10.9879,10.9841,10.9993,11.0031,11.0031,11.0031,11.0031,11.0031,11.0031,11.0031,11.0031,11.0031,11.0031,11.0031,11.0031,11.0031,11.0031,11.0031,11.0029,11.0029,11.0022,11.0022,11.0029,11.0027,10.9989,10.9989,11.0022,10.9968,10.9901,10.9836,10.9816,10.9765,10.9758,10.9754,10.9792,10.9906,9.9822,9.9829,9.9884,9.9904,9.9889,9.9899,9.9903,9.9903,9.9903,9.9891,9.9913,9.9911,9.9894,9.9905,9.9897,9.9911,9.9916,9.9893,9.9903,9.9903,9.9903,9.9903,9.9903,9.9903,9.9903,9.9903,9.9903,9.9903,9.9903,9.9903,9.9903,9.9904,9.9912,9.9919,9.9881,9.9895,9.9907,9.9916,9.9883,9.9886,9.9888,9.9888,9.9888,9.9888,9.9963,10.0191,10.1178,10.1862,10.2811,10.3191,10.2773,10.2279,10.2355,10.3115,10.3039,10.2925,10.3646,10.4633,10.4178,10.4368,10.4861,10.5013,10.406,10.4245,10.4655,10.403,10.4543,10.5674,10.6239,10.6429,10.7223,10.7377,10.7946,10.8364,10.8667,10.9123,10.9654,10.9199,10.8667,10.8781,10.935,10.9728,11.0031,11.0031,10.9993,10.9728,10.9728,10.9841,10.9879,11.0031,11.0031,11.0031,11.0031,11.0031,11.0031,11.0031,11.0031,11.0031,11.0031,11.0031,11.0031,11.0031,11.0031,11.0029,11.0029,11.0031,11.0029,11.002,10.996,10.9906,10.9895,10.9854,10.9848,10.9829,10.9791,9.979,9.9711,9.9838,9.9861,9.9913,9.9895,9.9901,9.9897,9.9901,9.9884,9.9899,9.9899,9.9878,9.9844,9.9916,9.9901,9.9901,9.9891,9.9903,9.9903,9.9903,9.9903,9.9903,9.9903,9.9903,9.9903,9.9903,9.9903,9.9903,9.9903,9.9903,9.9903,9.9904,9.9903,9.9904,9.9882,9.9895,9.991,9.9918,9.9885,9.9888,9.9888,9.9888,9.9888,9.9888,9.9926,10.0191,10.1216,10.1862,10.1596,10.0837,10.0343,10.0457,10.1292,10.133,10.1027,10.2507,10.3191,10.2431,10.2925,10.3836,10.3418,10.2542,10.2494,10.3707,10.251,10.2835,10.4,10.4418,10.4719,10.525,10.5063,10.5784,10.6656,10.6962,10.7417,10.8326,10.7681,10.7038,10.7188,10.7984,10.8893,10.8779,10.8551,10.8893,10.9386,10.9462,10.9616,10.9803,11.0031,11.0031,11.0031,11.0031,11.0031,11.0031,11.0031,11.0031,11.0031,11.0031,11.0031,11.0031,11.0031,11.0031,11.0031,11.0031,11.0031,11.0031,11.0022,10.9975,10.998,10.9975,10.9884,10.983,10.9822,10.9816,9.9724,9.9708,9.9714,9.9826,9.9909,9.9893,9.9889,9.988,9.9893,9.983,9.978,9.9862,9.9844,9.9735,9.9891,9.9908,9.9914,9.9886,9.9899,9.9903,9.9903,9.9903,9.9903,9.9903,9.9903,9.9903,9.9903,9.9903,9.9903,9.9903,9.9903,9.9903,9.9903,9.9903,9.9904,9.9906,9.9887,9.9906,9.9911,9.9881,9.9888,9.9888,9.9888,9.9888,9.9888,9.9888,10.0001,10.0153,10.0305,10.0229,10.0039,9.9926,9.9926,9.9963,10.0039,10.0229,10.0495,10.0799,10.0381,10.0685,10.0685,10.0837,10.0569,10.0337,10.0708,10.0772,10.1098,10.2604,10.2714,10.3317,10.4152,10.4721,10.4873,10.5025,10.5139,10.5215,10.5402,10.5326,10.5215,10.529,10.5328,10.548,10.5478,10.5592,10.6085,10.7567,10.7795,10.8288,10.9045,10.9272,10.9462,10.9803,11.0031,11.0031,10.9993,11.0031,11.0031,11.0031,11.0031,11.0031,11.0031,11.0031,11.0031,11.0031,11.0031,11.0031,11.0029,10.9987,10.9942,10.9942,10.9942,10.9894,10.9808,10.9844,10.9833,9.9716,9.9708,9.9732,9.9759,9.9826,9.9889,9.9894,9.9891,9.9911,9.9859,9.9859,9.9897,9.9888,9.9866,9.9888,9.9911,9.9894,9.9889,9.9901,9.9903,9.9863,9.9827,9.9827,9.9903,9.9903,9.9903,9.9903,9.9903,9.9903,9.9903,9.9903,9.9903,9.9903,9.9903,9.9903,9.9903,9.9917,9.9898,9.9902,9.9912,9.9886,9.9887,9.9887,9.9888,9.9888,9.9888,9.9888,9.9888,9.9888,9.9888,9.9888,9.9888,9.9888,9.9888,9.9888,9.9888,9.9888,9.9888,9.9888,9.9888,9.9888,9.9888,9.9887,9.9884,9.9918,9.9905,10.0007,10.0945,10.0934,10.1346,10.1914,10.2027,10.2483,10.3168,10.2634,10.2065,10.2027,10.2976,10.3431,10.3735,10.4304,10.4949,10.4949,10.4987,10.5404,10.5822,10.6051,10.696,10.8098,10.8364,10.8667,10.9576,11.0031,10.9879,10.9766,10.9955,10.9993,10.9993,10.9993,11.0031,11.0031,11.0031,11.0031,11.0031,11.0031,11.0029,10.9984,10.994,10.9894,10.9892,10.994,10.9902,10.9904,10.9942,10.9892,9.972,9.9724,9.9729,9.9705,9.9749,9.9888,9.9899,9.9859,9.9886,9.9914,9.9885,9.9885,9.9844,9.9841,9.9885,9.9864,9.9851,9.988,9.9895,9.9857,9.9553,9.91,9.8687,9.8954,9.9407,9.9865,9.9903,9.9903,9.9903,9.9903,9.9903,9.9903,9.9903,9.9903,9.9903,9.9903,9.9913,9.9891,9.9894,9.9905,9.9918,9.9882,9.9885,9.9887,9.9888,9.9888,9.9888,9.9888,9.9888,9.9888,9.9888,9.9888,9.9888,9.9888,9.9888,9.9888,9.9888,9.9888,9.9888,9.9888,9.9888,9.9888,9.9886,9.9885,9.9884,9.9908,9.9895,9.989,9.9915,10.0016,9.9978,10.0054,10.0548,10.1384,10.0927,10.0206,10.032,10.1003,10.1764,10.1878,10.2788,10.3242,10.3317,10.3355,10.3621,10.4114,10.4418,10.4911,10.6239,10.6848,10.6922,10.8248,10.9234,10.931,10.9426,10.9654,10.9768,10.9654,10.9578,10.9462,10.9234,10.95,10.9766,10.9877,10.9685,10.9826,10.9856,10.9738,10.9841,10.9828,10.9839,10.9884,10.9935,10.9946,10.9856,9.972,9.9724,9.9726,9.9739,9.9742,9.9847,9.9844,9.9752,9.9856,9.9834,9.9753,9.9774,9.977,9.9746,9.9777,9.9793,9.9762,9.9851,9.9873,9.934,9.8391,9.6999,9.6027,9.6977,9.8267,9.9521,9.9865,9.9903,9.9903,9.9903,9.9903,9.9903,9.9903,9.9903,9.9903,9.9903,9.9912,9.9888,9.9891,9.9899,9.991,9.9911,9.9915,9.9884,9.9885,9.9886,9.9887,9.9888,9.9888,9.9888,9.9888,9.9888,9.9888,9.9888,9.9888,9.9888,9.9888,9.9888,9.9888,9.9888,9.9888,9.9888,9.9887,9.9885,9.9884,9.9912,9.9898,9.9894,9.9919,9.9904,9.9903,9.9903,9.9978,10.0092,10.0054,9.9941,9.9903,10.0016,10.0358,10.0282,10.013,10.0282,10.0699,10.0661,10.1269,10.2105,10.2598,10.3395,10.4534,10.5141,10.5177,10.6011,10.715,10.7377,10.7681,10.7946,10.84,10.8326,10.844,10.8098,10.7719,10.8516,10.9121,10.9228,10.9259,10.951,10.9611,10.9375,10.9326,10.967,10.9825,10.9819,10.983,10.9846,10.9846,9.9734,9.972,9.9735,9.9704,9.9708,9.9757,9.9753,9.9712,9.9784,9.9746,9.9726,9.9736,9.9784,9.9825,9.9746,9.9755,9.985,9.9908,9.9342,9.8301,9.7557,9.6483,9.5178,9.5558,9.6702,9.8229,9.9407,9.9903,9.9903,9.9903,9.9903,9.9903,9.9903,9.9901,9.9903,9.9903,9.9904,9.9912,9.9915,9.9884,9.9897,9.9901,9.9906,9.9915,9.9916,9.9882,9.9886,9.9884,9.9882,9.9882,9.9885,9.9887,9.9888,9.9888,9.9888,9.9888,9.9888,9.9888,9.9888,9.9888,9.9888,9.9888,9.9887,9.9888,9.9887,9.9883,9.9912,9.9905,9.9893,9.9917,9.9904,9.9903,9.9903,9.9903,9.9903,9.9903,9.9903,9.9903,9.9903,9.9903,9.9903,9.9903,9.9903,9.9903,10.0244,10.0586,10.0851,10.1496,10.2826,10.3395,10.419,10.4987,10.548,10.5708,10.5935,10.6429,10.6958,10.6884,10.696,10.6507,10.6165,10.7036,10.7603,10.7634,10.7585,10.7684,10.8212,10.8243,10.8474,10.9483,10.9912,10.957,10.9156,10.9313,10.9009,9.9722,9.9716,9.972,9.9712,9.9742,9.9712,9.9712,9.9708,9.9708,9.9726,9.9726,9.9726,9.9774,9.9787,9.9736,9.9777,9.9872,9.9755,9.8653,9.69,9.6578,9.5355,9.3672,9.379,9.4978,9.6702,9.8836,9.9899,9.9895,9.9893,9.9889,9.9882,9.9918,9.9882,9.9918,9.9882,9.9882,9.9882,9.9882,9.9895,9.9915,9.9915,9.9888,9.9903,9.9906,9.9909,9.9916,9.991,9.9907,9.9911,9.9917,9.9884,9.9888,9.9888,9.9888,9.9888,9.9888,9.9888,9.9888,9.9888,9.9888,9.9888,9.9888,9.9888,9.9888,9.9886,9.9882,9.9911,9.9901,9.9887,9.9908,9.9903,9.9903,9.9903,9.9903,9.9903,9.9903,9.9903,9.9903,9.9903,9.9903,9.9903,9.9903,9.9903,9.9941,10.0016,10.0016,10.032,10.1346,10.165,10.2255,10.3166,10.3887,10.4152,10.4949,10.567,10.5101,10.4266,10.4685,10.4685,10.4572,10.4987,10.5328,10.5474,10.5423,10.5623,10.6256,10.665,10.6888,10.7589,10.8028,10.8237,10.8332,10.8031,10.7533,9.9722,9.9716,9.972,9.9738,9.971,9.9742,9.9734,9.971,9.9705,9.9724,9.972,9.9724,9.9728,9.9724,9.9728,9.9648,9.9466,9.9277,9.7662,9.5031,9.4848,9.3164,9.0502,9.1716,9.3207,9.4978,9.8183,9.9701,9.9873,9.9909,9.9897,9.9911,9.9911,9.9914,9.9908,9.9911,9.9908,9.9911,9.9916,9.9889,9.9906,9.9918,9.9899,9.9888,9.9893,9.9894,9.9894,9.9894,9.9898,9.9907,9.9909,9.9915,9.9883,9.9887,9.9888,9.9888,9.9888,9.9888,9.9888,9.9888,9.9888,9.9888,9.9888,9.9888,9.9888,9.9887,9.9883,9.9913,9.9902,9.9887,9.991,9.9903,9.9903,9.9903,9.9903,9.9903,9.9903,9.9903,9.9903,9.9903,9.9903,9.9903,9.9903,9.9903,9.9903,9.9903,9.9903,10.0054,10.0282,10.0358,10.0054,10.051,10.1534,10.2407,10.3623,10.4685,10.309,10.1914,10.2712,10.3092,10.3052,10.29,10.3279,10.3465,10.3377,10.3462,10.4095,10.4669,10.4976,10.574,10.5365,10.5612,10.6012,10.633,10.5881,9.9651,9.9712,9.972,9.9734,9.9706,9.9738,9.968,9.962,9.9689,9.9742,9.9726,9.9708,9.972,9.972,9.972,9.9148,9.7978,9.6917,9.5258,9.3261,9.3147,9.1993,9.0166,9.0359,9.151,9.3356,9.5452,9.7801,9.9653,9.9919,9.9911,9.9864,9.9902,9.9902,9.9902,9.9902,9.9902,9.9908,9.9886,9.9886,9.9884,9.9916,9.9895,9.9897,9.9906,9.9913,9.9912,9.9913,9.9917,9.9884,9.9894,9.9902,9.9907,9.9915,9.9918,9.9918,9.9918,9.9919,9.9918,9.9918,9.9919,9.9919,9.9885,9.9886,9.9886,9.9888,9.9886,9.9882,9.9912,9.9901,9.9887,9.991,9.9903,9.9903,9.9903,9.9903,9.9903,9.9903,9.9903,9.9903,9.9903,9.9903,9.9903,9.9903,9.9903,9.9903,9.9903,9.9903,9.9903,9.9903,9.9903,9.9978,10.051,10.0775,10.1458,10.2826,10.2067,10.1269,10.1648,10.1574,10.1458,10.1231,10.1269,10.1416,10.1478,10.1525,10.1871,10.2512,10.3491,10.4631,10.4338,10.3821,10.4241,10.4512,10.4487,9.9591,9.9738,9.9712,9.9734,9.9706,9.9738,9.968,9.962,9.9651,9.9705,9.9726,9.9708,9.972,9.972,9.972,9.8811,9.7217,9.616,9.4796,9.3399,9.3244,9.2652,9.169,9.1614,9.2501,9.4003,9.4651,9.6015,9.7951,9.8103,9.8362,9.8808,9.8918,9.926,9.9752,9.9828,9.9866,9.9831,9.9812,9.9862,9.9853,9.9894,9.9268,9.824,9.8639,9.899,9.9028,9.899,9.9299,9.9876,9.9881,9.9623,9.9139,9.9562,9.9906,9.991,9.991,9.991,9.991,9.991,9.991,9.9911,9.9881,9.9885,9.9885,9.9887,9.9887,9.9885,9.9915,9.9908,9.9899,9.9887,9.991,9.9904,9.9903,9.9903,9.9903,9.9903,9.9903,9.9903,9.9903,9.9903,9.9903,9.9903,9.9903,9.9903,9.9903,9.9903,9.9903,9.9903,9.9903,9.9903,9.9903,9.9903,9.9903,10.0965,10.1384,10.0737,10.0472,10.051,10.051,10.0396,10.0396,10.066,10.0455,10.0506,10.0758,10.129,10.1355,10.2388,10.257,10.2276,10.2999,10.2263,10.2456,9.9616,9.9706,9.9738,9.9734,9.974,9.9742,9.9731,9.9651,9.9738,9.9716,9.9712,9.972,9.972,9.972,9.93,9.8542,9.7145,9.6539,9.552,9.427,9.4308,9.4497,9.4611,9.4649,9.5269,9.5754,9.492,9.4658,9.4851,9.4927,9.5627,9.6997,9.7114,9.7906,9.9004,9.9197,9.9421,9.9129,9.9174,9.9333,9.937,9.9474,9.7985,9.5616,9.6472,9.7283,9.7283,9.7283,9.7976,9.9552,9.9463,9.8859,9.7628,9.8762,9.9483,9.953,9.9645,9.9758,9.9869,9.9907,9.9907,9.9909,9.9917,9.9884,9.9884,9.9887,9.9887,9.9885,9.9918,9.9912,9.991,9.9899,9.9885,9.9908,9.9904,9.9903,9.9903,9.9903,9.9903,9.9903,9.9903,9.9903,9.9903,9.9903,9.9903,9.9903,9.9903,9.9903,9.9903,9.9903,9.9903,9.9903,9.9903,9.9903,9.9903,10.0282,10.0206,10.0016,10.0092,9.9978,9.9903,9.9903,9.9941,9.9937,9.9889,9.9913,9.9901,9.9989,10.0172,10.0301,10.0596,10.0608,10.106,10.0169,10.0324,9.9647,9.9706,9.9738,9.9734,9.974,9.9738,9.9676,9.9582,9.9689,9.9742,9.9718,9.9705,9.972,9.9379,9.722,9.5971,9.5179,9.2944,9.1581,9.124,9.1202,9.1202,9.1202,9.1164,9.1436,9.1935,9.2731,9.3044,9.318,9.4207,9.5059,9.5448,9.5516,9.5747,9.6126,9.6198,9.6209,9.6233,9.6221,9.6199,9.6176,9.6235,9.5796,9.5009,9.5336,9.5545,9.5556,9.5556,9.583,9.6336,9.6409,9.6144,9.5733,9.611,9.6376,9.6454,9.7436,9.8602,9.9843,9.9919,9.9919,9.9882,9.9904,9.9915,9.9917,9.9886,9.9888,9.9887,9.9885,9.9882,9.9919,9.9906,9.9893,9.9887,9.9912,9.9903,9.9903,9.9903,9.9903,9.9903,9.9903,9.9903,9.9903,9.9903,9.9903,9.9903,9.9903,9.9903,9.9903,9.9903,9.9903,9.9903,9.9903,9.9903,9.9903,9.9903,9.9903,9.9903,9.9903,9.9903,9.9903,9.9903,9.9903,9.9903,9.9899,9.9891,9.9913,9.9904,9.9992,9.9793,9.9856,9.9986,9.9847,9.9793,9.9796,9.8692,9.8768,9.9357,9.9285,9.8718,9.8704,9.8276,9.7641,9.7732,9.8118,9.8557,9.8004,9.7751,9.7599,9.5743,9.4456,9.3702,9.177,9.0827,9.0823,9.0823,9.124,9.1808,9.1884,9.1884,9.1959,9.2149,9.2307,9.2365,9.2596,9.3192,9.3777,9.385,9.4194,9.4838,9.4849,9.4859,9.4869,9.4875,9.4196,9.3132,9.3563,9.3561,9.3018,9.3559,9.3913,9.3883,9.3891,9.4582,9.5885,9.6,9.6039,9.6081,9.6723,9.6493,9.5239,9.6525,9.7845,9.8816,9.8889,9.9194,9.9877,9.9895,9.9908,9.9916,9.9885,9.9887,9.9887,9.9887,9.9886,9.9884,9.9916,9.9905,9.9895,9.9885,9.9912,9.9904,9.9903,9.9903,9.9903,9.9903,9.9903,9.9903,9.9903,9.9906,9.9913,9.9915,9.9882,9.9887,9.9919,9.9917,9.9915,9.9915,9.9913,9.9904,9.9903,9.9903,9.9903,9.9903,9.9903,9.9903,9.9903,9.9903,9.9903,9.9901,9.9897,9.9886,9.9916,9.9909,9.9856,9.9794,9.9803,9.9897,9.9803,9.9774,9.6949,9.7172,9.8387,9.8329,9.7309,9.7237,9.65,9.5316,9.4948,9.563,9.6455,9.5289,9.4759,9.48,9.4497,9.344,9.2152,9.1777,9.1553,9.1622,9.1849,9.2755,9.3929,9.4232,9.4383,9.3974,9.2686,9.1932,9.1904,9.0651,9.0644,9.1925,9.2118,9.2844,9.4139,9.4323,9.4326,9.4418,9.4432,9.298,9.0304,9.148,9.1546,9.0039,9.1512,9.2271,9.2235,9.2288,9.3632,9.6377,9.6493,9.6726,9.7073,9.8361,9.7901,9.5319,9.6533,9.7402,9.7431,9.7545,9.838,9.9708,9.9901,9.9908,9.9882,9.9769,9.9694,9.9884,9.9887,9.9888,9.9886,9.9885,9.9919,9.9903,9.9897,9.989,9.9915,9.9908,9.9908,9.9906,9.9912,9.9908,9.9912,9.9912,9.9919,9.9894,9.9895,9.9898,9.9904,9.9901,9.9895,9.9898,9.9895,9.989,9.9917,9.9908,9.9913,9.991,9.9908,9.9912,9.9913,9.9913,9.9908,9.9913,9.9908,9.9906,9.9899,9.9891,9.9882,9.9875,9.9897,9.9905,9.9899,9.9578,9.9144,9.5209,9.5247,9.5618,9.6337,9.7156,9.7187,9.7018,9.6572,9.5316,9.4252,9.3358,9.3044,9.3622,9.4535,9.2056,9.0739,9.0061,8.7776,8.728,8.8321,8.8394,8.929,9.0789,9.0937,9.095,9.0863,9.0559,9.0382,9.0327,9.0026,9.0015,9.0338,9.0359,9.057,9.0967,9.0933,9.1001,9.1092,9.1098,9.0756,9.0029,9.036,9.0427,8.9998,9.0274,9.0415,9.0394,9.0398,9.0796,9.1583,9.1669,9.2285,9.3582,9.4001,9.442,9.5179,9.6582,9.7528,9.7603,9.8669,9.9505,9.9882,9.9884,9.9882,9.9793,9.8733,9.8471,9.9686,9.9802,9.9844,9.9848,9.9888,9.9887,9.9882,9.9912,9.9905,9.9903,9.9903,9.9903,9.9903,9.9903,9.9902,9.9902,9.9902,9.9789,9.9754,9.9907,9.9907,9.9909,9.9908,9.9911,9.9915,9.9913,9.9905,9.9903,9.9901,9.9902,9.9903,9.9864,9.9749,9.9749,9.9826,9.9861,9.9776,9.9812,9.9808,9.9868,9.9823,9.9743,9.9733,9.9534,9.9704,9.9534,9.8724,9.7649,9.3495,9.3514,9.4339,9.5158,9.5895,9.5209,9.4479,9.3541,9.1268,8.9655,8.8932,9.0488,9.1677,9.2338,9.0634,8.9807,8.9748,8.7917,8.7569,8.8396,8.8472,8.8919,8.9776,8.9832,8.9821,8.9811,8.9814,8.9831,8.9815,8.9817,8.982,8.982,8.9815,8.9806,8.9831,8.9882,8.9889,8.9891,8.7701,8.6524,8.6519,8.6542,8.6524,8.6547,8.7977,8.8634,8.8647,8.938,9.0194,9.1015,9.116,9.1859,9.3498,9.3656,9.3735,9.3926,9.476,9.495,9.4154,9.5634,9.7154,9.8635,9.8749,9.8481,9.7777,9.6832,9.6721,9.7595,9.8392,9.8775,9.8859,9.9506,9.9888,9.9885,9.9882,9.9915,9.9911,9.991,9.991,9.991,9.991,9.9607,9.8847,9.8772,9.8582,9.786,9.8472,9.9159,9.9807,9.9314,9.8821,9.8897,9.9426,9.9802,9.9911,9.991,9.991,9.991,9.9303,9.8809,9.8734,9.8734,9.8731,9.8764,9.8725,9.9025,9.9855,9.8826,9.8211,9.8351,9.8231,9.7646,9.7545,9.6933,9.5669,9.1679,9.1719,9.3292,9.3925,9.3655,9.2078,9.0502,8.8779,8.6475,8.5406,8.5601,8.8535,8.9796,8.9745,8.9572,8.9428,8.9415,8.9099,8.9164,8.9455,8.9421,8.9572,8.9799,8.9832,8.9827,8.982,8.9825,8.9804,8.983,8.9804,8.9817,8.9803,8.9567,8.9436,8.9445,8.9332,8.9254,8.9013,8.4925,8.2747,8.28,8.2762,8.2592,8.2221,8.5237,8.6826,8.6628,8.8169,8.9663,9.0841,9.1017,9.1727,9.3019,9.3258,9.3306,9.2591,9.2478,9.1987,9.0888,9.1989,9.4078,9.6697,9.7039,9.647,9.517,9.4825,9.4786,9.5086,9.63,9.7103,9.73,9.8591,9.9316,9.9128,9.9431,9.9467,9.9083,9.9042,9.9004,9.8966,9.9231,9.851,9.7296,9.7068,9.6575,9.5664,9.6465,9.7646,9.8445,9.8027,9.7306,9.7419,9.8405,9.9125,9.8934,9.931,9.9462,9.9575,9.8588,9.8132,9.817,9.817,9.8169,9.7862,9.7786,9.8089,9.9074,9.7063,9.6184,9.6707,9.6169,9.5249,9.5258,9.4547,9.3654,8.9875,8.9911,9.0348,9.0471,9.0372,8.8662,8.7085,8.5739,0.0,0.0,0.0,8.9413,8.9619,8.9556,8.8282,8.7738,8.7635,8.6391,8.6476,8.7705,8.7743,8.8466,8.9799,8.9805,8.982,8.9812,8.9948,8.9933,8.9801,8.9917,8.9892,8.9704,8.8421,8.7738,8.7619,8.6466,8.5821,8.5759,8.4956,8.4503,8.4511,8.4506,8.3162,8.0408,8.3508,8.4554,8.3179,8.4759,8.515,8.4118,8.4135,8.4355,8.463,8.5971,8.8414,9.1993,9.2373,9.2829,9.393,9.4302,9.4724,9.5255,9.533,9.5179,9.4914,9.3696,9.3499,9.481,9.5112,9.5379,9.5533,9.6901,9.7325,9.6045,9.7151,9.7419,9.6166,9.5939,9.6053,9.5901,9.6053,9.5787,9.5522,9.5484,9.5293,9.5142,9.5218,9.5673,9.5787,9.5635,9.537,9.5521,9.5976,9.6089,9.6164,9.7039,9.7913,9.7989,9.8711,9.9432,9.947,9.9469,9.9469,9.8897,9.8327,9.7679,9.7635,9.6191,9.5238,9.5427,9.5116,9.4841,9.4647,9.2766,9.0994,8.9346,0.0,8.947,8.9475,0.0,8.8607,8.64,8.3443,8.41,8.5416,8.7141,8.8874,8.9623,8.9569,8.8811,8.8498,8.8516,8.7704,8.7749,8.8544,8.8585,8.9012,8.9827,8.9805,8.9799,8.9915,8.9987,8.9976,8.9882,8.9138,8.8688,8.8571,8.6934,8.5674,8.4828,8.4881,8.4122,8.2402,8.161,8.1238,8.1206,8.1169,8.0327,7.8767,8.1006,0.0,0.0,0.0,0.0,0.0,0.0,0.0,0.0,0.0,0.0,8.5708,8.4387,8.4213,8.5867,8.5971,8.7468,9.0814,9.1117,9.0054,8.7469,8.8947,8.9929,8.9919,9.2227,9.3704,9.382,9.523,9.5921,9.521,9.5785,9.6014,9.5217,9.5028,9.5028,9.5028,9.5028,9.4686,9.3927,9.3737,9.3471,9.2712,9.3206,9.3775,9.3699,9.3054,9.2864,9.3623,9.4419,9.5024,9.5136,9.5859,9.6316,9.6242,9.6205,9.6167,9.6167,9.6167,9.6167,9.6128,9.5559,9.5331,9.5784,9.4189,9.2784,9.3463,9.3042,9.2433,9.2286,9.1152,8.9978,8.9232,8.9207,8.9334,8.9146,8.8784,8.8531,8.6161,8.2378,8.1006,8.1974,8.4705,8.7746,8.9106,8.911,8.9421,8.964,8.9757,8.9653,8.9661,8.9773,8.9769,8.9796,8.9801,8.983,8.9877,8.9971,9.0008,8.9845,8.9483,8.8118,8.7315,8.6946,8.531,8.3785,8.2558,0.0,0.0,0.0,7.8455,7.8005,7.8008,7.7867,7.7563,7.6994,7.8836,0.0,8.0814,8.1135,8.1793,8.2791,8.2962,0.0,0.0,0.0,0.0,0.0,0.0,0.0,0.0,0.0,0.0,0.0,8.5263,8.3629,8.0356,8.366,8.5333,8.3853,8.8131,9.1119,9.1119,9.2911,9.4097,9.4107,9.4379,9.442,9.4116,9.4079,9.4079,9.4079,9.4079,9.3547,9.2256,9.2067,9.1535,9.051,9.1193,9.1991,9.2029,9.1004,9.0586,9.1801,9.3053,9.3961,9.4111,9.43,9.4605,9.4495,9.3546,9.3282,9.3357,9.3282,9.313,9.3281,9.275,9.3092,9.4269,9.2105,9.0624,9.1799,9.1001,8.9977,8.9979,9.0016,8.9979,8.9228,8.9207,8.9213,8.8478,8.7071,8.5519,8.4523,8.4018,8.3818,8.3966,8.4486,8.6403,8.7228,8.7325,8.8768,8.9503,8.963,8.9628,8.9645,8.9649,8.9649,8.9693,8.9801,8.9804,8.982,8.9819,8.9918,8.9273,8.7814,8.7582,8.6726,8.5239,8.3588,8.263,8.2362,8.1144,7.9603,7.7746,7.8975,7.9593,7.9603,7.9567,7.8205,7.5627,7.8321,7.8615,7.5979,7.7205,7.7437,7.6219,7.6123,7.5466,7.4004,7.4766,7.468,0.0,7.2778,0.0,0.0,0.0,0.0,0.0,0.0,0.0,0.0,8.0469,8.0208,7.8621,8.3005,8.59,8.5922,8.8805,9.063,9.071,9.1962,9.2244,9.0842,9.066,9.0662,9.0624,9.0662,9.0624,9.0396,9.032,9.032,9.0092,9.0282,9.032,9.0282,9.013,9.0054,9.0244,9.0509,9.1034,9.1061,9.2006,9.2842,9.2996,9.3534,9.4715,9.445,9.4487,9.4601,9.445,9.3315,9.2595,9.2786,9.1307,9.0168,9.0358,9.0244,9.0016,8.9979,8.9979,8.9979,8.643,8.6417,8.6417,8.6056,8.5417,8.4534,8.4234,8.4369,8.4297,8.4297,8.4438,8.5192,8.5485,8.5547,8.6253,8.6634,8.6697,8.6787,8.6786,8.6774,8.685,8.7387,8.8406,8.841,8.8406,8.8393,8.8447,8.7589,8.5951,8.5081,8.4304,8.3521,8.1825,8.013,7.8392,7.8429,7.7708,7.6114,7.681,7.7161,7.7204,7.7208,7.6489,7.5124,7.5513,7.5512,7.4977,7.4769,7.4738,7.4816,7.4868,7.4451,7.3605,7.0754,6.9641,0.0,0.0,0.0,0.0,0.0,0.0,0.0,0.0,0.0,0.0,0.0,7.4892,7.6076,8.0655,8.2756,8.0907,8.383,8.5806,8.5817,8.5619,8.5939,8.7085,8.7169,8.7547,8.8497,8.9406,8.9976,8.9977,8.9978,8.9979,8.9979,8.918,8.8608,8.8645,8.9443,9.0012,9.0012,9.0007,8.9998,8.9989,9.0632,9.1128,9.1172,9.1742,9.2238,9.2242,9.224,9.2276,9.2204,9.1639,9.111,9.111,9.0431,9.0015,8.9977,8.9977,8.9978,8.9979,8.9979,8.9637,8.4554,8.4009,8.2022,8.1287,8.1427,8.1312,8.1538,8.2008,8.2309,8.2461,8.2522,8.2114,8.217,8.2512,8.2138,8.2444,8.3224,8.3297,8.3746,8.4497,8.4502,8.5261,8.6585,8.6585,8.6579,8.6602,8.6225,8.5385,8.4146,8.2565,8.1588,8.1137,7.9526,7.7217,7.4557,7.5604,7.5819,7.5053,7.5028,7.5032,7.5033,7.5044,7.5047,7.4967,7.3767,7.3501,7.4297,7.3138,7.299,7.4095,7.3472,7.2988,7.2822,6.7335,0.0,0.0,0.0,0.0,0.0,0.0,0.0,0.0,0.0,6.6368,6.2106,0.0,6.957,0.0,7.7382,7.9147,7.7,7.9079,0.0,0.0,8.0067,8.0313,8.2872,8.3866,8.4813,8.6103,8.7769,8.8793,8.8798,8.8801,8.8802,8.8801,8.7661,8.6855,8.6933,8.7994,8.8941,8.9282,8.9315,8.9534,8.9911,8.9987,9.0025,8.9991,9.0021,8.9979,8.9948,8.994,8.9937,8.9984,8.9989,8.9954,8.9991,9.0004,9.001,9.0009,9.0013,8.9901,8.9485,8.9371,8.8915,8.5601,8.3475,7.5915,7.2824,7.2936,7.2936,7.3768,7.5311,7.6722,7.7352,7.7298,7.5719,7.5846,7.7118,7.5819,0.0,7.9927,7.9902,8.1432,8.4362,8.4362,8.447,8.4608,8.4608,8.4653,8.4747,8.3177,8.2421,8.2331,8.0746,7.9189,7.7746,7.6054,7.4316,7.2628,7.2738,7.3599,7.4979,7.499,7.5032,7.5033,7.5049,7.4979,7.4829,7.4828,7.4095,7.2596,7.2379,7.2351,7.2236,6.9457,6.782,6.7744,0.0,0.0,0.0,0.0,0.0,0.0,0.0,0.0,0.0,0.0,0.0,0.0,0.0,0.0,6.7768,7.1105,0.0,7.4907,7.5278,0.0,0.0,0.0,7.7661,7.7923,8.0743,8.2649,8.2839,0.0,0.0,8.5343,8.5346,8.5345,8.5328,8.5194,8.5116,8.5157,8.5266,8.5905,8.7458,8.7686,8.8213,8.9378,8.9602,8.9557,8.9801,8.9977,8.9971,8.9842,8.9832,8.983,8.9797,8.9813,8.9827,8.9825,8.9791,9.0001,8.9801,8.9857,8.9447,8.8042,8.7662,8.713,7.7838,7.3299,7.0154,6.8237,6.7385,6.732,6.7735,6.8389,6.9091,6.9334,6.9236,6.8565,6.8581,6.9176,6.849,0.0,0.0,0.0,7.4206,7.8276,7.8234,7.9865,8.2613,8.2726,8.2761,8.2762,8.2082,8.1306,8.0487,7.985,7.6265,6.9838,0.0,0.0,6.5035,6.7878,6.9266,6.902,7.0935,7.197,7.1974,7.1907,7.1825,7.18,7.1845,7.1503,7.0697,6.9676,6.8655,6.758,6.4439,6.2266,0.0,0.0,0.0,0.0,0.0,0.0,0.0,0.0,0.0,0.0,0.0,5.8186,5.5594,0.0,0.0,0.0,6.2668,6.4466,6.7105,7.002,0.0,0.0,0.0,0.0,0.0,0.0,0.0,7.9158,8.1771,8.3393,8.3394,8.1649,8.0015,7.8985,8.1473,8.3064,8.2037,0.0,8.5187,8.5831,8.5892,8.6072,8.6806,8.6024,8.6051,8.8128,8.9222,8.9844,8.9804,8.9817,8.9811,8.9828,8.9804,8.9817,8.9832,8.8128,8.6846,8.6831,8.6844,8.6677,8.6099,8.5951,8.5421,6.9335,0.0,0.0,0.0,0.0,6.2161,6.2211,6.2319,6.2884,6.2794,6.2202,6.1723,0.0,0.0,0.0,0.0,0.0,0.0,6.828,7.3443,7.4382,7.6968,8.0824,8.0316,8.0085,8.0054,7.9635,7.8603,7.7088,7.6231,7.1488,6.3296,0.0,0.0,0.0,0.0,6.5665,6.5153,6.8248,7.0005,7.0009,6.9848,6.9775,6.9782,6.9752,6.9405,6.875,6.6737,6.4866,6.3099,5.9061,0.0,0.0,0.0,0.0,0.0,0.0,0.0,0.0,0.0,0.0,0.0,0.0,0.0,0.0,0.0,0.0,0.0,0.0,0.0,6.1353,6.4851,6.5996,0.0,0.0,0.0,0.0,0.0,0.0,0.0,0.0,0.0,7.8834,7.7111,7.5659,0.0,0.0,7.984,7.8658,8.0151,8.1756,8.2669,8.2337,0.0,8.3305,8.2817,8.3147,8.5631,8.7367,8.8209,8.7732,8.8024,8.8189,8.7686,8.8034,8.8337,8.8125,8.5947,8.4214,8.404,8.4045,8.3957,8.3606,8.3509,8.2946,0.0,0.0,0.0,0.0,0.0,0.0,0.0,0.0,5.9072,5.8731,0.0,5.5492,0.0,0.0,0.0,0.0,0.0,6.0956,0.0,0.0,7.4458,7.7124,7.8709,7.7117,7.6333,7.6265,7.4778,7.3209,7.1489,6.8579,0.0,0.0,0.0,0.0,0.0,0.0,6.3363,6.4861,6.818,6.9971,6.9962,6.9816,6.9761,6.9727,6.9598,6.8607,6.6736,6.3759,6.138,5.9667,5.3555,0.0,0.0,0.0,0.0,0.0,0.0,0.0,0.0,0.0,0.0,0.0,0.0,0.0,0.0,0.0,0.0,0.0,0.0,0.0,0.0,6.0067,0.0,0.0,0.0,0.0,0.0,0.0,0.0,0.0,0.0,0.0,7.0532,7.1607,7.3049,7.4584,0.0,0.0,0.0,0.0,7.4123,7.7393,7.6431,7.6495,7.9544,8.1315,8.2291,8.2523,0.0,0.0,8.278,8.3797,8.4391,8.281,8.3983,8.4833,8.4615,8.2973,8.2017,8.2002,8.1846,8.1688,8.0422,7.9696,7.93,0.0,0.0,0.0,0.0,0.0,0.0,0.0,0.0,0.0,5.2035,0.0,4.989,0.0,0.0,0.0,0.0,0.0,0.0,0.0,0.0,6.6203,6.9037,7.0556,7.1122,7.1346,0.0,6.9672,6.5393,0.0,0.0,0.0,0.0,0.0,0.0,0.0,0.0,5.953,6.0317,6.5448,6.8196,6.8183,6.8004,6.7869,6.7836,6.6657,6.4705,6.181,5.9692,5.7903,0.0,0.0,0.0,0.0,0.0,0.0,0.0,0.0,0.0,0.0,0.0,0.0,0.0,0.0,0.0,0.0,0.0,0.0,0.0,0.0,0.0,0.0,0.0,5.7778,0.0,0.0,0.0,0.0,0.0,0.0,0.0,0.0,0.0,6.5199,6.8371,7.0595,7.0095,7.2837,7.4487,7.3425,0.0,0.0,0.0,0.0,0.0,0.0,0.0,7.4823,7.701,7.6946,7.7125,7.8639,8.0304,8.1582,8.2036,0.0,0.0,7.58,7.438,7.4032,7.4111,7.4025,7.3852,7.3388,7.3291,7.3139,0.0,0.0,0.0,0.0,0.0,0.0,0.0,0.0,0.0,4.5918,4.4518,0.0,0.0,0.0,0.0,0.0,0.0,0.0,0.0,0.0,0.0,0.0,6.4401,6.5047,0.0,0.0,0.0,0.0,0.0,0.0,0.0,0.0,0.0,0.0,0.0,0.0,5.7556,5.7821,6.399,6.7058,6.6415,6.6113,6.5937,6.5846,6.4507,6.226,5.9142,0.0,0.0,0.0,0.0,0.0,0.0,0.0,0.0,0.0,0.0,0.0,0.0,0.0,0.0,0.0,0.0,0.0,0.0,0.0,0.0,0.0,0.0,0.0,0.0,0.0,5.5193,0.0,0.0,0.0,0.0,0.0,0.0,0.0,0.0,0.0,0.0,0.0,6.5982,6.6532,6.9432,7.1109,7.0005,6.9857,7.0459,0.0,0.0,0.0,0.0,0.0,0.0,0.0,0.0,0.0,0.0,0.0,0.0,0.0,0.0,7.3782,6.8863,6.7499,6.714,6.7262,0.0,0.0,0.0,0.0,0.0,0.0,0.0,0.0,0.0,0.0,0.0,0.0,0.0,0.0,0.0,3.9554,0.0,0.0,4.1697,0.0,0.0,0.0,0.0,0.0,0.0,0.0,0.0,0.0,0.0,0.0,0.0,0.0,0.0,0.0,0.0,0.0,0.0,0.0,0.0,0.0,0.0,5.7437,5.7552,6.3841,6.6451,6.4724,6.4297,6.3976,6.3705,6.316,6.158,5.8777,0.0,0.0,0.0,0.0,0.0,0.0,0.0,0.0,0.0,0.0,0.0,0.0,0.0,0.0,0.0,0.0,0.0,0.0,0.0,0.0,0.0,0.0,0.0,0.0,0.0,0.0,5.2358,5.2292,5.3057,0.0,0.0,0.0,0.0,0.0,0.0,0.0,0.0,0.0,0.0,6.4883,6.4959,6.5028,6.4963,6.562,6.7263,6.5958,6.5369,6.7038,6.7091,6.6986,0.0,0.0,0.0,0.0,0.0,0.0,0.0,0.0,0.0,0.0,0.0,0.0,0.0,0.0,0.0,0.0,0.0,0.0,0.0,0.0,0.0,0.0,0.0,0.0,0.0,0.0,0.0,0.0,0.0,0.0,0.0,0.0,0.0,0.0,0.0,0.0,0.0,0.0,0.0,0.0,0.0,0.0,0.0,0.0,0.0,0.0,0.0,0.0,0.0,0.0,0.0,0.0,0.0,0.0,5.5758,5.5794,6.1046,6.3396,6.2731,6.232,6.188,6.144,6.0058,5.7927,0.0,0.0,0.0,0.0,0.0,0.0,0.0,0.0,0.0,0.0,0.0,0.0,0.0,0.0,0.0,0.0,0.0,0.0,0.0,0.0,0.0,0.0,0.0,0.0,0.0,0.0,0.0,0.0,5.227,5.2518,5.3008,0.0,0.0,0.0,0.0,0.0,0.0,0.0,0.0,0.0,0.0,6.4763,6.4767,6.3797,6.3583,6.5202,6.4028,6.3516,6.4965,6.4182,6.3307,6.3135,0.0,0.0,0.0,0.0,0.0,0.0,0.0,0.0,0.0,0.0,0.0,0.0,0.0,0.0,0.0,0.0,0.0,0.0,0.0,0.0,0.0,0.0,0.0,0.0,0.0,0.0,0.0,0.0,0.0,0.0,0.0,0.0,0.0,0.0,0.0,0.0,0.0,0.0,0.0,0.0,0.0,0.0,0.0,0.0,0.0,0.0,0.0,0.0,0.0,0.0,0.0,0.0,0.0,5.4681,5.4102,5.9409,6.1728,6.0807,6.0291,5.9765,5.9178,5.7917,5.5321,0.0,0.0,0.0,0.0,0.0,0.0,0.0,0.0,0.0,0.0,0.0,0.0,0.0,0.0,0.0,0.0,0.0,0.0,0.0,0.0,0.0,0.0,0.0,0.0,0.0,0.0,0.0,0.0,4.996,5.0364,5.0403,0.0,0.0,0.0,0.0,0.0,0.0,0.0,0.0,0.0,0.0,6.0842,6.0867,6.049,0.0,0.0,6.155,6.0795,6.2856,6.169,6.0288,5.9467,5.9442,0.0,0.0,0.0,0.0,0.0,0.0,0.0,0.0,0.0,0.0,0.0,0.0,0.0,0.0,0.0,0.0,0.0,0.0,0.0,0.0,0.0,0.0,0.0,0.0,0.0,0.0,0.0,0.0,0.0,0.0,0.0,0.0,0.0,0.0,0.0,0.0,0.0,0.0,0.0,0.0,0.0,0.0,0.0,0.0,0.0,0.0,0.0,0.0,0.0,0.0,0.0,0.0,0.0,5.2774,5.8759,6.1045,5.9158,5.8455,5.773,5.7063,5.6599,5.3632,0.0,0.0,0.0,0.0,0.0,0.0,0.0,0.0,0.0,0.0,0.0,0.0,0.0,0.0,0.0,0.0,0.0,0.0,0.0,0.0,0.0,0.0,0.0,0.0,0.0,0.0,0.0,0.0,0.0,0.0,0.0,0.0,0.0,0.0,0.0,0.0,0.0,0.0,0.0,0.0,0.0,5.4715,5.4904,5.6093,5.8013,0.0,0.0,5.7463,6.0021,5.9244,5.779,5.5979,0.0,0.0,0.0,0.0,0.0,0.0,0.0,0.0,0.0,0.0,0.0,0.0,0.0,0.0,0.0,0.0,0.0,0.0,0.0,0.0,0.0,0.0,0.0,0.0,0.0,0.0,0.0,0.0,0.0,0.0,0.0,0.0,0.0,0.0,0.0,0.0,0.0,0.0,0.0,0.0,0.0,0.0,0.0,0.0,0.0,0.0,0.0,0.0,0.0,0.0,0.0,0.0,0.0,0.0,5.26,5.7542,5.9683,5.8794,5.81,5.7279,5.646,5.5987,0.0,0.0,0.0,0.0,0.0,0.0,0.0,0.0,0.0,0.0,0.0,0.0,0.0,0.0,0.0,0.0,0.0,0.0,0.0,0.0,0.0,0.0,0.0,0.0,0.0,0.0,0.0,4.2063,0.0,0.0,0.0,0.0,0.0,0.0,0.0,0.0,0.0,0.0,0.0,0.0,0.0,0.0,5.5433,5.7682,5.6311,5.5328,0.0,0.0,5.4379,5.2599,5.4971,5.6055,0.0,0.0,0.0,0.0,0.0,0.0,0.0,0.0,0.0,0.0,0.0,0.0,0.0,0.0,0.0,0.0,0.0,0.0,0.0,0.0,0.0,0.0,0.0,0.0,0.0,0.0,0.0,0.0,0.0,0.0,0.0,0.0,0.0,0.0,0.0,0.0,0.0,0.0,0.0,0.0,0.0,0.0,0.0,0.0,0.0,0.0,0.0,0.0,0.0,0.0,0.0,0.0,0.0,0.0,5.0644,5.1443,5.5252,5.7736,5.8657,5.7751,5.6883,5.6042,5.5682,5.2847,0.0,0.0,0.0,0.0,0.0,0.0,0.0,0.0,0.0,0.0,0.0,0.0,0.0,0.0,0.0,0.0,0.0,0.0,0.0,0.0,0.0,0.0,0.0,0.0,0.0,0.0,0.0,0.0,0.0,0.0,0.0,0.0,0.0,0.0,0.0,0.0,0.0,0.0,0.0,0.0,0.0,0.0,5.4794,5.332,0.0,0.0,0.0,5.1066,5.1224,0.0,0.0,0.0,0.0,0.0,0.0,0.0,0.0,0.0,0.0,0.0,0.0,0.0,0.0,0.0,0.0,0.0,0.0,0.0,0.0,0.0,0.0,0.0,0.0,0.0,0.0,0.0,0.0,0.0,0.0,0.0,0.0,0.0,0.0,0.0,0.0,0.0,0.0,0.0,0.0,0.0,0.0,0.0,0.0,0.0,0.0,0.0,0.0,0.0,0.0,0.0,0.0,0.0,0.0,0.0,0.0,0.0,4.9833,5.3163,5.6112,5.8467,5.7533,5.6515,5.5753,5.5498,5.2658,0.0,0.0,0.0,0.0,0.0,0.0,0.0,0.0,0.0,0.0,0.0,0.0,0.0,0.0,0.0,0.0,0.0,0.0,0.0,0.0,0.0,0.0,0.0,0.0,0.0,0.0,0.0,0.0,0.0,0.0,0.0,0.0,0.0,0.0,0.0,0.0,0.0,0.0,0.0,0.0,0.0,5.2332,4.9973,4.924,4.8908,0.0,0.0,4.7814,5.1702,5.1471,0.0,0.0,0.0,0.0,0.0,0.0,0.0,0.0,0.0,0.0,0.0,0.0,0.0,0.0,0.0,0.0,0.0,0.0,0.0,0.0,0.0,0.0,0.0,0.0,0.0,0.0,0.0,0.0,0.0,0.0,0.0,0.0,0.0,0.0,0.0,0.0,0.0,0.0,0.0,0.0,0.0,0.0,0.0,0.0,0.0,0.0,0.0,0.0,0.0,0.0,0.0,0.0,0.0,0.0,0.0,0.0,4.9782,5.5047,5.8079,5.8472,5.7298,5.6262,5.5481,5.5134,5.2357,0.0,0.0,0.0,0.0,0.0,0.0,0.0,0.0,0.0,0.0,0.0,0.0,0.0,0.0,0.0,0.0,0.0,0.0,0.0,0.0,0.0,0.0,0.0,0.0,0.0,0.0,0.0,0.0,0.0,0.0,0.0,0.0,0.0,0.0,0.0,0.0,0.0,0.0,0.0,0.0,0.0,4.9028,5.0924,4.8991,0.0,0.0,0.0,0.0,4.4564,4.6428,0.0,0.0,0.0,0.0,0.0,0.0,0.0,0.0,0.0,0.0,0.0,0.0,0.0,0.0,0.0,0.0,0.0,0.0,0.0,0.0,0.0,0.0,0.0,0.0,0.0,0.0,0.0,0.0,0.0,0.0,0.0,0.0,0.0,0.0,0.0,0.0,0.0,0.0,0.0,0.0,0.0,0.0,0.0,0.0,0.0,0.0,0.0,0.0,0.0,0.0,0.0,0.0,0.0,0.0,0.0,0.0,4.9474,5.2474,5.5439,5.8152,5.7053,5.6008,5.5246,5.4976,5.2215,0.0,0.0,0.0,0.0,0.0,0.0,0.0,0.0,0.0,0.0,0.0,0.0,0.0,0.0,0.0,0.0,0.0,0.0,0.0,0.0,0.0,0.0,0.0,0.0,0.0,0.0,0.0,0.0,0.0,0.0,0.0,0.0,0.0,0.0,0.0,0.0,0.0,0.0,0.0,0.0,4.7649,4.8378,4.933,0.0,0.0,0.0,0.0,0.0,0.0,4.4671,4.5036,0.0,0.0,0.0,0.0,0.0,0.0,0.0,0.0,0.0,0.0,0.0,0.0,0.0,0.0,0.0,0.0,0.0,0.0,0.0,0.0,0.0,0.0,0.0,0.0,0.0,0.0,0.0,0.0,0.0,0.0,0.0,0.0,0.0,0.0,0.0,0.0,0.0,0.0,0.0,0.0,0.0,0.0,0.0,0.0,0.0,0.0,0.0,0.0,0.0,0.0,0.0,0.0,0.0,0.0,0.0,4.926,4.9641,5.2455,5.7841,5.6817,5.5812,5.5046,5.4923,5.2227,4.6865,0.0,0.0,0.0,0.0,0.0,0.0,0.0,0.0,0.0,0.0,0.0,0.0,0.0,0.0,0.0,0.0,0.0,0.0,0.0,0.0,0.0,0.0,0.0,0.0,0.0,0.0,0.0,0.0,0.0,0.0,0.0,0.0,0.0,0.0,0.0,0.0,0.0,0.0,0.0,4.7198,4.7741,0.0,0.0,0.0,0.0,0.0,0.0,0.0,0.0,4.3284,0.0,0.0,0.0,0.0,0.0,0.0,0.0,0.0,0.0,0.0,0.0,0.0,0.0,0.0,0.0,0.0,0.0,0.0,0.0,0.0,0.0,0.0,0.0,0.0,0.0,0.0,0.0,0.0,0.0,0.0,0.0,0.0,0.0,0.0,0.0,0.0,0.0,0.0,0.0,0.0,0.0,0.0,0.0,0.0,0.0,0.0,0.0,0.0,0.0,0.0,0.0,0.0,0.0,0.0,0.0,0.0,5.1717,5.4523,5.7628,5.6726,5.5777,5.5011,5.5006,5.2286,4.6755,0.0,0.0,0.0,0.0,0.0,0.0,0.0,0.0,0.0,0.0,0.0,0.0,0.0,0.0,0.0,0.0,0.0,0.0,0.0,0.0,0.0,0.0,0.0,0.0,0.0,0.0,0.0,0.0,0.0,0.0,0.0,0.0,0.0,0.0,0.0,0.0,0.0,0.0,4.1002,4.2389,0.0,0.0,0.0,0.0,0.0,0.0,0.0,0.0,4.2801,0.0,0.0,0.0,0.0,0.0,0.0,0.0,0.0,0.0,0.0,0.0,0.0,0.0,0.0,0.0,0.0,0.0,0.0,0.0,0.0,0.0,0.0,0.0,0.0,0.0,0.0,0.0,0.0,0.0,0.0,0.0,0.0,0.0,0.0,0.0,0.0,0.0,0.0,0.0,0.0,0.0,0.0,0.0,0.0,0.0,0.0,0.0,0.0,0.0,0.0,0.0,0.0,0.0,0.0,0.0,0.0,0.0,0.0,5.3167,5.7323,5.6587,5.5707,5.4832,5.1908,4.8683,0.0,0.0,0.0,0.0,0.0,0.0,0.0,0.0,0.0,0.0,0.0,0.0,0.0,0.0,0.0,0.0,0.0,0.0,0.0,0.0,0.0,0.0,0.0,0.0,0.0,0.0,0.0,0.0,0.0,0.0,0.0,0.0,0.0,0.0,0.0,0.0,0.0,0.0,0.0,0.0,0.0,0.0,0.0,0.0,0.0,0.0,0.0,0.0,0.0,0.0,0.0,0.0,0.0,0.0,0.0,0.0,0.0,0.0,0.0,0.0,0.0,0.0,0.0,0.0,0.0,0.0,0.0,0.0,0.0,0.0,0.0,0.0,0.0,0.0,0.0,0.0,0.0,0.0,0.0,0.0,0.0,0.0,0.0,0.0,0.0,0.0,0.0,0.0,0.0,0.0,0.0,0.0,0.0,0.0,0.0,0.0,0.0,0.0,0.0,0.0,0.0,0.0,0.0,0.0,0.0,0.0,0.0,0.0,5.0895,5.6159,5.5434,5.4622,5.3863,4.8862,4.5385,0.0,0.0,0.0,0.0,0.0,0.0,0.0,0.0,0.0,0.0,0.0,0.0,0.0,0.0,0.0,0.0,0.0,0.0,0.0,0.0,0.0,0.0,0.0,0.0,0.0,0.0,0.0,0.0,0.0,0.0,0.0,0.0,0.0,0.0,0.0,0.0,0.0,0.0,0.0,0.0,0.0,0.0,0.0,0.0,0.0,0.0,0.0,0.0,4.1723,0.0,0.0,0.0,0.0,0.0,0.0,0.0,0.0,0.0,0.0,0.0,0.0,0.0,0.0,0.0,0.0,0.0,0.0,0.0,0.0,0.0,0.0,0.0,0.0,0.0,0.0,0.0,0.0,0.0,0.0,0.0,0.0,0.0,0.0,0.0,0.0,0.0,0.0,0.0,0.0,0.0,0.0,0.0,0.0,0.0,0.0,0.0,0.0,0.0,0.0,0.0,0.0,0.0,0.0,0.0,0.0,0.0,0.0,0.0,4.8656,5.3027,5.2173,5.1378,5.0718,4.7933,4.503,0.0,0.0,0.0,0.0,0.0,0.0,0.0,0.0,0.0,0.0,0.0,0.0,0.0,0.0,0.0,0.0,0.0,0.0,0.0,0.0,0.0,0.0,0.0,0.0,0.0,0.0,0.0,0.0,0.0,0.0,0.0,0.0,0.0,0.0,0.0,0.0,0.0,0.0,0.0,0.0,0.0,0.0,0.0,0.0,0.0,0.0,0.0,0.0,0.0,0.0,0.0,0.0,0.0,0.0,0.0,0.0,0.0,0.0,0.0,0.0,0.0,0.0,0.0,0.0,0.0,0.0,0.0,0.0,0.0,0.0,0.0,0.0,0.0,0.0,0.0,0.0,0.0,0.0,0.0,0.0,0.0,0.0,0.0,0.0,0.0,0.0,0.0,0.0,0.0,0.0,0.0,0.0,0.0,0.0,0.0,0.0,0.0,0.0,0.0,0.0,0.0,0.0,0.0,0.0,0.0,0.0,0.0,0.0,4.652,4.9661,5.087,5.0203,4.7584,4.3576,4.0987,0.0,0.0,0.0,0.0,0.0,0.0,0.0,0.0,0.0,0.0,0.0,0.0,0.0,0.0,0.0,0.0,0.0,0.0,0.0,0.0,0.0,0.0,0.0,0.0,0.0,0.0,0.0,0.0,0.0,0.0,0.0,0.0,0.0,0.0,0.0,0.0,0.0,0.0,0.0,0.0,0.0,0.0,0.0,0.0,0.0,0.0,0.0,0.0,0.0,0.0,0.0,0.0,0.0,0.0,0.0,0.0,0.0,0.0,0.0,0.0,0.0,0.0,0.0,0.0,0.0,0.0,0.0,0.0,0.0,0.0,0.0,0.0,0.0,0.0,0.0,0.0,0.0,0.0,0.0,0.0,0.0,0.0,0.0,0.0,0.0,0.0,0.0,0.0,0.0,0.0,0.0,0.0,0.0,0.0,0.0,0.0,0.0,0.0,0.0,0.0,0.0,0.0,0.0,0.0,0.0,0.0,0.0,0.0,0.0,4.6347,4.8217,4.7852,4.4965,3.9872,3.7571,0.0,0.0,0.0,0.0,0.0,0.0,0.0,0.0,0.0,0.0,0.0,0.0,0.0,0.0,0.0,0.0,0.0,0.0,0.0,0.0,0.0,0.0,0.0,0.0,0.0,0.0,0.0,0.0,0.0,0.0,0.0,0.0,0.0,0.0,0.0,0.0,0.0,0.0,0.0,0.0,0.0,0.0,0.0,0.0,0.0,0.0,0.0,0.0,0.0,0.0,0.0,0.0,0.0,0.0,0.0,0.0,0.0,0.0,0.0,0.0,0.0,0.0,0.0,0.0,0.0,0.0,0.0,0.0,0.0,0.0,0.0,0.0,0.0,0.0,0.0,0.0,0.0,0.0,0.0,0.0,0.0,0.0,0.0,0.0,0.0,0.0,0.0,0.0,0.0,0.0,0.0,0.0,0.0,0.0,0.0,0.0,0.0,0.0,0.0,0.0,0.0,0.0,0.0,0.0,0.0,0.0,0.0,0.0,0.0,4.3201,4.2901,4.3064,4.3521,3.8392,3.6112,0.0,0.0,0.0,0.0,0.0,0.0,0.0,0.0,0.0,0.0,0.0,0.0,0.0,0.0,0.0,0.0,0.0,0.0,0.0,0.0,0.0,0.0,0.0,0.0,0.0,0.0,0.0,0.0,0.0,0.0,0.0,0.0,0.0,0.0,0.0,0.0,0.0,0.0,0.0,0.0,0.0,0.0,0.0,0.0,0.0,0.0,0.0,0.0,0.0,0.0,0.0,0.0,0.0,0.0,0.0,0.0,0.0,0.0,0.0,0.0,0.0,0.0,0.0,0.0,0.0,0.0,0.0,0.0,0.0,0.0,0.0,0.0,0.0,0.0,0.0,0.0,0.0,0.0,0.0,0.0,0.0,0.0,0.0,0.0,0.0,0.0,0.0,0.0,0.0,0.0,0.0,0.0,0.0,0.0,0.0,0.0,0.0,0.0,0.0,0.0,0.0,0.0,0.0,0.0,0.0,0.0,0.0,0.0,0.0,3.7365,4.0712,4.2029,4.0999,3.846,3.6724,3.581,0.0,0.0,0.0,0.0,0.0,0.0,0.0,0.0,0.0,0.0,0.0,0.0,0.0,0.0,0.0,0.0,0.0,0.0,0.0,0.0,0.0,0.0,0.0,0.0,0.0,0.0,0.0,0.0,0.0,0.0,0.0,0.0,0.0,0.0,0.0,0.0,0.0,0.0,0.0,0.0,0.0,0.0,0.0,0.0,0.0,0.0,0.0,0.0,0.0,0.0,0.0,0.0,0.0,0.0,0.0,0.0,0.0,0.0,0.0,0.0,0.0,0.0,0.0,0.0,0.0,0.0,0.0,0.0,0.0,0.0,0.0,0.0,0.0,0.0,0.0,0.0,0.0,0.0,0.0,0.0,0.0,0.0,0.0,0.0,0.0,0.0,0.0,0.0,0.0,0.0,0.0,0.0,0.0,0.0,0.0,0.0,0.0,0.0,0.0,0.0,0.0,0.0,0.0,0.0,0.0,0.0,0.0,0.0,3.3872,3.8146,3.9974,3.8892,3.747,3.6016,0.0,0.0,0.0,0.0,0.0,0.0,0.0,0.0,0.0,0.0,0.0,0.0,0.0,0.0,0.0,0.0,0.0,0.0,0.0,0.0,0.0,0.0,0.0,0.0,0.0,0.0,0.0,0.0,0.0,0.0,0.0,0.0,0.0,0.0,0.0,0.0,0.0,0.0,0.0,0.0,0.0,0.0,0.0,0.0,0.0,0.0,0.0,0.0,0.0,0.0,0.0,0.0,0.0,0.0,0.0,0.0,0.0,0.0,0.0,0.0,0.0,0.0,0.0,0.0,0.0,0.0,0.0,0.0,0.0,0.0,0.0,0.0,0.0,0.0,0.0,0.0,0.0,0.0,0.0,0.0,0.0,0.0,0.0,0.0,0.0,0.0,0.0,0.0,0.0,0.0,0.0,0.0,0.0,0.0,0.0,0.0,0.0,0.0,0.0,0.0,0.0,0.0,0.0,0.0,0.0,0.0,0.0,0.0,3.3966,3.3461,3.4838,3.6302,3.739,3.5133,3.369,0.0,0.0,0.0,0.0,0.0,0.0,0.0,0.0,0.0,0.0,0.0,0.0,0.0,0.0,0.0,0.0,0.0,0.0,0.0,0.0,0.0,0.0,0.0,0.0,0.0,0.0,0.0,0.0,0.0,0.0,0.0,0.0,0.0,0.0,0.0,0.0,0.0,0.0,0.0,0.0,0.0,0.0,0.0,0.0,0.0,0.0,0.0,0.0,0.0,0.0,0.0,0.0,0.0,0.0,0.0,0.0,0.0,0.0,0.0,0.0,0.0,0.0,0.0,0.0,0.0,0.0,0.0,0.0,0.0,0.0,0.0,0.0,0.0,0.0,0.0,0.0,0.0,0.0,0.0,0.0,0.0,0.0,0.0,0.0,0.0,0.0,0.0,0.0,0.0,0.0,0.0,0.0,0.0,0.0,0.0,0.0,0.0,0.0,0.0,0.0,0.0,0.0,0.0,0.0,0.0,0.0,0.0,0.0,0.0,3.0813,0.0,3.5194,0.0,3.4925,3.3947,0.0,0.0,0.0,0.0,0.0,0.0,0.0,0.0,0.0,0.0,0.0,0.0,0.0,0.0,0.0,0.0,0.0,0.0,0.0,0.0,0.0,0.0,0.0,0.0,0.0,0.0,0.0,0.0,0.0,0.0,0.0,0.0,0.0,0.0,0.0,0.0,0.0,0.0,0.0,0.0,0.0,0.0,0.0,0.0,0.0,0.0,0.0,0.0,0.0,0.0,0.0,0.0,0.0,0.0,0.0,0.0,0.0,0.0,0.0,0.0,0.0,0.0,0.0,0.0,0.0,0.0,0.0,0.0,0.0,0.0,0.0,0.0,0.0,0.0,0.0,0.0,0.0,0.0,0.0,0.0,0.0,0.0,0.0,0.0,0.0,0.0,0.0,0.0,0.0,0.0,0.0,0.0,0.0,0.0,0.0,0.0,0.0,0.0,0.0,0.0,0.0,0.0,0.0,0.0,0.0,0.0,0.0,0.0,0.0,3.0745,3.2731,3.3735,3.3444,3.3839,3.3121,0.0,0.0,0.0,0.0,0.0,0.0,0.0,0.0,0.0,0.0,0.0,0.0,0.0,0.0,0.0,0.0,0.0,0.0,0.0,0.0,0.0,0.0,0.0,0.0,0.0,0.0,0.0,0.0,0.0,0.0,0.0,0.0,0.0,0.0,0.0,0.0,0.0,0.0,0.0,0.0,0.0,0.0,0.0,0.0,0.0,0.0,0.0,0.0,0.0,0.0,0.0,0.0,0.0,0.0,0.0,0.0,0.0,0.0,0.0,0.0,0.0,0.0,0.0,0.0,0.0,0.0,0.0,0.0,0.0,0.0,0.0,0.0,0.0,0.0,0.0,0.0,0.0,0.0,0.0,0.0,0.0,0.0,0.0,0.0,0.0,0.0,0.0,0.0,0.0,0.0,0.0,0.0,0.0,0.0,0.0,0.0,0.0,0.0,0.0,0.0,0.0,0.0,0.0,0.0,0.0,0.0,0.0,0.0,0.0,0.0,3.1805,3.1862,3.2876,3.2004,3.1198,0.0,0.0,0.0,0.0,0.0,0.0,0.0,0.0,0.0,0.0,0.0,0.0,0.0,0.0,0.0,0.0,0.0,0.0,0.0,0.0,0.0,0.0,0.0,0.0,0.0,0.0,0.0,0.0,0.0,0.0,0.0,0.0,0.0,0.0,0.0,0.0,0.0,0.0,0.0,0.0,0.0,0.0,0.0,0.0,0.0,0.0,0.0,0.0,0.0,0.0,0.0,0.0,0.0,0.0,0.0,0.0,0.0,0.0,0.0,0.0,0.0,0.0,0.0,0.0,0.0,0.0,0.0,0.0,0.0,0.0,0.0,0.0,0.0,0.0,0.0,0.0,0.0,0.0,0.0,0.0,0.0,0.0,0.0,0.0,0.0,0.0,0.0,0.0,0.0,0.0,0.0,0.0,0.0,0.0,0.0,0.0,0.0,0.0,0.0,0.0,0.0,0.0,0.0,0.0,0.0,0.0,0.0,0.0,0.0,0.0,3.096,0.0,3.1369,3.1092,3.0404,2.9368,0.0,0.0,0.0,0.0,0.0,0.0,0.0,0.0,0.0,0.0,0.0,0.0,0.0,0.0,0.0,0.0,0.0,0.0,0.0,0.0,0.0,0.0,0.0,0.0,0.0,0.0,0.0,0.0,0.0,0.0,0.0,0.0,0.0,0.0,0.0,0.0,0.0,0.0,0.0,0.0,0.0,0.0,0.0,0.0,0.0,0.0,0.0,0.0,0.0,0.0,0.0,0.0,0.0,0.0,0.0,0.0,0.0,0.0,0.0,0.0,0.0,0.0,0.0,0.0,0.0,0.0,0.0,0.0,0.0,0.0,0.0,0.0,0.0,0.0,0.0,0.0,0.0,0.0,0.0,0.0,0.0,0.0,0.0,0.0,0.0,0.0,0.0,0.0,0.0,0.0,0.0,0.0,0.0,0.0,0.0,0.0,0.0,0.0,0.0,0.0,0.0,0.0,0.0,0.0,0.0,0.0,0.0,0.0,0.0,0.0,3.0326,3.058,3.0521,3.0167,0.0,0.0,0.0,0.0,0.0,0.0,0.0,0.0,0.0,0.0,0.0,0.0,0.0,0.0,0.0,0.0,0.0,0.0,0.0,0.0,0.0,0.0,0.0,0.0,0.0,0.0,0.0,0.0,0.0,0.0,0.0,0.0,0.0,0.0,0.0,0.0,0.0,0.0,0.0,0.0,0.0,0.0,0.0,0.0,0.0,0.0,0.0,0.0,0.0,0.0,0.0,0.0,0.0,0.0,0.0,0.0,0.0,0.0,0.0,0.0,0.0,0.0,0.0,0.0,0.0,0.0,0.0,0.0,0.0,0.0,0.0,0.0,0.0,0.0,0.0,0.0,0.0,0.0,0.0,0.0,0.0,0.0,0.0,0.0,0.0,0.0,0.0,0.0,0.0,0.0,0.0,0.0,0.0,0.0,0.0,0.0,0.0,0.0,0.0,0.0,0.0,0.0,0.0,0.0,0.0,0.0,0.0,0.0,0.0,0.0,0.0,2.9007,3.0122,3.0346,0.0,2.9909,0.0,0.0,0.0,0.0,0.0,0.0,0.0,0.0,0.0,0.0,0.0,0.0,0.0,0.0,0.0,0.0,0.0,0.0,0.0,0.0,0.0,0.0,0.0,0.0,0.0,0.0,0.0,0.0,0.0,0.0,0.0,0.0,0.0,0.0,0.0,0.0,0.0,0.0,0.0,0.0,0.0,0.0,0.0,0.0,0.0,0.0,0.0,0.0,0.0,0.0,0.0,0.0,0.0,0.0,0.0,0.0,0.0,0.0,0.0,0.0,0.0,0.0,0.0,0.0,0.0,0.0,0.0,0.0,0.0,0.0,0.0,0.0,0.0,0.0,0.0,0.0,0.0,0.0,0.0,0.0,0.0,0.0,0.0,0.0,0.0,0.0,0.0,0.0,0.0,0.0,0.0,0.0,0.0,0.0,0.0,0.0,0.0,0.0,0.0,0.0,0.0,0.0,0.0,0.0,0.0,0.0,0.0,0.0,0.0,0.0,0.0,0.0,3.0437,3.0549,2.8855,0.0,0.0,0.0,0.0,0.0,0.0,0.0,0.0,0.0,0.0,0.0,0.0,0.0,0.0,0.0,0.0,0.0,0.0,0.0,0.0,0.0,0.0,0.0,0.0,0.0,0.0,0.0,0.0,0.0,0.0,0.0,0.0,0.0,0.0,0.0,0.0,0.0,0.0,0.0,0.0,0.0,0.0,0.0,0.0,0.0,0.0,0.0,0.0,0.0,0.0,0.0,0.0,0.0,0.0,0.0,0.0,0.0,0.0,0.0,0.0,0.0,0.0,0.0,0.0,0.0,0.0,0.0,0.0,0.0,0.0,0.0,0.0,0.0,0.0,0.0,0.0,0.0,0.0,0.0,0.0,0.0,0.0,0.0,0.0,0.0,0.0,0.0,0.0,0.0,0.0,0.0,0.0,0.0,0.0,0.0,0.0,0.0,0.0,0.0,0.0,0.0,0.0,0.0,0.0,0.0,0.0,0.0,0.0,0.0,0.0,2.9083,2.8166,3.034,3.0521,2.8341,0.0,0.0,0.0,0.0,0.0,0.0,0.0,0.0,0.0,0.0,0.0,0.0,0.0,0.0,0.0,0.0,0.0,0.0,0.0,0.0,0.0,0.0,0.0,0.0,0.0,0.0,0.0,0.0,0.0,0.0,0.0,0.0,0.0,0.0,0.0,0.0,0.0,0.0,0.0,0.0,0.0,0.0,0.0,0.0,0.0,0.0,0.0,0.0,0.0,0.0,0.0,0.0,0.0,0.0,0.0,0.0,0.0,0.0,0.0,0.0,0.0,0.0,0.0,0.0,0.0,0.0,0.0,0.0,0.0,0.0,0.0,0.0,0.0,0.0,0.0,0.0,0.0,0.0,0.0,0.0,0.0,0.0,0.0,0.0,0.0,0.0,0.0,0.0,0.0,0.0,0.0,0.0,0.0,0.0,0.0,0.0,0.0,0.0,0.0,0.0,0.0,0.0,0.0,0.0,0.0,0.0,0.0,0.0,0.0,0.0,0.0,0.0,0.0,0.0,2.8289,0.0,0.0,0.0,0.0,0.0,0.0,0.0,0.0,0.0,0.0,0.0,0.0,0.0,0.0,0.0,0.0,0.0,0.0,0.0,0.0,0.0,0.0,0.0,0.0,0.0,0.0,0.0,0.0,0.0,0.0,0.0,0.0,0.0,0.0,0.0,0.0,0.0,0.0,0.0,0.0,0.0,0.0,0.0,0.0,0.0,0.0,0.0,0.0,0.0,0.0,0.0,0.0,0.0,0.0,0.0,0.0,0.0,0.0,0.0,0.0,0.0,0.0,0.0,0.0,0.0,0.0,0.0,0.0,0.0,0.0,0.0,0.0,0.0,0.0,0.0,0.0,0.0,0.0,0.0,0.0,0.0,0.0,0.0,0.0,0.0,0.0,0.0,0.0,0.0,0.0,0.0,0.0,0.0,0.0,0.0,0.0,0.0,0.0,0.0,0.0,0.0,0.0,0.0,0.0,0.0,0.0,0.0,0.0,0.0,0.0,0.0,0.0,0.0,0.0,0.0,0.0,0.0,0.0,0.0,0.0,0.0,0.0,0.0,0.0,0.0,0.0,0.0,0.0,0.0,0.0,0.0,0.0,0.0,0.0,0.0,0.0,0.0,0.0,0.0,0.0,0.0,0.0,0.0,0.0,0.0,0.0,0.0,0.0,0.0,0.0,0.0,0.0,0.0,0.0,0.0,0.0,0.0,0.0,0.0,0.0,0.0,0.0,0.0,0.0,0.0,0.0,0.0,0.0,0.0,0.0,0.0,0.0,0.0,0.0,0.0,0.0,0.0,0.0,0.0,0.0,0.0,0.0,0.0,0.0,0.0,0.0,0.0,0.0,0.0,0.0,0.0,0.0,0.0,0.0,0.0,0.0,0.0,0.0,0.0,0.0,0.0,0.0,0.0,0.0,0.0,0.0,0.0,0.0,0.0,0.0,0.0,0.0,0.0,0.0,0.0,0.0,0.0,0.0,0.0,0.0,0.0,0.0,0.0,0.0,0.0,0.0,0.0,0.0,0.0,0.0,0.0,0.0,0.0,0.0,0.0,0.0,0.0,0.0,0.0,0.0,0.0,0.0,0.0,0.0,0.0,0.0,0.0,0.0,0.0,0.0,0.0,0.0,0.0,0.0,0.0,0.0,0.0,0.0,0.0,0.0,0.0,0.0,0.0,0.0,0.0,0.0,0.0,0.0,0.0,0.0,0.0,0.0,0.0,0.0,0.0,0.0,0.0,0.0,0.0,0.0,0.0,0.0,0.0,0.0,0.0,0.0,0.0,0.0,0.0,0.0,0.0,0.0,0.0,0.0,0.0,0.0,0.0,0.0,0.0,0.0,0.0,0.0,0.0,0.0,0.0,0.0,0.0,0.0,0.0,0.0,0.0,0.0,0.0,0.0,0.0,0.0,0.0,0.0,0.0,0.0,0.0,0.0,0.0,0.0,0.0,0.0,0.0,0.0,0.0,0.0,0.0,0.0,0.0,0.0,0.0,0.0,0.0,0.0,0.0,0.0,0.0,0.0,0.0,0.0,0.0,0.0,0.0,0.0,0.0,0.0,0.0,0.0,0.0,0.0,0.0,0.0,0.0,0.0,0.0,0.0,0.0,0.0,0.0,0.0,0.0,0.0,0.0,0.0,0.0,0.0,0.0,0.0,0.0,0.0,0.0,0.0,0.0,0.0,0.0,0.0,0.0,0.0,0.0,0.0,0.0,0.0,0.0,0.0,0.0,0.0,0.0,0.0,0.0,0.0,0.0,0.0,0.0,0.0,0.0,0.0,0.0,0.0,0.0,0.0,0.0,0.0,0.0,0.0,0.0,0.0,0.0,0.0,0.0,0.0,0.0,0.0,0.0,0.0,0.0,0.0,0.0,0.0,0.0,0.0,0.0,0.0,0.0,0.0,0.0,0.0,0.0,0.0,0.0,0.0,0.0,0.0,0.0,0.0,0.0,0.0,0.0,0.0,0.0,0.0,0.0,0.0,0.0,0.0,0.0,0.0,0.0,0.0,0.0,0.0,0.0,0.0,0.0,0.0,0.0,0.0,0.0,0.0,0.0,0.0,0.0,0.0,0.0,0.0,0.0,0.0,0.0,0.0,0.0,0.0,0.0,0.0,0.0,0.0,0.0,0.0,0.0,0.0,0.0,0.0,0.0,0.0,0.0,0.0,0.0,0.0,0.0,0.0,0.0,0.0,0.0,0.0,0.0,0.0,0.0,0.0,0.0,0.0,0.0,0.0,0.0,0.0,0.0,0.0,0.0,0.0,0.0,0.0,0.0,0.0,0.0,0.0,0.0,0.0,0.0,0.0,0.0,0.0,0.0,0.0,0.0,0.0,0.0,0.0,0.0,0.0,0.0,0.0,0.0,0.0,0.0,0.0,0.0,0.0,0.0,0.0,0.0,0.0,0.0,0.0,0.0,0.0,0.0,0.0,0.0,0.0,0.0,0.0,0.0,0.0,0.0,0.0,0.0,0.0,0.0,0.0,0.0,0.0,0.0,0.0,0.0,0.0,0.0,0.0,0.0,0.0,0.0,0.0,0.0,0.0,0.0,0.0,0.0,0.0,0.0,0.0,0.0,0.0,0.0,0.0,0.0,0.0,0.0,0.0,0.0,0.0,0.0,0.0,0.0,0.0,0.0,0.0,0.0,0.0,0.0,0.0,0.0,0.0,0.0,0.0,0.0,0.0,0.0,0.0,0.0,0.0,0.0,0.0,0.0,0.0,0.0,0.0,0.0,0.0,0.0,0.0,0.0,0.0,0.0,0.0,0.0,0.0,0.0,0.0,0.0,0.0,0.0,0.0,0.0,0.0,0.0,0.0,0.0,0.0,0.0,0.0,0.0,0.0,0.0,0.0,0.0,0.0,0.0,0.0,0.0,0.0,0.0,0.0,0.0,0.0,0.0,0.0,0.0,0.0,0.0,0.0,0.0,0.0,0.0,0.0,0.0,0.0,0.0,0.0,0.0,0.0,0.0,0.0,0.0,0.0,0.0,0.0,0.0,0.0,0.0,0.0,0.0,0.0,0.0,0.0,0.0,0.0,0.0,0.0,0.0,0.0,0.0,0.0,0.0,0.0,0.0,0.0,0.0,0.0,0.0,0.0,0.0,0.0,0.0,0.0,0.0,0.0,0.0,0.0,0.0,0.0,0.0,0.0,0.0,0.0,0.0,0.0,0.0,0.0,0.0,0.0,0.0,0.0,0.0,0.0,0.0,0.0,0.0,0.0,0.0,0.0,0.0,0.0,0.0,0.0,0.0,0.0,0.0,0.0,0.0,0.0,0.0,0.0,0.0,0.0,0.0,0.0,0.0,0.0,0.0,0.0,0.0,0.0,0.0,0.0,0.0,0.0,0.0,0.0,0.0,0.0,0.0,0.0,0.0,0.0,0.0,0.0,0.0,0.0,0.0,0.0,0.0,0.0,0.0,0.0,0.0,0.0,0.0,0.0,0.0,0.0,0.0,0.0,0.0,0.0,0.0,0.0,0.0,0.0,0.0,0.0,0.0,0.0,0.0,0.0,0.0,0.0,0.0,0.0,0.0,0.0,0.0,0.0,0.0,0.0,0.0,0.0,0.0,0.0,0.0,0.0,0.0,0.0,0.0,0.0,0.0,0.0,0.0,0.0,0.0,0.0,0.0,0.0,0.0,0.0,0.0,0.0,0.0,0.0,0.0,0.0,0.0,0.0,0.0,0.0,0.0,0.0,0.0,0.0,0.0,0.0,0.0,0.0,0.0,0.0,0.0,0.0,0.0,0.0,0.0,0.0,0.0,0.0,0.0,0.0,0.0,0.0,0.0,0.0,0.0,0.0,0.0,0.0,0.0,0.0,0.0,0.0,0.0,0.0,0.0,0.0,0.0,0.0,0.0,0.0,0.0,0.0,0.0,0.0,0.0,0.0,0.0,0.0,0.0,0.0,0.0,0.0,0.0,0.0,0.0,0.0,0.0,0.0,0.0,0.0,0.0,0.0,0.0,0.0,0.0,0.0,0.0,0.0,0.0,0.0,0.0,0.0,0.0,0.0,0.0,0.0,0.0,0.0,0.0,0.0,0.0,0.0,0.0,0.0,0.0,0.0,0.0,0.0,0.0,0.0,0.0,0.0,0.0,0.0,0.0,0.0,0.0,0.0,0.0,0.0,0.0,0.0,0.0,0.0,0.0,0.0,0.0,0.0,0.0,0.0,0.0,0.0,0.0,0.0,0.0,0.0,0.0,0.0,0.0,0.0,0.0,0.0,0.0,0.0,0.0,0.0,0.0,0.0,0.0,0.0,0.0,0.0,0.0,0.0,0.0,0.0,0.0,0.0,0.0,0.0,0.0,0.0,0.0,0.0,0.0,0.0,0.0,0.0,0.0,0.0,0.0,0.0,0.0,0.0]}]]]